[[{"header":{"parameterUnit":"m.s-1","parameterCategory":1,"la1":31.0,"la2":29.5877,"lo1":-88.7671,"lo2":-86.6584,"dy":0.0162,"dx":0.0185,"nx":115,"ny":88,"refTime":"2024-02-25T12:00:00:Z","depth":0,"parameterNumber":2,"parameterNumberName":"U-component_of_WINDS"},"data":[0.0,0.0,0.0,0.0,0.0,0.0,0.0,0.0,0.0,0.0,0.0,0.0,0.0,0.0,0.0,0.0,0.0,0.0,0.0,0.0,0.0,0.0,0.0,0.0,0.0,0.0,0.0,0.0,0.0,0.0,0.0,0.0,0.0,0.0,0.0,0.0,0.0,0.0,0.0,0.0,0.0,0.0,0.0,0.0,0.0,0.0,0.0,0.0,0.0,0.0,0.0,0.0,0.0,0.0,0.0,0.0,0.0,0.0,0.0,0.0,0.0,0.0,0.0,0.0,0.0,0.0,0.0,0.0,0.0,0.0,0.0,0.0,0.0,0.0,0.0,0.0,0.0,0.0,0.0,0.0,0.0,0.0,0.0,0.0,0.0,0.0,0.0,0.0,0.0,0.0,0.0,0.0,0.0,0.0,0.0,0.0,0.0,0.0,0.0,0.0,0.0,0.0,0.0,0.0,0.0,0.0,0.0,0.0,0.0,0.0,0.0,0.0,0.0,0.0,0.0,0.0,0.0,0.0,0.0,0.0,0.0,0.0,0.0,0.0,0.0,0.0,0.0,0.0,0.0,0.0,0.0,0.0,0.0,0.0,0.0,0.0,0.0,0.0,0.0,0.0,0.0,0.0,0.0,0.0,0.0,0.0,0.0,0.0,0.0,0.0,0.0,0.0,0.0,0.0,0.0,0.0,0.0,0.0,0.0,0.0,0.0,0.0,0.0,0.0,0.0,0.0,0.0,0.0,0.0,0.0,0.0,0.0,0.0,0.0,0.0,0.0,0.0,0.0,0.0,0.0,0.0,0.0,0.0,0.0,0.0,0.0,0.0,0.0,0.0,0.0,0.0,0.0,0.0,0.0,0.0,0.0,0.0,0.0,0.0,0.0,0.0,0.0,0.0,0.0,0.0,0.0,0.0,0.0,0.0,0.0,0.0,0.0,0.0,0.0,0.0,0.0,0.0,0.0,0.0,0.0,0.0,0.0,0.0,0.0,0.0,0.0,0.0,0.0,0.0,0.0,0.0,0.0,0.0,0.0,0.0,0.0,0.0,0.0,0.0,0.0,0.0,0.0,0.0,0.0,0.0,0.0,0.0,0.0,0.0,0.0,0.0,0.0,0.0,0.0,0.0,0.0,0.0,0.0,0.0,0.0,0.0,0.0,0.0,0.0,0.0,0.0,0.0,0.0,0.0,0.0,0.0,0.0,0.0,0.0,0.0,0.0,0.0,0.0,0.0,0.0,0.0,0.0,0.0,0.0,0.0,0.0,0.0,0.0,0.0,0.0,0.0,0.0,0.0,0.0,0.0,0.0,0.0,0.0,0.0,0.0,0.0,0.0,0.0,0.0,0.0,0.0,0.0,0.0,0.0,0.0,0.0,0.0,0.0,0.0,0.0,0.0,0.0,0.0,0.0,0.0,0.0,0.0,0.0,0.0,0.0,0.0,0.0,0.0,0.0,0.0,0.0,0.0,0.0,0.0,0.0,0.0,0.0,0.0,0.0,0.0,0.0,0.0,0.0,0.0,0.0,0.0,0.0,0.0,0.0,0.0,0.0,0.0,0.0,0.0,0.0,0.0,0.0,0.0,0.0,0.0,0.0,0.0,0.0,0.0,0.0,0.0,0.0,0.0,0.0,0.0,0.0,0.0,0.0,0.0,0.0,0.0,0.0,0.0,0.0,0.0,0.0,0.0,0.0,0.0,0.0,0.0,0.0,0.0,0.0,0.0,0.0,0.0,0.0,0.0,0.0,0.0,0.0,0.0,0.0,0.0,0.0,0.0,0.0,0.0,0.0,0.0,0.0,0.0,0.0,0.0,0.0,0.0,0.0,0.0,0.0,0.0,0.0,0.0,0.0,0.0,0.0,0.0,0.0,0.0,0.0,0.0,0.0,0.0,0.0,0.0,0.0,0.0,0.0,0.0,0.0,0.0,0.0,0.0,0.0,0.0,0.0,0.0,0.0,0.0,0.0,0.0,0.0,0.0,0.0,0.0,0.0,0.0,0.0,0.0,0.0,0.0,0.0,0.0,0.0,0.0,0.0,0.0,0.0,0.0,0.0,0.0,0.0,0.0,0.0,0.0,0.0,0.0,0.0,0.0,0.0,0.0,0.0,0.0,0.0,0.0,0.0,0.0,0.0,0.0,0.0,0.0,0.0,0.0,0.0,0.0,0.0,0.0,0.0,0.0,0.0,0.0,0.0,0.0,0.0,0.0,0.0,0.0,0.0,0.0,0.0,0.0,0.0,0.0,0.0,0.0,0.0,0.0,0.0,0.0,0.0,0.0,0.0,0.0,0.0,0.0,0.0,0.0,0.0,0.0,0.0,0.0,0.0,0.0,0.0,0.0,0.0,0.0,0.0,0.0,0.0,0.0,0.0,0.0,0.0,0.0,0.0,0.0,0.0,0.0,0.0,0.0,0.0,0.0,0.0,0.0,0.0,0.0,0.0,0.0,0.0,0.0,0.0,0.0,0.0,0.0,0.0,0.0,0.0,0.0,0.0,0.0,0.0,0.0,0.0,0.0,0.0,0.0,0.0,0.0,0.0,0.0,0.0,0.0,0.0,0.0,0.0,0.0,0.0,0.0,0.0,0.0,0.0,0.0,0.0,0.0,0.0,0.0,0.0,0.0,0.0,0.0,0.0,0.0,0.0,0.0,0.0,0.0,0.0,0.0,0.0,0.0,0.0,0.0,0.0,0.0,0.0,0.0,0.0,0.0,0.0,0.0,0.0,0.0,0.0,0.0,0.0,0.0,0.0,0.0,0.0,0.0,0.0,0.0,0.0,0.0,0.0,0.0,0.0,0.0,0.0,0.0,0.0,0.0,0.0,0.0,0.0,0.0,0.0,0.0,0.0,0.0,0.0,0.0,0.0,0.0,0.0,0.0,0.0,0.0,0.0,0.0,0.0,0.0,0.0,0.0,0.0,0.0,0.0,0.0,0.0,0.0,0.0,0.0,0.0,0.0,0.0,0.0,0.0,0.0,0.0,0.0,0.0,0.0,0.0,0.0,0.0,0.0,0.0,0.0,0.0,0.0,0.0,0.0,0.0,0.0,0.0,0.0,0.0,0.0,0.0,0.0,0.0,0.0,0.0,0.0,0.0,0.0,0.0,0.0,0.0,0.0,0.0,0.0,0.0,0.0,0.0,0.0,0.0,0.0,0.0,0.0,0.0,0.0,0.0,0.0,0.0,0.0,0.0,0.0,0.0,0.0,0.0,0.0,0.0,0.0,0.0,0.0,0.0,0.0,0.0,0.0,0.0,0.0,0.0,0.0,0.0,0.0,0.0,0.0,0.0,0.0,0.0,0.0,0.0,0.0,0.0,0.0,0.0,0.0,0.0,0.0,0.0,0.0,0.0,0.0,0.0,0.0,0.0,0.0,0.0,0.0,0.0,0.0,0.0,0.0,0.0,0.0,0.0,0.0,0.0,0.0,0.0,0.0,0.0,0.0,0.0,0.0,0.0,0.0,0.0,0.0,0.0,0.0,0.0,0.0,0.0,0.0,0.0,0.0,0.0,0.0,0.0,0.0,0.0,0.0,0.0,0.0,0.0,0.0,0.0,0.0,0.0,0.0,0.0,0.0,0.0,0.0,0.0,0.0,0.0,0.0,0.0,0.0,0.0,0.0,0.0,0.0,0.0,0.0,0.0,0.0,0.0,0.0,0.0,0.0,0.0,0.0,0.0,0.0,0.0,0.0,0.0,0.0,0.0,0.0,0.0,0.0,0.0,0.0,0.0,0.0,0.0,0.0,0.0,0.0,0.0,0.0,0.0,0.0,0.0,0.0,0.0,0.0,0.0,0.0,0.0,0.0,0.0,0.0,0.0,0.0,0.0,0.0,0.0,0.0,0.0,0.0,0.0,0.0,0.0,0.0,0.0,0.0,0.0,0.0,0.0,0.0,0.0,0.0,0.0,0.0,0.0,0.0,0.0,0.0,0.0,0.0,0.0,0.0,0.0,0.0,0.0,0.0,0.0,0.0,0.0,0.0,0.0,0.0,0.0,0.0,0.0,0.0,0.0,0.0,0.0,0.0,0.0,0.0,0.0,0.0,0.0,0.0,0.0,0.0,0.0,0.0,0.0,0.0,0.0,0.0,0.0,0.0,0.0,0.0,0.0,0.0,0.0,0.0,0.0,0.0,0.0,0.0,0.0,0.0,0.0,0.0,0.0,0.0,0.0,0.0,0.0,0.0,0.0,0.0,0.0,0.0,0.0,0.0,0.0,0.0,0.0,0.0,0.0,0.0,0.0,0.0,0.0,0.0,0.0,0.0,4.9649,0.0,0.0,0.0,0.0,0.0,0.0,0.0,0.0,0.0,0.0,0.0,0.0,0.0,0.0,0.0,0.0,0.0,0.0,0.0,0.0,0.0,0.0,0.0,0.0,0.0,0.0,0.0,0.0,0.0,0.0,0.0,0.0,0.0,0.0,0.0,0.0,0.0,0.0,0.0,0.0,0.0,0.0,0.0,0.0,0.0,0.0,0.0,0.0,0.0,0.0,0.0,0.0,0.0,0.0,0.0,0.0,0.0,0.0,0.0,0.0,0.0,0.0,0.0,0.0,0.0,0.0,0.0,0.0,0.0,0.0,0.0,0.0,0.0,0.0,0.0,0.0,0.0,0.0,0.0,0.0,0.0,0.0,0.0,0.0,0.0,0.0,0.0,0.0,0.0,0.0,0.0,0.0,0.0,0.0,0.0,0.0,0.0,0.0,0.0,0.0,0.0,0.0,0.0,0.0,0.0,0.0,0.0,0.0,0.0,0.0,5.1356,5.0631,5.0538,5.0273,4.9894,0.0,0.0,0.0,0.0,0.0,0.0,0.0,0.0,0.0,0.0,0.0,0.0,0.0,0.0,0.0,0.0,0.0,0.0,0.0,0.0,0.0,0.0,0.0,0.0,0.0,0.0,0.0,0.0,0.0,0.0,0.0,0.0,0.0,0.0,0.0,0.0,0.0,0.0,0.0,0.0,0.0,0.0,0.0,0.0,0.0,0.0,0.0,0.0,0.0,0.0,0.0,0.0,0.0,0.0,0.0,0.0,0.0,0.0,0.0,0.0,0.0,0.0,0.0,0.0,0.0,0.0,0.0,0.0,0.0,0.0,0.0,0.0,0.0,0.0,0.0,0.0,0.0,0.0,0.0,0.0,0.0,0.0,0.0,0.0,0.0,0.0,0.0,0.0,0.0,0.0,0.0,0.0,0.0,0.0,0.0,0.0,0.0,0.0,0.0,0.0,0.0,0.0,0.0,0.0,0.0,0.0,0.0,0.0,0.0,0.0,0.0,0.0,5.1218,5.0769,4.9987,0.0,0.0,0.0,0.0,0.0,0.0,0.0,0.0,0.0,0.0,0.0,0.0,0.0,0.0,0.0,0.0,0.0,0.0,0.0,0.0,0.0,0.0,0.0,0.0,0.0,0.0,0.0,0.0,0.0,0.0,0.0,0.0,0.0,0.0,0.0,0.0,0.0,0.0,0.0,0.0,0.0,0.0,0.0,0.0,0.0,0.0,0.0,0.0,0.0,0.0,0.0,0.0,0.0,0.0,0.0,0.0,0.0,0.0,0.0,0.0,0.0,0.0,0.0,0.0,0.0,0.0,0.0,0.0,0.0,0.0,0.0,0.0,0.0,0.0,0.0,0.0,0.0,0.0,0.0,0.0,0.0,0.0,0.0,0.0,0.0,0.0,0.0,0.0,0.0,0.0,0.0,0.0,0.0,0.0,0.0,0.0,0.0,0.0,0.0,0.0,0.0,0.0,0.0,0.0,0.0,0.0,0.0,0.0,0.0,0.0,5.2908,5.2149,5.1459,0.0,5.0021,0.0,0.0,0.0,0.0,0.0,0.0,0.0,0.0,0.0,0.0,0.0,0.0,0.0,0.0,0.0,0.0,0.0,0.0,0.0,0.0,0.0,0.0,0.0,0.0,0.0,0.0,0.0,0.0,0.0,0.0,0.0,0.0,0.0,0.0,0.0,0.0,0.0,0.0,0.0,0.0,0.0,0.0,0.0,0.0,0.0,0.0,0.0,0.0,0.0,0.0,0.0,0.0,0.0,0.0,0.0,0.0,0.0,0.0,0.0,0.0,0.0,0.0,0.0,0.0,0.0,0.0,0.0,0.0,0.0,0.0,0.0,0.0,0.0,0.0,0.0,0.0,0.0,0.0,0.0,0.0,0.0,0.0,0.0,0.0,0.0,0.0,0.0,0.0,0.0,0.0,0.0,0.0,0.0,0.0,0.0,0.0,0.0,0.0,0.0,0.0,0.0,0.0,0.0,0.0,0.0,0.0,0.0,0.0,0.0,0.0,5.346,5.2252,5.108,5.0528,0.0,0.0,0.0,0.0,0.0,0.0,0.0,0.0,0.0,0.0,0.0,0.0,0.0,0.0,0.0,0.0,0.0,0.0,0.0,0.0,0.0,0.0,0.0,0.0,0.0,0.0,0.0,0.0,0.0,0.0,0.0,0.0,0.0,0.0,0.0,0.0,0.0,0.0,0.0,0.0,0.0,0.0,0.0,0.0,0.0,0.0,0.0,0.0,0.0,0.0,0.0,0.0,0.0,0.0,0.0,0.0,0.0,0.0,0.0,0.0,0.0,0.0,0.0,0.0,0.0,0.0,0.0,0.0,0.0,0.0,0.0,0.0,0.0,0.0,0.0,0.0,0.0,0.0,0.0,0.0,0.0,0.0,0.0,0.0,0.0,0.0,0.0,0.0,0.0,0.0,0.0,0.0,0.0,0.0,0.0,0.0,0.0,0.0,0.0,0.0,0.0,0.0,0.0,0.0,0.0,0.0,0.0,0.0,0.0,0.0,5.4494,5.3873,5.2597,5.1287,5.0769,5.108,0.0,0.0,0.0,0.0,0.0,0.0,0.0,0.0,0.0,0.0,0.0,0.0,0.0,0.0,0.0,0.0,0.0,0.0,0.0,0.0,0.0,0.0,0.0,0.0,0.0,0.0,0.0,0.0,0.0,0.0,0.0,0.0,0.0,0.0,0.0,0.0,0.0,0.0,0.0,0.0,0.0,0.0,0.0,0.0,0.0,0.0,0.0,0.0,0.0,0.0,0.0,0.0,0.0,0.0,0.0,0.0,0.0,0.0,0.0,0.0,0.0,0.0,0.0,0.0,0.0,0.0,0.0,0.0,0.0,0.0,0.0,0.0,0.0,0.0,0.0,0.0,0.0,0.0,0.0,0.0,0.0,0.0,0.0,0.0,0.0,0.0,0.0,0.0,0.0,0.0,0.0,0.0,0.0,0.0,0.0,0.0,0.0,0.0,0.0,0.0,0.0,0.0,0.0,0.0,0.0,0.0,0.0,0.0,5.4494,5.4494,5.4149,5.3356,5.2563,5.1804,0.0,0.0,0.0,0.0,0.0,0.0,0.0,0.0,0.0,0.0,0.0,0.0,0.0,0.0,0.0,0.0,0.0,0.0,0.0,0.0,0.0,0.0,0.0,0.0,0.0,0.0,0.0,0.0,0.0,0.0,0.0,0.0,0.0,0.0,0.0,0.0,0.0,0.0,0.0,0.0,0.0,0.0,0.0,0.0,0.0,0.0,0.0,0.0,0.0,0.0,0.0,0.0,0.0,0.0,0.0,0.0,0.0,0.0,0.0,0.0,0.0,0.0,0.0,0.0,0.0,0.0,0.0,0.0,0.0,0.0,0.0,0.0,0.0,0.0,0.0,0.0,0.0,0.0,0.0,0.0,0.0,0.0,0.0,0.0,0.0,0.0,0.0,0.0,0.0,0.0,0.0,0.0,0.0,0.0,0.0,0.0,0.0,0.0,0.0,0.0,0.0,0.0,0.0,0.0,0.0,0.0,0.0,0.0,0.0,5.4494,5.4046,5.3667,5.3391,5.2632,5.1873,0.0,0.0,0.0,0.0,0.0,0.0,0.0,0.0,0.0,0.0,0.0,0.0,0.0,0.0,0.0,0.0,0.0,0.0,0.0,0.0,0.0,0.0,0.0,0.0,0.0,0.0,0.0,0.0,0.0,0.0,0.0,0.0,0.0,0.0,0.0,0.0,0.0,0.0,0.0,0.0,0.0,0.0,0.0,0.0,0.0,0.0,0.0,0.0,0.0,0.0,0.0,0.0,0.0,0.0,0.0,0.0,0.0,0.0,0.0,0.0,0.0,0.0,0.0,0.0,0.0,0.0,0.0,0.0,0.0,0.0,0.0,0.0,0.0,0.0,0.0,0.0,0.0,0.0,0.0,0.0,0.0,0.0,0.0,0.0,0.0,0.0,0.0,0.0,0.0,0.0,0.0,0.0,0.0,0.0,0.0,0.0,0.0,0.0,0.0,0.0,0.0,0.0,0.0,0.0,0.0,0.0,0.0,0.0,0.0,5.4367,0.0,5.361,5.361,5.2915,5.2157,0.0,0.0,0.0,0.0,0.0,0.0,0.0,0.0,0.0,0.0,0.0,0.0,0.0,0.0,0.0,0.0,0.0,0.0,0.0,0.0,0.0,0.0,0.0,0.0,0.0,0.0,0.0,0.0,0.0,0.0,0.0,0.0,0.0,0.0,0.0,0.0,0.0,0.0,0.0,0.0,0.0,0.0,0.0,0.0,0.0,0.0,0.0,0.0,0.0,0.0,0.0,0.0,0.0,0.0,0.0,0.0,0.0,0.0,0.0,0.0,0.0,0.0,0.0,0.0,0.0,0.0,0.0,0.0,0.0,0.0,0.0,0.0,0.0,0.0,0.0,0.0,0.0,0.0,0.0,0.0,0.0,0.0,0.0,0.0,0.0,0.0,0.0,0.0,0.0,0.0,0.0,0.0,0.0,0.0,0.0,0.0,0.0,0.0,0.0,0.0,0.0,0.0,0.0,0.0,0.0,0.0,0.0,0.0,5.4367,5.4239,5.411,5.4042,5.4141,5.345,5.2791,0.0,0.0,0.0,0.0,0.0,0.0,0.0,0.0,0.0,0.0,0.0,0.0,0.0,0.0,0.0,0.0,0.0,0.0,0.0,0.0,0.0,0.0,0.0,0.0,0.0,0.0,0.0,0.0,0.0,0.0,0.0,0.0,0.0,0.0,0.0,0.0,0.0,0.0,0.0,0.0,0.0,0.0,0.0,0.0,0.0,0.0,0.0,0.0,0.0,0.0,0.0,0.0,0.0,0.0,0.0,0.0,0.0,0.0,0.0,0.0,0.0,0.0,0.0,0.0,0.0,0.0,0.0,0.0,0.0,0.0,0.0,0.0,0.0,0.0,0.0,0.0,0.0,0.0,0.0,0.0,0.0,0.0,0.0,0.0,0.0,0.0,0.0,0.0,0.0,0.0,0.0,0.0,0.0,0.0,0.0,0.0,0.0,0.0,0.0,0.0,0.0,0.0,0.0,0.0,0.0,0.0,0.0,0.0,0.0,5.4367,5.4239,5.3901,5.3484,5.3851,5.3163,0.0,0.0,0.0,0.0,0.0,0.0,0.0,0.0,0.0,0.0,0.0,0.0,0.0,0.0,0.0,0.0,0.0,0.0,0.0,0.0,0.0,0.0,0.0,0.0,0.0,0.0,0.0,0.0,0.0,0.0,0.0,0.0,0.0,0.0,0.0,0.0,0.0,0.0,0.0,0.0,0.0,0.0,0.0,0.0,0.0,0.0,0.0,0.0,0.0,0.0,0.0,0.0,0.0,0.0,0.0,0.0,0.0,0.0,0.0,0.0,0.0,0.0,0.0,0.0,0.0,0.0,0.0,0.0,0.0,0.0,0.0,0.0,0.0,0.0,0.0,0.0,0.0,0.0,0.0,0.0,0.0,0.0,0.0,0.0,0.0,0.0,0.0,0.0,0.0,0.0,0.0,0.0,0.0,0.0,0.0,0.0,0.0,0.0,0.0,0.0,0.0,0.0,0.0,0.0,0.0,0.0,0.0,0.0,0.0,5.6678,5.6406,5.5961,5.5485,5.6167,5.4969,5.1836,0.0,0.0,0.0,0.0,0.0,0.0,0.0,0.0,0.0,0.0,0.0,0.0,0.0,0.0,0.0,0.0,0.0,0.0,0.0,0.0,0.0,0.0,0.0,0.0,0.0,0.0,0.0,0.0,0.0,0.0,0.0,0.0,0.0,0.0,0.0,0.0,0.0,0.0,0.0,0.0,0.0,0.0,0.0,0.0,0.0,0.0,0.0,0.0,0.0,0.0,0.0,0.0,0.0,0.0,0.0,0.0,0.0,0.0,0.0,0.0,0.0,0.0,0.0,0.0,0.0,0.0,0.0,0.0,0.0,0.0,0.0,0.0,0.0,0.0,0.0,0.0,0.0,0.0,0.0,0.0,0.0,0.0,0.0,0.0,0.0,0.0,0.0,0.0,0.0,0.0,0.0,0.0,0.0,0.0,0.0,0.0,0.0,0.0,0.0,0.0,0.0,0.0,0.0,0.0,0.0,0.0,0.0,0.0,6.0755,6.0381,6.0069,5.9879,5.9766,5.7819,0.0,0.0,0.0,0.0,0.0,0.0,0.0,0.0,0.0,0.0,0.0,0.0,0.0,0.0,0.0,0.0,0.0,0.0,0.0,0.0,0.0,0.0,0.0,0.0,0.0,0.0,0.0,0.0,0.0,0.0,0.0,0.0,0.0,0.0,0.0,0.0,0.0,0.0,0.0,0.0,0.0,0.0,0.0,0.0,0.0,0.0,0.0,0.0,0.0,0.0,0.0,0.0,0.0,0.0,0.0,0.0,0.0,0.0,0.0,0.0,0.0,0.0,0.0,0.0,0.0,0.0,0.0,0.0,0.0,0.0,0.0,0.0,0.0,0.0,0.0,0.0,0.0,0.0,0.0,0.0,0.0,0.0,0.0,0.0,0.0,0.0,0.0,0.0,0.0,0.0,0.0,0.0,0.0,0.0,0.0,0.0,0.0,0.0,0.0,0.0,0.0,0.0,0.0,0.0,0.0,0.0,0.0,0.0,0.0,6.4254,6.6965,6.7098,6.4252,6.1413,5.9126,0.0,0.0,0.0,0.0,0.0,0.0,0.0,0.0,0.0,0.0,0.0,0.0,0.0,0.0,0.0,0.0,0.0,0.0,0.0,0.0,0.0,0.0,0.0,0.0,0.0,0.0,0.0,0.0,0.0,0.0,0.0,0.0,0.0,0.0,0.0,0.0,0.0,0.0,0.0,0.0,0.0,0.0,0.0,0.0,0.0,0.0,0.0,0.0,0.0,0.0,0.0,0.0,0.0,0.0,0.0,0.0,0.0,0.0,0.0,0.0,0.0,0.0,0.0,0.0,0.0,0.0,0.0,0.0,0.0,0.0,0.0,0.0,0.0,0.0,0.0,0.0,0.0,0.0,0.0,0.0,0.0,0.0,0.0,0.0,0.0,0.0,0.0,0.0,0.0,0.0,0.0,0.0,0.0,0.0,0.0,0.0,0.0,0.0,0.0,0.0,0.0,0.0,0.0,0.0,0.0,0.0,0.0,0.0,6.3674,6.5975,7.1059,7.2775,7.0828,6.5267,6.1333,0.0,0.0,0.0,0.0,0.0,0.0,0.0,0.0,0.0,0.0,0.0,0.0,0.0,0.0,0.0,0.0,0.0,0.0,0.0,0.0,0.0,0.0,0.0,0.0,0.0,0.0,0.0,0.0,0.0,0.0,0.0,0.0,0.0,0.0,0.0,0.0,0.0,0.0,0.0,0.0,0.0,0.0,0.0,0.0,0.0,0.0,0.0,0.0,0.0,0.0,0.0,0.0,0.0,0.0,0.0,0.0,0.0,0.0,0.0,0.0,0.0,0.0,0.0,0.0,0.0,0.0,0.0,0.0,0.0,0.0,0.0,0.0,0.0,0.0,0.0,0.0,0.0,0.0,0.0,0.0,0.0,0.0,0.0,0.0,0.0,0.0,0.0,0.0,0.0,0.0,0.0,0.0,0.0,0.0,0.0,0.0,0.0,0.0,0.0,0.0,0.0,0.0,0.0,0.0,0.0,0.0,0.0,0.0,6.6053,6.7093,7.334,7.6954,7.7315,6.9709,6.3829,0.0,0.0,0.0,0.0,0.0,0.0,0.0,0.0,0.0,0.0,0.0,0.0,0.0,0.0,0.0,0.0,0.0,0.0,0.0,0.0,0.0,0.0,0.0,0.0,0.0,0.0,0.0,0.0,0.0,0.0,0.0,0.0,0.0,0.0,0.0,0.0,0.0,0.0,0.0,0.0,0.0,0.0,0.0,0.0,0.0,0.0,0.0,0.0,0.0,0.0,0.0,0.0,0.0,0.0,0.0,0.0,0.0,0.0,0.0,0.0,0.0,0.0,0.0,0.0,0.0,0.0,0.0,0.0,0.0,0.0,0.0,0.0,0.0,0.0,0.0,0.0,0.0,0.0,0.0,0.0,0.0,0.0,0.0,0.0,0.0,0.0,0.0,0.0,0.0,0.0,0.0,0.0,0.0,0.0,0.0,0.0,0.0,0.0,0.0,0.0,0.0,0.0,0.0,0.0,0.0,0.0,0.0,0.0,6.7812,7.0909,7.518,7.7369,7.7245,6.9516,6.505,0.0,0.0,0.0,0.0,0.0,0.0,0.0,0.0,0.0,0.0,0.0,0.0,0.0,0.0,0.0,0.0,0.0,0.0,0.0,0.0,0.0,0.0,0.0,0.0,0.0,0.0,0.0,0.0,0.0,0.0,0.0,0.0,0.0,0.0,0.0,0.0,0.0,0.0,0.0,0.0,0.0,0.0,0.0,0.0,0.0,0.0,0.0,0.0,3.0724,0.0,0.0,0.0,0.0,0.0,0.0,0.0,0.0,0.0,0.0,0.0,0.0,0.0,0.0,0.0,0.0,0.0,0.0,0.0,0.0,0.0,0.0,0.0,0.0,0.0,0.0,0.0,0.0,0.0,0.0,0.0,0.0,0.0,0.0,0.0,0.0,0.0,0.0,0.0,0.0,0.0,0.0,0.0,0.0,0.0,0.0,0.0,0.0,0.0,0.0,0.0,0.0,0.0,0.0,0.0,0.0,0.0,0.0,0.0,6.8328,7.208,7.5806,7.7719,7.716,7.139,6.7235,0.0,0.0,0.0,0.0,0.0,0.0,0.0,0.0,0.0,0.0,0.0,0.0,0.0,0.0,0.0,0.0,0.0,0.0,0.0,0.0,0.0,0.0,0.0,0.0,0.0,0.0,0.0,0.0,0.0,0.0,0.0,0.0,0.0,0.0,0.0,0.0,0.0,0.0,0.0,0.0,0.0,0.0,0.0,0.0,0.0,0.0,0.0,0.0,0.0,0.0,0.0,0.0,0.0,0.0,0.0,0.0,0.0,0.0,0.0,0.0,0.0,0.0,0.0,0.0,0.0,0.0,0.0,0.0,0.0,0.0,0.0,0.0,0.0,0.0,0.0,0.0,0.0,0.0,0.0,0.0,0.0,0.0,0.0,0.0,0.0,0.0,0.0,0.0,0.0,0.0,0.0,0.0,0.0,0.0,0.0,0.0,0.0,0.0,0.0,0.0,0.0,0.0,0.0,0.0,0.0,0.0,0.0,6.4686,6.8663,7.2912,7.6274,7.7862,7.7434,7.3449,6.9125,6.48,0.0,0.0,0.0,0.0,0.0,0.0,0.0,0.0,0.0,0.0,0.0,0.0,0.0,0.0,0.0,0.0,0.0,0.0,0.0,0.0,0.0,0.0,0.0,0.0,0.0,0.0,0.0,0.0,0.0,0.0,0.0,0.0,0.0,0.0,0.0,0.0,0.0,0.0,3.1205,2.9939,0.0,0.0,0.0,0.0,0.0,0.0,0.0,0.0,3.0074,0.0,0.0,0.0,0.0,0.0,0.0,0.0,0.0,0.0,0.0,0.0,0.0,0.0,0.0,0.0,0.0,0.0,0.0,0.0,0.0,0.0,0.0,0.0,0.0,0.0,0.0,0.0,0.0,0.0,0.0,0.0,0.0,0.0,0.0,0.0,0.0,0.0,0.0,0.0,0.0,0.0,0.0,0.0,0.0,0.0,0.0,0.0,0.0,0.0,0.0,0.0,0.0,0.0,0.0,0.0,0.0,6.5361,6.6154,6.9921,7.6868,7.7467,7.7499,7.718,7.2924,6.8596,6.4276,0.0,0.0,0.0,0.0,0.0,0.0,0.0,0.0,0.0,0.0,0.0,0.0,0.0,0.0,0.0,0.0,0.0,0.0,0.0,0.0,0.0,0.0,0.0,0.0,0.0,0.0,0.0,0.0,0.0,0.0,0.0,0.0,0.0,0.0,0.0,0.0,0.0,0.0,0.0,3.2323,3.0967,0.0,0.0,0.0,0.0,0.0,0.0,0.0,0.0,3.3608,0.0,0.0,0.0,0.0,0.0,0.0,0.0,0.0,0.0,0.0,0.0,0.0,0.0,0.0,0.0,0.0,0.0,0.0,0.0,0.0,0.0,0.0,0.0,0.0,0.0,0.0,0.0,0.0,0.0,0.0,0.0,0.0,0.0,0.0,0.0,0.0,0.0,0.0,0.0,0.0,0.0,0.0,0.0,0.0,0.0,0.0,0.0,0.0,0.0,0.0,0.0,0.0,0.0,0.0,0.0,6.6085,6.8339,7.2114,7.7566,7.7829,7.7642,7.7102,7.2924,6.8564,0.0,0.0,0.0,0.0,0.0,0.0,0.0,0.0,0.0,0.0,0.0,0.0,0.0,0.0,0.0,0.0,0.0,0.0,0.0,0.0,0.0,0.0,0.0,0.0,0.0,0.0,0.0,0.0,0.0,0.0,0.0,0.0,0.0,0.0,0.0,0.0,0.0,0.0,0.0,0.0,3.4698,3.4393,3.8981,0.0,0.0,0.0,0.0,0.0,0.0,3.5029,3.3915,0.0,0.0,0.0,0.0,0.0,0.0,0.0,0.0,0.0,0.0,0.0,0.0,0.0,0.0,0.0,0.0,0.0,0.0,0.0,0.0,0.0,0.0,0.0,0.0,0.0,0.0,0.0,0.0,0.0,0.0,0.0,0.0,0.0,0.0,0.0,0.0,0.0,0.0,0.0,0.0,0.0,0.0,0.0,0.0,0.0,0.0,0.0,0.0,0.0,0.0,0.0,0.0,0.0,0.0,0.0,6.6148,6.9982,7.3836,7.738,7.7829,7.7642,7.699,7.2079,6.7687,0.0,0.0,0.0,0.0,0.0,0.0,0.0,0.0,0.0,0.0,0.0,0.0,0.0,0.0,0.0,0.0,0.0,0.0,0.0,0.0,0.0,0.0,0.0,0.0,0.0,0.0,0.0,0.0,0.0,0.0,0.0,0.0,0.0,0.0,0.0,0.0,0.0,0.0,0.0,0.0,0.0,3.7774,4.2393,3.8227,0.0,0.0,0.0,0.0,3.5703,3.6168,0.0,0.0,0.0,0.0,0.0,0.0,0.0,0.0,0.0,0.0,0.0,0.0,0.0,0.0,0.0,0.0,0.0,0.0,0.0,0.0,0.0,0.0,0.0,0.0,0.0,0.0,0.0,0.0,0.0,0.0,0.0,0.0,0.0,0.0,0.0,0.0,0.0,0.0,0.0,0.0,0.0,0.0,0.0,0.0,0.0,0.0,0.0,0.0,0.0,0.0,0.0,0.0,0.0,0.0,0.0,0.0,6.6406,6.9855,7.3632,7.7348,7.7422,7.7232,7.6798,6.8978,6.4509,0.0,0.0,0.0,0.0,0.0,0.0,0.0,0.0,0.0,0.0,0.0,0.0,0.0,0.0,0.0,0.0,0.0,0.0,0.0,0.0,0.0,0.0,0.0,0.0,0.0,0.0,0.0,0.0,0.0,0.0,0.0,0.0,0.0,0.0,0.0,0.0,0.0,0.0,0.0,0.0,0.0,3.908,4.3259,3.9349,3.5793,0.0,0.0,4.1057,4.1057,4.4767,0.0,0.0,0.0,0.0,0.0,0.0,0.0,0.0,0.0,0.0,0.0,0.0,0.0,0.0,0.0,0.0,0.0,0.0,0.0,0.0,0.0,0.0,0.0,0.0,0.0,0.0,0.0,0.0,0.0,0.0,0.0,0.0,0.0,0.0,0.0,0.0,0.0,0.0,0.0,0.0,0.0,0.0,0.0,0.0,0.0,0.0,0.0,0.0,0.0,0.0,0.0,0.0,0.0,0.0,0.0,6.4321,6.6574,7.192,7.5906,7.8134,7.793,7.7901,7.7949,6.9065,6.4383,0.0,0.0,0.0,0.0,0.0,0.0,0.0,0.0,0.0,0.0,0.0,0.0,0.0,0.0,0.0,0.0,0.0,0.0,0.0,0.0,0.0,0.0,0.0,0.0,0.0,0.0,0.0,0.0,0.0,0.0,0.0,0.0,0.0,0.0,0.0,0.0,0.0,0.0,0.0,0.0,0.0,0.0,4.3592,4.1923,0.0,0.0,0.0,4.1474,3.853,0.0,0.0,0.0,0.0,0.0,0.0,0.0,0.0,0.0,0.0,0.0,0.0,0.0,0.0,0.0,0.0,0.0,0.0,0.0,0.0,0.0,0.0,0.0,0.0,0.0,0.0,0.0,0.0,0.0,0.0,0.0,0.0,0.0,0.0,0.0,0.0,0.0,0.0,0.0,0.0,0.0,0.0,0.0,0.0,0.0,0.0,0.0,0.0,0.0,0.0,0.0,0.0,0.0,0.0,0.0,0.0,0.0,6.6877,7.3957,7.8126,7.892,7.8681,7.86,7.8726,7.0736,0.0,0.0,0.0,0.0,0.0,0.0,0.0,0.0,0.0,0.0,0.0,0.0,0.0,0.0,0.0,0.0,0.0,0.0,0.0,0.0,0.0,0.0,0.0,0.0,0.0,0.0,0.0,3.8206,0.0,0.0,0.0,0.0,0.0,0.0,0.0,0.0,0.0,0.0,0.0,0.0,0.0,0.0,4.4815,4.4248,4.4163,4.4308,0.0,0.0,4.1904,3.9325,4.5722,4.772,0.0,0.0,0.0,0.0,0.0,0.0,0.0,0.0,0.0,0.0,0.0,0.0,0.0,0.0,0.0,0.0,0.0,0.0,0.0,0.0,0.0,0.0,0.0,0.0,0.0,0.0,0.0,0.0,0.0,0.0,0.0,0.0,0.0,0.0,0.0,0.0,0.0,0.0,0.0,0.0,0.0,0.0,0.0,0.0,0.0,0.0,0.0,0.0,0.0,0.0,0.0,0.0,0.0,0.0,0.0,6.7786,7.5207,7.9333,7.9706,7.9169,7.8856,7.8823,7.4419,6.955,0.0,0.0,0.0,0.0,0.0,0.0,0.0,0.0,0.0,0.0,0.0,0.0,0.0,0.0,0.0,0.0,0.0,0.0,0.0,0.0,0.0,0.0,0.0,0.0,0.0,0.0,0.0,0.0,0.0,0.0,0.0,0.0,0.0,0.0,0.0,0.0,0.0,0.0,0.0,0.0,0.0,4.6278,4.5564,4.5236,4.6566,0.0,0.0,4.4281,4.8348,5.3614,5.3605,4.2753,0.0,0.0,0.0,0.0,0.0,0.0,0.0,0.0,0.0,0.0,0.0,0.0,0.0,0.0,0.0,0.0,0.0,0.0,0.0,0.0,0.0,0.0,0.0,0.0,0.0,0.0,0.0,0.0,0.0,0.0,0.0,0.0,0.0,0.0,0.0,0.0,0.0,0.0,0.0,0.0,0.0,0.0,0.0,0.0,0.0,0.0,0.0,0.0,0.0,0.0,0.0,0.0,0.0,6.6935,6.7246,7.5233,7.9692,8.0427,7.9918,7.9762,8.0216,7.5394,7.0372,0.0,0.0,0.0,0.0,0.0,0.0,0.0,0.0,0.0,0.0,0.0,0.0,0.0,0.0,0.0,0.0,0.0,0.0,0.0,0.0,0.0,0.0,0.0,0.0,0.0,0.0,0.0,0.0,4.7875,4.7728,4.4179,0.0,0.0,0.0,0.0,0.0,0.0,0.0,0.0,0.0,0.0,4.7589,5.0309,5.0827,0.0,0.0,5.0136,4.7954,4.5723,4.9731,4.937,3.862,3.6703,0.0,0.0,0.0,0.0,0.0,0.0,0.0,0.0,0.0,0.0,0.0,0.0,0.0,0.0,0.0,0.0,0.0,0.0,0.0,0.0,0.0,0.0,0.0,0.0,0.0,0.0,0.0,0.0,0.0,0.0,0.0,0.0,0.0,0.0,0.0,0.0,0.0,0.0,0.0,0.0,0.0,0.0,0.0,0.0,0.0,0.0,0.0,0.0,0.0,0.0,0.0,0.0,6.7288,6.7065,7.5882,8.0804,8.1524,8.095,8.0978,8.1251,7.7707,7.3198,0.0,0.0,0.0,0.0,0.0,0.0,0.0,0.0,0.0,0.0,0.0,0.0,0.0,0.0,0.0,0.0,0.0,0.0,0.0,0.0,0.0,0.0,0.0,0.0,0.0,0.0,0.0,0.0,4.9357,4.8789,4.5173,0.0,0.0,0.0,0.0,0.0,0.0,0.0,0.0,0.0,0.0,4.9906,5.1196,5.1707,5.143,4.9776,4.8377,4.625,4.2903,4.5427,4.5029,3.7611,0.0,0.0,0.0,0.0,0.0,0.0,0.0,0.0,0.0,0.0,0.0,0.0,0.0,0.0,0.0,0.0,0.0,0.0,0.0,0.0,0.0,0.0,0.0,0.0,0.0,0.0,0.0,0.0,0.0,0.0,5.7805,0.0,0.0,0.0,0.0,0.0,0.0,0.0,0.0,0.0,0.0,0.0,0.0,0.0,0.0,0.0,0.0,0.0,0.0,0.0,0.0,0.0,0.0,6.7866,6.7526,7.7632,8.2938,8.2784,8.2477,8.2395,8.2428,8.2263,7.9153,7.287,0.0,0.0,0.0,0.0,0.0,0.0,0.0,0.0,0.0,0.0,0.0,0.0,0.0,0.0,0.0,0.0,0.0,0.0,0.0,0.0,0.0,0.0,0.0,0.0,0.0,0.0,3.8382,4.2018,4.4971,0.0,0.0,0.0,0.0,0.0,0.0,0.0,0.0,0.0,0.0,4.931,5.3475,4.7031,4.6031,4.5871,4.4694,3.9937,3.7801,4.1757,4.2161,4.2087,0.0,0.0,0.0,0.0,0.0,0.0,0.0,0.0,0.0,0.0,0.0,0.0,0.0,0.0,0.0,0.0,0.0,0.0,0.0,0.0,0.0,0.0,0.0,0.0,0.0,0.0,0.0,6.3289,6.2806,0.0,0.0,0.0,0.0,0.0,0.0,0.0,0.0,0.0,0.0,0.0,6.4975,6.3629,0.0,0.0,0.0,0.0,0.0,0.0,0.0,0.0,0.0,0.0,0.0,0.0,6.8794,6.7484,7.8946,8.4645,8.3659,8.3886,8.4198,8.4664,8.4159,8.0869,7.4542,0.0,0.0,0.0,0.0,0.0,0.0,0.0,0.0,0.0,0.0,0.0,0.0,0.0,0.0,0.0,0.0,0.0,0.0,0.0,0.0,0.0,0.0,0.0,0.0,0.0,4.4152,0.0,0.0,0.0,0.0,0.0,0.0,0.0,0.0,0.0,0.0,0.0,4.3748,4.6173,4.5759,4.5314,4.5693,4.5762,4.6604,0.0,0.0,0.0,0.0,0.0,0.0,0.0,0.0,0.0,0.0,0.0,0.0,0.0,0.0,2.8835,2.6681,2.7729,2.8494,2.7309,0.0,0.0,0.0,0.0,0.0,0.0,0.0,0.0,0.0,0.0,0.0,0.0,0.0,0.0,6.7049,0.0,6.6773,0.0,0.0,0.0,0.0,0.0,0.0,0.0,0.0,6.6576,6.8291,7.0107,6.9027,6.8566,0.0,6.7596,6.4085,0.0,0.0,0.0,0.0,0.0,0.0,0.0,0.0,6.9491,6.8126,8.0068,8.6155,8.5514,8.5624,8.5826,8.6297,8.5234,8.264,7.8567,7.1696,6.6041,0.0,0.0,0.0,0.0,0.0,0.0,0.0,0.0,0.0,0.0,0.0,0.0,0.0,0.0,0.0,0.0,0.0,0.0,0.0,0.0,0.0,0.0,0.0,4.5853,0.0,0.0,0.0,0.0,0.0,0.0,0.0,0.0,0.0,4.4556,4.5367,4.6825,4.9238,4.7288,4.5183,4.3527,0.0,0.0,0.0,0.0,0.0,0.0,0.0,3.4095,3.1545,3.2823,3.4498,3.5681,3.5712,3.5314,3.5196,0.0,0.0,3.0588,3.1399,3.2386,3.1491,2.9186,2.7011,2.5848,2.2769,2.0113,0.0,0.0,0.0,0.0,0.0,0.0,0.0,0.0,7.2877,7.0381,0.0,7.0864,0.0,0.0,0.0,0.0,0.0,6.7146,0.0,0.0,7.7607,7.9061,7.5067,7.4798,7.4339,7.3505,6.9982,6.8617,6.935,6.933,0.0,0.0,0.0,0.0,0.0,0.0,6.9962,7.0071,8.1589,8.7701,8.7949,8.7561,8.7415,8.7375,8.5678,8.472,8.4405,7.8022,7.3918,7.2788,6.1645,0.0,0.0,0.0,0.0,0.0,0.0,0.0,0.0,0.0,0.0,0.0,0.0,0.0,0.0,0.0,0.0,0.0,0.0,0.0,0.0,4.5489,0.0,0.0,0.0,0.0,0.0,0.0,0.0,0.0,0.0,0.0,4.4362,4.8478,5.1279,4.9113,0.0,0.0,0.0,0.0,4.2113,3.0763,2.9067,2.9146,2.8321,3.2206,3.6445,3.9831,0.0,0.0,4.5382,3.986,3.585,3.5874,3.8008,3.7933,3.3138,3.1912,3.1209,3.0421,2.8796,2.6467,2.4796,2.2992,2.0615,7.6228,0.0,0.0,0.0,0.0,7.2171,7.4342,7.8137,7.7713,7.6533,7.4825,7.6189,0.0,0.0,0.0,0.0,0.0,0.0,7.197,7.6031,7.7579,7.9342,8.1189,8.0682,8.0241,7.9991,7.9432,7.9632,8.0374,8.1547,7.4775,6.0738,0.0,0.0,0.0,0.0,7.2834,7.62,8.4899,8.9188,8.8311,8.8806,8.8974,8.8837,8.8395,8.7458,8.6171,8.3638,7.9859,7.4648,7.0168,0.0,0.0,0.0,0.0,0.0,0.0,0.0,0.0,0.0,0.0,0.0,0.0,0.0,0.0,0.0,0.0,0.0,0.0,0.0,4.5486,4.9579,4.9455,0.0,0.0,0.0,0.0,0.0,0.0,0.0,0.0,0.0,5.1224,4.8413,4.6217,0.0,0.0,3.8912,3.4078,3.7641,4.0508,3.9834,3.9879,0.0,4.4622,4.2949,4.1724,4.2497,4.4313,4.4998,4.3116,4.2982,4.2867,4.2315,4.2799,4.2611,4.065,4.0024,3.9095,3.7216,3.4956,3.2528,3.0437,2.8142,2.6288,8.2974,8.0135,7.624,7.5514,7.6861,7.6491,7.8728,8.2743,8.2345,8.0854,7.889,8.0741,7.765,7.1208,7.1208,0.0,0.0,0.0,7.6527,8.15,8.0957,8.1977,8.4318,8.4249,8.3943,8.3666,8.4489,8.5241,8.596,8.4077,7.8135,6.815,0.0,0.0,6.5173,7.1987,7.688,7.9994,8.6883,9.0296,8.9632,9.0018,9.0119,9.003,8.9703,8.9004,8.7829,8.6608,8.3965,7.9462,7.5412,6.9381,0.0,0.0,0.0,0.0,0.0,0.0,0.0,0.0,0.0,0.0,0.0,4.6665,4.1879,0.0,0.0,0.0,4.8537,4.8656,4.9367,5.0214,0.0,0.0,0.0,0.0,0.0,0.0,0.0,4.4269,4.9922,5.4281,5.4431,5.1069,4.8952,5.004,4.66,4.2655,3.8962,0.0,4.5579,4.5335,4.5324,4.6192,4.8749,4.8052,4.7281,4.7724,4.7149,4.61,4.4543,4.5489,4.6075,4.5431,4.5078,4.4725,4.3856,4.3678,4.2748,4.03,3.7584,3.5099,3.271,3.0255,2.8693,8.8129,8.7834,7.924,7.7661,8.0805,8.0875,8.2987,8.6225,8.6294,8.3851,8.0149,8.4334,8.1543,7.3585,7.3516,0.0,8.0051,7.9865,8.2067,8.6294,8.6294,8.5949,8.5328,8.5984,8.5949,8.5294,8.6053,8.6742,8.7021,8.1107,7.8224,7.8723,7.9439,7.6802,7.1502,7.6938,8.0583,8.1638,8.7055,9.0469,9.147,9.0988,9.0812,9.0812,9.003,8.9593,8.9483,8.7829,8.6468,8.5459,7.8699,7.4033,7.1759,0.0,0.0,0.0,0.0,0.0,0.0,0.0,0.0,0.0,0.0,0.0,0.0,0.0,0.0,0.0,5.2755,0.0,5.5348,4.9734,0.0,0.0,0.0,4.7607,5.2502,5.3435,5.3764,5.3943,0.0,0.0,5.5598,5.5616,5.703,6.0881,5.9853,5.6435,5.0444,5.3239,5.4315,4.8307,4.7688,4.7403,4.7646,5.0051,5.2623,5.3557,5.2138,4.9448,4.7804,4.6888,4.6114,4.5607,4.5255,4.4725,4.4193,4.3837,4.273,3.9886,3.744,3.486,3.2157,2.981,2.8188,8.9868,8.9688,8.608,8.4704,8.4931,8.4931,8.5456,8.6294,8.6294,8.5673,8.4678,8.5811,8.5087,8.299,8.299,8.3576,8.4673,8.4575,8.5259,8.6294,8.6294,8.6225,8.6053,8.6225,8.6225,8.6087,8.6811,8.7225,8.7398,8.6919,8.4077,7.9318,7.9828,7.6685,6.9937,7.1799,7.5506,8.0569,8.2035,8.5446,9.0815,9.0917,9.1022,9.1402,9.1196,9.0743,9.0036,8.9014,8.7543,8.571,8.3203,7.8762,7.2284,6.2042,0.0,0.0,0.0,0.0,0.0,0.0,0.0,0.0,0.0,4.3434,3.8537,0.0,4.5169,0.0,5.4292,6.0369,6.152,5.9725,0.0,0.0,5.1965,5.1565,5.2889,5.7015,5.8083,5.3734,5.7677,6.0862,6.1044,6.0805,6.2145,6.5979,5.9533,5.327,5.0484,5.4039,5.632,5.4078,5.628,5.8691,5.7512,5.7047,5.6066,5.4903,5.2304,4.9658,4.8047,4.7007,4.6114,4.5255,4.5078,4.4548,4.3837,4.3481,4.1691,3.7756,3.6159,3.4632,3.0393,2.9041,2.8801,9.0473,9.0312,8.849,8.7361,8.6915,8.6494,8.6294,8.6294,8.6294,8.6294,8.6294,8.6294,8.6294,8.6294,8.6294,8.6294,8.6294,8.6294,8.6294,8.6294,8.6294,8.6294,8.6329,8.6639,8.6605,8.6329,8.7053,8.7432,8.7467,8.826,8.6919,8.3463,8.4113,8.0811,7.3838,7.1319,7.1766,7.5069,7.8253,8.3364,9.0536,9.0988,8.9536,8.6234,8.63,8.442,8.027,7.9222,7.8223,7.7041,7.5791,7.2673,6.7465,5.864,5.1904,0.0,0.0,0.0,0.0,0.0,0.0,0.0,0.0,0.0,0.0,0.0,4.9067,4.9301,5.7839,6.229,6.0051,5.8797,5.7739,5.6594,5.6534,5.742,5.9789,6.3,6.3904,6.0957,6.4036,6.6381,6.5801,6.5799,6.6168,6.7301,6.238,5.8155,5.7004,5.888,6.0048,5.905,6.1145,6.2815,6.1947,5.9741,5.7327,5.4882,5.2292,4.9973,4.7963,4.7109,4.6229,4.5344,4.5015,4.4548,4.3678,4.3646,4.1973,3.7575,3.6249,3.4378,2.9482,2.9214,2.9783,9.0958,9.0842,8.9129,8.8192,8.7936,8.7054,8.6463,8.6294,8.6294,8.6294,8.6294,8.6294,8.6294,8.6294,8.6294,8.6294,8.6294,8.6294,8.6294,8.6294,8.6294,8.6363,8.6467,8.7018,8.6984,8.6501,8.7087,8.7467,8.757,8.7639,8.7606,8.7641,8.8123,8.4967,7.8074,7.2462,6.9405,6.8763,7.5606,8.2443,8.9085,8.8777,8.5137,7.8253,7.8251,7.5169,6.8044,6.6844,6.6257,6.6058,6.4595,6.3395,6.2456,5.442,4.9465,0.0,4.1055,0.0,0.0,0.0,0.0,0.0,0.0,0.0,0.0,5.5054,5.5445,5.7793,6.1834,6.2257,5.7534,5.5718,5.669,6.1322,6.1916,6.3781,6.8304,6.8889,6.9105,6.9571,7.0096,7.0066,6.8704,6.9234,6.8421,6.609,6.5165,6.4131,6.4012,6.3758,6.3641,6.3259,6.2964,6.2369,6.1344,5.9328,5.6973,5.4696,5.2265,5.0068,4.825,4.7366,4.6636,4.5668,4.528,4.4717,4.377,4.3704,4.2031,3.7429,3.6564,3.493,2.981,2.9356,2.9947,9.356,9.3447,9.2392,9.1161,8.977,8.8803,8.7569,8.6294,8.6294,8.6294,8.6294,8.6294,8.6294,8.6294,8.6294,8.6294,8.6294,8.6294,8.6294,8.6294,8.6294,8.6639,8.7156,8.6708,8.6742,8.7191,8.7363,8.7743,8.8398,8.8984,8.6782,8.2001,8.1969,7.8483,7.1832,0.0,0.0,0.0,7.5606,7.9869,8.1121,7.5271,7.1623,7.0435,7.0563,0.0,6.8306,6.7322,6.6352,6.5425,6.4071,0.0,0.0,0.0,0.0,0.0,0.0,0.0,0.0,0.0,0.0,0.0,5.3331,5.3026,5.4624,5.448,5.7061,6.3412,6.3437,6.4521,6.8344,6.7435,6.6756,6.7297,6.7389,6.7788,6.8828,6.8889,6.8684,6.794,6.7997,6.7641,6.6575,6.6156,6.5529,6.4438,6.3903,6.3379,6.2545,6.3406,6.3873,6.3259,6.2369,6.1646,6.1495,5.8325,5.5975,5.4921,5.196,4.9379,4.8711,4.7998,4.6947,4.5801,4.5716,4.5393,4.423,4.2591,4.0663,3.7148,3.6435,3.4809,2.9816,2.92,2.8982,9.4299,0.0,9.2867,9.1785,0.0,8.9053,8.7806,8.6915,8.6494,8.6294,8.6294,8.6294,8.6294,8.6294,8.6294,8.6294,8.6294,8.6294,8.6294,8.6294,8.6294,8.6708,8.7432,8.7432,8.7432,8.7432,8.8191,8.8364,8.8088,8.9157,8.8089,8.5035,8.5344,8.3636,8.0173,8.0105,7.8283,7.4502,7.7615,8.1087,8.4556,8.1292,7.7783,7.4539,7.4204,0.0,0.0,0.0,0.0,0.0,0.0,0.0,0.0,6.2242,0.0,6.2256,5.804,5.674,5.9817,5.9555,6.0723,6.4198,6.4106,6.2561,5.9643,6.2779,6.6492,7.0283,6.9202,6.9215,7.1534,7.0676,6.9611,6.9068,6.8889,6.8889,6.8889,6.8889,6.8386,6.7153,6.714,6.6491,6.415,6.4023,6.3496,6.2301,6.1874,6.1659,6.1651,6.2535,6.2842,6.222,6.0964,6.0125,5.9784,5.6923,5.4274,5.366,5.1414,4.9469,4.8613,4.8071,4.7269,4.6333,4.5951,4.5493,4.4635,4.3367,4.1476,3.8245,3.7686,3.6074,3.0992,2.9958,2.9879,9.474,9.4554,9.317,9.2409,9.1949,8.9734,8.8495,8.7819,0.0,0.0,0.0,8.6294,8.6294,8.6294,8.6294,8.6294,8.6294,8.6294,8.6294,8.6294,8.6432,8.6915,8.7639,8.8295,8.8329,8.7881,8.895,8.8915,8.7881,8.9088,8.9778,8.995,9.0502,9.0812,9.0812,9.0812,8.7985,8.2309,8.0243,8.2342,8.8671,8.8089,8.466,7.8649,7.8388,7.5272,6.9083,6.8136,6.7748,6.7618,6.6646,6.5718,6.476,6.3295,6.1659,5.9976,5.9725,6.1619,6.6052,6.5827,6.7905,7.3785,7.3934,7.1634,6.666,7.2159,7.5585,7.5518,7.4414,7.3187,7.1852,7.0663,6.9628,6.8951,6.8889,6.8889,6.8889,6.8772,6.8118,6.6481,6.6243,6.526,6.2151,6.2007,6.1851,6.05,6.0367,6.0378,6.0927,6.1555,6.1744,6.0835,5.9436,5.8369,5.7532,5.525,5.2829,5.226,5.0726,4.9392,4.8567,4.7858,4.7289,4.6865,4.6126,4.5445,4.482,4.4167,4.2674,3.8811,3.8838,3.7959,3.2762,3.1385,3.0986,9.6355,9.6355,9.6054,9.5151,9.3696,9.3338,9.1531,8.865,8.7032,8.6294,8.6294,8.6294,8.6294,8.6294,8.6294,8.6294,8.6294,8.6294,8.6294,8.6329,8.6949,8.7674,8.8398,8.8536,8.8881,8.9329,8.895,8.8984,8.9364,8.9605,9.0019,9.0571,9.0743,9.0812,9.0812,9.0812,9.0259,8.919,8.2648,8.0071,8.1727,7.5469,7.188,7.1476,7.1644,7.0591,6.8885,6.8853,6.8366,6.7618,6.6574,6.7952,7.2359,7.1605,7.2381,7.541,7.5704,7.5561,7.5047,7.4957,7.5086,7.5495,7.4557,7.3678,7.3556,7.4368,7.4722,7.4236,7.3526,7.248,7.1224,7.0394,6.9628,6.8982,6.8889,6.8772,6.8386,6.8386,6.7366,6.4822,6.4081,6.2858,6.0588,5.9952,6.0038,5.9686,5.9856,6.0248,6.031,6.097,6.0581,5.9058,5.7999,5.6952,5.5386,5.3709,5.2211,5.1766,5.0218,4.9132,4.8669,4.806,4.7328,4.6922,4.6558,4.6076,4.5297,4.3208,4.184,4.0319,3.9221,3.7011,3.4955,3.3598,3.1214,9.8007,9.7897,9.7052,9.594,9.4707,9.2399,9.0445,8.8791,8.7067,8.6294,8.6294,8.6294,8.6294,8.6294,8.6294,8.6294,8.6294,8.6294,8.6501,8.6915,8.726,8.8053,8.9122,8.9191,8.9364,8.9674,8.9778,8.9778,8.9743,9.0088,9.0467,9.0778,9.0812,9.0812,9.0812,9.0812,9.0917,9.1161,8.7916,8.6507,8.7023,8.4114,8.275,8.3496,8.3123,8.2681,8.196,8.1589,8.1016,8.0241,7.9251,7.9535,8.1209,8.0278,7.9627,7.9717,7.9604,7.8744,7.7118,7.6617,7.6118,7.5492,7.4563,7.4129,7.4375,7.4032,7.3936,7.3905,7.307,7.2024,7.0982,7.0305,6.9509,6.8715,6.8623,6.8118,6.7215,6.6971,6.5801,6.3112,6.232,6.1246,5.9315,5.9016,5.8889,5.8941,5.9385,5.9751,5.9487,5.905,5.8554,5.766,5.6589,5.5131,5.3437,5.1737,5.0628,5.0186,4.9582,4.8773,4.835,4.7799,4.7316,4.6833,4.6541,4.6167,4.5627,4.4211,4.2775,4.1222,4.0852,3.9205,3.6907,3.4493,3.1555,9.9108,9.8961,9.775,9.6795,9.5688,9.2063,9.0214,8.9624,8.7945,8.6874,8.6536,8.6398,8.6294,8.6294,8.6294,8.6294,8.6294,8.6294,8.6708,8.7398,8.7605,8.8398,8.964,8.9847,8.995,8.9985,9.0398,9.026,8.9847,9.0295,9.064,9.0778,9.0812,9.0812,9.0812,9.0812,9.1126,9.1574,9.2131,9.2651,9.3068,9.3764,9.4495,9.5013,9.4458,9.3829,9.3089,9.2537,9.1813,9.0881,9.0138,8.9022,8.7375,8.6475,8.4275,8.0993,8.0231,7.9067,7.7216,7.64,7.5784,7.5261,7.4461,7.3999,7.3937,7.3383,7.3231,7.3477,7.2705,7.169,7.0982,7.0154,6.939,6.8509,6.7998,6.7245,6.5955,6.5425,6.4124,6.1516,6.1002,6.0345,5.9035,5.8523,5.8523,5.8485,5.8772,5.8863,5.8481,5.7223,5.6363,5.5878,5.4704,5.2963,5.1629,5.0141,4.8984,4.8687,4.8593,4.8077,4.7539,4.7357,4.7004,4.663,4.6169,4.6016,4.5883,4.4939,4.3782,4.2409,4.2234,4.1078,3.6859,3.5608,3.2592,9.9145,9.9108,9.8924,9.8411,9.7415,9.5322,9.356,9.2031,9.0435,8.8746,8.7361,8.6605,8.6329,8.6294,8.6294,8.6294,8.6294,8.6294,8.6708,8.7467,8.8157,8.8915,8.9743,9.0364,9.0709,9.0571,9.0123,8.9812,8.964,8.9778,9.0157,9.0743,9.0812,9.0812,9.0812,9.0812,9.1126,9.1641,9.3068,9.3799,9.3869,9.4565,9.5118,9.5337,9.5303,9.4612,9.3158,9.3054,9.233,9.0985,9.0707,8.9667,8.7585,8.7165,8.5403,8.1519,8.056,7.9252,7.7216,7.64,7.6,7.5846,7.4738,7.403,7.3968,7.3383,7.2983,7.2984,7.2491,7.169,7.0952,7.0034,6.912,6.8359,6.7093,6.5831,6.5329,6.4281,6.2689,6.0866,6.0483,6.0096,5.8779,5.8523,5.8381,5.807,5.7862,5.7821,5.7584,5.5856,5.4679,5.3732,5.2236,5.0652,4.8984,4.8531,4.8149,4.7554,4.7205,4.7071,4.6873,4.6523,4.6322,4.6498,4.6169,4.5865,4.5713,4.5147,4.437,4.3591,4.2827,4.1271,3.7011,3.6594,3.4746,10.0503,10.0429,9.9512,9.8374,9.7048,9.5304,9.4145,9.3359,9.1516,9.0037,8.8886,8.8046,8.7156,8.6329,8.6294,8.6294,8.6294,8.6294,8.6984,8.8053,8.8433,8.9226,9.0295,9.064,9.0605,9.0157,8.9847,8.9467,8.9191,8.9467,8.9847,9.0192,9.0571,9.0812,9.0812,9.1126,9.1748,9.281,9.386,9.4732,9.5528,9.6367,9.6622,9.6309,9.596,9.484,9.33,9.2675,9.1916,9.0916,9.0812,9.0018,8.812,8.7912,8.6095,8.2395,8.011,7.8343,7.7147,7.6769,7.6431,7.6031,7.5138,7.443,7.3999,7.3383,7.2983,7.2891,7.2368,7.166,7.0952,7.0034,6.9,6.8061,6.6634,6.5076,6.3923,6.2585,6.1002,5.9568,5.9315,5.9175,5.8638,5.8212,5.7953,5.7498,5.6895,5.6435,5.6656,5.431,5.2502,5.2377,5.0797,4.9112,4.8196,4.8057,4.7681,4.722,4.705,4.6915,4.6288,4.6523,4.6328,4.607,4.6039,4.5847,4.5506,4.4939,4.437,4.4008,4.3227,4.1464,3.71,3.7593,3.5588,10.1494,10.1237,9.9769,9.8447,9.7195,9.5509,9.4632,9.4145,9.2403,9.108,9.0204,8.9114,8.7984,8.7018,8.6708,8.6536,8.6329,8.6294,8.7122,8.8467,8.8605,8.9398,9.0709,9.0812,9.0536,9.0019,8.9571,8.8984,8.8433,8.9225,8.9708,8.9778,9.0538,9.1022,9.1022,9.1437,9.2189,9.3285,9.4198,9.5306,9.6338,9.7357,9.7552,9.6868,9.6273,9.5123,9.3231,9.2571,9.1813,9.0881,9.0812,9.0157,8.8708,8.8364,8.6525,8.277,8.011,7.8088,7.7147,7.7016,7.6646,7.5815,7.5107,7.4338,7.3537,7.2798,7.2429,7.2337,7.1783,7.1167,7.083,6.976,6.8576,6.7365,6.5764,6.4081,6.2375,6.0893,5.9707,5.8638,5.8638,5.8523,5.8523,5.8212,5.781,5.7379,5.5997,5.5016,5.5362,5.2867,5.0716,5.1827,4.9716,4.8155,4.8138,4.7854,4.7354,4.7046,4.6719,4.6406,4.5722,4.6285,4.6366,4.5793,4.5834,4.5622,4.53,4.475,4.399,4.3626,4.2861,4.1674,3.79,3.8009,3.6342,10.1494,10.1237,9.9769,9.8998,9.8814,9.7195,9.5991,9.5036,9.3318,9.2056,9.1038,8.9426,8.857,8.8398,8.7743,8.7018,8.6432,8.6398,8.7191,8.857,8.8605,8.9364,9.0743,9.0812,9.0778,9.0467,8.9295,8.8295,8.7637,8.8767,8.9495,8.9778,9.0917,9.1606,9.1606,9.1606,9.1945,9.2828,9.4122,9.5095,9.587,9.718,9.7349,9.6379,9.6203,9.5118,9.3404,9.3054,9.233,9.0881,9.0812,9.0123,8.8777,8.857,8.6389,8.2329,8.0766,7.9128,7.7377,7.6985,7.6431,7.523,7.4461,7.3476,7.2244,7.1567,7.1229,7.1044,7.0431,7.0065,7.0159,6.8911,6.7304,6.5794,6.3923,6.2347,6.1029,5.9707,5.8779,5.8523,5.8523,5.8381,5.8497,5.8212,5.7641,5.6921,5.5532,5.4345,5.4071,5.1922,5.0674,5.0479,4.9617,4.8159,4.7874,4.7528,4.7007,4.6503,4.6367,4.6231,4.5915,4.5846,4.5687,4.5591,4.5834,4.5622,4.5111,4.456,4.3799,4.3244,4.3053,4.1271,3.8518,3.7432,3.5953,10.087,9.9916,9.9365,9.8521,9.7566,9.7456,9.7007,9.6064,9.4747,9.3598,9.2649,9.0841,8.9743,8.9295,8.9019,8.8467,8.7743,8.726,8.7846,8.9122,8.8812,8.9398,9.0674,9.0812,9.0536,8.9985,8.9088,8.8153,8.7547,8.9012,8.9843,9.0199,9.1381,9.211,9.221,9.2407,9.3158,9.4376,9.5011,9.6012,9.7323,9.747,9.7109,9.6625,9.575,9.46,9.3123,9.2157,9.1364,9.0812,9.0812,9.0123,8.8605,8.6988,8.4757,8.2001,8.068,7.916,7.7346,7.6615,7.6129,7.549,7.4094,7.2675,7.1291,7.0952,7.089,7.0615,6.9214,6.8512,6.8512,6.7541,6.6109,6.4723,6.2745,6.1436,6.1029,5.9707,5.8523,5.8523,5.8523,5.8381,5.7953,5.7667,5.6921,5.5238,5.3576,5.2753,5.2294,5.0418,4.898,4.9925,4.9047,4.7854,4.7354,4.7181,4.6832,4.6483,4.6153,4.5799,4.5655,4.5498,4.5531,4.55,4.5517,4.5452,4.4939,4.399,4.3435,4.3053,4.2861,4.1481,3.9315,3.8031,3.6758,10.0466,9.9512,9.8924,9.8117,9.7163,9.7383,9.7199,9.649,9.5246,9.4281,9.3484,9.1638,9.0536,9.0123,9.0054,8.9812,8.9226,8.8295,8.8501,8.9571,8.9191,8.9467,9.0295,9.0433,9.0054,8.9329,8.8775,8.8038,8.743,8.9257,9.0246,9.0195,9.1864,9.2638,9.2735,9.3236,9.4171,9.5091,9.5658,9.6667,9.7785,9.7411,9.6971,9.6796,9.5675,9.4356,9.3089,9.1882,9.1054,9.0847,9.0812,9.0123,8.8433,8.6266,8.3968,8.182,8.0799,7.9284,7.7253,7.6184,7.5543,7.5087,7.3323,7.169,7.037,7.0305,7.0124,6.9488,6.8454,6.726,6.6294,6.5309,6.4281,6.3403,6.1947,6.0756,6.0647,5.9315,5.8664,5.8523,5.8381,5.807,5.7667,5.7379,5.6168,5.4199,5.2365,5.1546,5.1086,4.9231,4.792,4.9112,4.8319,4.7488,4.7007,4.6832,4.6483,4.6133,4.5783,4.5622,4.5375,4.525,4.5296,4.528,4.5257,4.5191,4.4578,4.3435,4.3053,4.2861,4.2268,4.1271,3.9787,3.845,3.6967,10.0283,9.9916,9.8557,9.786,9.7603,9.7052,9.6722,9.6453,9.4655,9.3852,9.3506,9.1638,9.0778,9.0743,9.0674,9.0709,9.0398,8.926,8.9088,8.9743,8.9674,8.9674,8.9916,8.995,8.9502,8.8777,8.835,8.7847,8.7414,8.953,9.0551,9.0622,9.2141,9.3109,9.3215,9.3983,9.4444,9.494,9.6003,9.6783,9.6791,9.6962,9.6971,9.6798,9.5681,9.4458,9.3123,9.233,9.1537,9.0881,9.0743,8.9983,8.8226,8.6474,8.4398,8.1853,8.1186,7.9745,7.7352,7.5754,7.4707,7.3783,7.2091,7.0675,6.9967,6.9382,6.8719,6.8001,6.7304,6.6322,6.4009,6.2906,6.2214,6.184,6.1436,6.051,5.9315,5.8638,5.8523,5.8523,5.8212,5.7927,5.7784,5.7065,5.5704,5.4025,5.2213,5.0703,5.0095,4.8294,4.7581,4.8045,4.7814,4.7181,4.6832,4.6658,4.6133,4.5783,4.5607,4.5369,4.4942,4.4957,4.5058,4.5058,4.5161,4.5093,4.437,4.3435,4.2844,4.246,4.1866,4.1078,3.9609,3.8077,3.6773,9.9659,9.8631,9.8117,9.7566,9.7089,9.6795,9.6722,9.6531,9.4583,9.3781,9.3413,9.1638,9.0812,9.0812,9.0812,9.0812,9.0778,9.0295,9.026,9.0329,8.995,8.9985,9.0364,9.0433,9.002,8.9214,8.8837,8.8451,8.8403,8.9785,9.0802,9.1351,9.2276,9.315,9.3755,9.4559,9.5201,9.5842,9.6672,9.7551,9.7953,9.7375,9.6971,9.6798,9.547,9.4099,9.3123,9.2399,9.1606,9.0847,9.0329,8.926,8.7366,8.54,8.3387,8.1505,8.0231,7.8942,7.716,7.5323,7.3719,7.2458,7.1046,6.9997,6.932,6.9012,6.8386,6.7427,6.6387,6.4822,6.3431,6.2002,6.122,6.0947,6.0123,5.9595,5.9202,5.8779,5.8523,5.8523,5.807,5.7784,5.7354,5.6314,5.4473,5.2494,5.083,4.9509,4.8535,4.7672,4.7223,4.7672,4.7255,4.6832,4.6658,4.6308,4.5958,4.5607,4.5255,4.4939,4.4689,4.4758,4.4838,4.4928,4.5028,4.4696,4.3972,4.3418,4.2844,4.2076,4.1481,4.0287,3.8909,3.7673,3.6327,9.9108,9.7897,9.7566,9.7163,9.6722,9.6722,9.6722,9.6416,9.4583,9.3781,9.3413,9.1638,9.0812,9.0812,9.0812,9.0812,9.0812,9.0812,9.0812,9.0743,9.0364,9.026,9.0295,8.995,8.9532,8.906,8.8766,8.8636,8.8577,8.9805,9.089,9.164,9.2389,9.3388,9.4388,9.5244,9.5993,9.6743,9.7528,9.817,9.837,9.7617,9.6971,9.6798,9.5257,9.3991,9.3123,9.2399,9.1606,9.0778,8.9881,8.8329,8.6258,8.4446,8.2651,8.068,7.9499,7.8249,7.6752,7.5015,7.3289,7.1875,7.0585,6.9628,6.9074,6.8654,6.7909,6.6786,6.5232,6.3793,6.2669,6.122,6.0453,6.0315,5.9595,5.9061,5.9202,5.8779,5.8381,5.8239,5.7953,5.7354,5.6143,5.509,5.2949,5.083,4.945,4.8424,4.771,4.709,4.7135,4.7127,4.6868,4.6599,4.6289,4.6133,4.5958,4.5431,4.4902,4.4604,4.4238,4.4632,4.4765,4.4943,4.4868,4.4525,4.3817,4.3244,4.2669,4.1866,4.0885,3.9899,3.8667,3.7296,3.6193,9.8557,9.775,9.7016,9.6759,9.6722,9.6722,9.6722,9.6416,9.4619,9.3781,9.3413,9.1638,9.0812,9.0812,9.0812,9.0812,9.0812,9.0812,9.0812,9.0812,9.0674,9.0502,9.0123,8.9322,8.8926,8.8697,8.8685,8.8648,8.8667,8.9751,9.0819,9.1461,9.2246,9.3424,9.4637,9.5779,9.6564,9.7207,9.8135,9.8634,9.867,9.7617,9.6971,9.6971,9.5257,9.3916,9.3123,9.2261,9.1433,9.0605,8.9191,8.7359,8.5119,8.3942,8.1853,7.9284,7.8942,7.7745,7.6196,7.4799,7.3414,7.2091,7.0585,6.9478,6.8776,6.7789,6.6786,6.5764,6.4339,6.2934,6.1761,6.0564,5.9734,5.9595,5.9315,5.9061,5.8664,5.8523,5.8239,5.7927,5.7498,5.6631,5.4794,5.4025,5.2037,4.9897,4.8684,4.7847,4.7296,4.6759,4.6514,4.6595,4.6516,4.652,4.623,4.5958,4.5783,4.5255,4.4725,4.4249,4.4059,4.4251,4.4561,4.4732,4.4696,4.418,4.3626,4.3053,4.2268,4.1078,4.0303,3.9331,3.8123,3.6773,3.6075,9.775,9.7016,9.6759,9.6722,9.6722,9.6722,9.6722,9.6416,9.4583,9.3781,9.332,9.1638,9.0812,9.0812,9.0812,9.0812,9.0812,9.0812,9.0812,9.0812,9.0812,9.0918,9.0883,9.0253,8.9948,9.0059,8.9527,8.9289,8.9182,8.9483,9.007,9.0783,9.1604,9.2461,9.3495,9.5387,9.6315,9.6778,9.8027,9.867,9.8574,9.7617,9.7006,9.6833,9.5257,9.3847,9.3054,9.1813,9.0467,8.926,8.8186,8.6486,8.4042,8.2296,8.0528,7.9035,7.7929,7.7067,7.6037,7.4707,7.3383,7.206,7.0038,6.8516,6.785,6.6909,6.5639,6.4368,6.3459,6.2403,6.0674,5.9873,5.9315,5.892,5.892,5.8779,5.8355,5.8239,5.7927,5.7784,5.721,5.6022,5.4473,5.2798,5.1139,4.9135,4.7773,4.6936,4.6537,4.6142,4.6004,4.6226,4.6146,4.6189,4.6172,4.5919,4.5607,4.5078,4.4548,4.4034,4.3954,4.4015,4.4209,4.4347,4.411,4.3799,4.3435,4.2861,4.1674,4.0691,4.0045,3.9221,3.7387,3.6089,3.5765,9.7497,9.6722,9.6722,9.6722,9.6722,9.6722,9.6453,9.5866,9.4495,9.3506,9.2848,9.1572,9.0812,9.0812,9.0812,9.0812,9.0812,9.0812,9.0812,9.0812,9.0812,9.0988,9.1091,9.1007,9.0959,9.0505,9.0191,8.9805,8.934,8.932,8.9749,9.0445,9.1069,9.1995,9.346,9.5022,9.6305,9.6957,9.8063,9.867,9.8574,9.7617,9.6863,9.6273,9.477,9.3227,9.1778,9.0778,8.9778,8.8639,8.7633,8.5952,8.3042,8.1239,7.959,7.8185,7.7129,7.6277,7.5507,7.4338,7.2734,7.1045,6.9211,6.7781,6.6535,6.5387,6.411,6.3141,6.2242,6.1057,5.9985,5.9315,5.892,5.8638,5.8523,5.8186,5.7446,5.7303,5.7014,5.6435,5.5679,5.4646,5.3251,5.1424,4.9741,4.8049,4.6811,4.6309,4.6045,4.5754,4.5517,4.5678,4.566,4.5742,4.5629,4.557,4.5216,4.4706,4.4193,4.3856,4.3793,4.3633,4.3916,4.3962,4.3832,4.3435,4.3053,4.246,4.1674,4.0852,3.9997,3.8644,3.7027,3.5734,3.5427,9.7576,9.6722,9.6762,9.6799,9.6685,9.6685,9.6223,9.5217,9.4319,9.332,9.24,9.1367,9.1022,9.0778,9.0917,9.0917,9.0812,9.0812,9.0917,9.0917,9.1022,9.1196,9.123,9.1502,9.1246,9.0564,9.0498,8.9982,8.9499,8.932,8.959,9.0108,9.0586,9.1757,9.3242,9.474,9.615,9.7148,9.8135,9.8538,9.8309,9.734,9.6409,9.5365,9.3555,9.164,9.0295,8.9467,8.8984,8.8364,8.7458,8.5135,8.1984,8.0647,7.9157,7.7388,7.6468,7.5754,7.4892,7.3596,7.1902,6.9907,6.8689,6.707,6.5124,6.3822,6.2773,6.1813,6.051,5.9846,5.9455,5.892,5.8664,5.8523,5.8381,5.7303,5.5947,5.5947,5.5947,5.4473,5.3552,5.2342,5.1139,4.9763,4.8208,4.7272,4.6185,4.5922,4.5555,4.5183,4.5071,4.5035,4.517,4.5297,4.5184,4.5048,4.4731,4.4156,4.3837,4.3357,4.3595,4.3633,4.3623,4.3714,4.3312,4.314,4.2861,4.2268,4.1464,4.0545,3.9418,3.7893,3.652,3.575,3.5207,9.7285,9.6989,9.7063,9.6989,9.6762,9.6838,9.6265,9.5133,9.4619,9.3541,9.2497,9.2075,9.1606,9.0917,9.123,9.1196,9.0917,9.0917,9.1022,9.1504,9.191,9.201,9.1935,9.1662,9.1305,9.1027,9.0677,9.007,8.9499,8.932,8.9182,8.9165,9.0107,9.0944,9.1828,9.4075,9.5722,9.6671,9.7885,9.8299,9.7732,9.6675,9.5433,9.4146,9.1889,9.0019,8.9019,8.8152,8.7458,8.6666,8.5574,8.374,8.1198,7.9713,7.8313,7.6825,7.6061,7.5446,7.4211,7.2693,7.1056,6.9286,6.7187,6.5318,6.3777,6.2669,6.1491,6.0537,5.9707,5.9315,5.8779,5.8638,5.8355,5.807,5.7472,5.5947,5.3953,5.4424,5.4448,5.3401,5.219,5.1139,4.9584,4.9135,4.789,4.6649,4.5861,4.5535,4.5106,4.4838,4.4667,4.4552,4.4382,4.4489,4.4377,4.428,4.3865,4.3663,4.3206,4.2818,4.2892,4.2946,4.2792,4.2819,4.3036,4.2829,4.2792,4.1992,4.1172,3.982,3.8635,3.7409,3.6178,3.5471,3.5075,9.7285,9.7138,9.7138,9.7063,9.6914,9.638,9.5549,9.4669,9.4088,9.3168,9.2238,9.2309,9.201,9.1504,9.1606,9.1402,9.1196,9.123,9.1504,9.191,9.2309,9.2489,9.2318,9.1623,9.1139,9.1138,9.0766,9.0105,8.9499,8.932,8.9233,8.897,8.9716,9.0285,9.0905,9.3022,9.4395,9.5387,9.6743,9.7231,9.6189,9.5342,9.3758,9.2131,9.0192,8.8812,8.802,8.7154,8.5932,8.4674,8.332,8.21,8.0408,7.8875,7.7463,7.632,7.5292,7.4605,7.3144,7.1577,6.9729,6.8151,6.5694,6.3914,6.2354,6.122,6.0288,5.9455,5.9035,5.8753,5.7759,5.7615,5.7472,5.6725,5.5972,5.4448,5.2925,5.2949,5.2798,5.1424,5.0053,4.9584,4.882,4.8208,4.7432,4.6023,4.5535,4.5209,4.4698,4.4429,4.4139,4.4004,4.3903,4.3837,4.3557,4.3308,4.3106,4.2868,4.2535,4.2207,4.2085,4.1941,4.1827,4.1978,4.2536,4.276,4.2516,4.1699,4.0607,3.9644,3.8224,3.6913,3.5851,3.5265,3.4914,9.7502,9.7358,9.7211,9.7138,9.6952,9.5911,9.5012,9.4052,9.3541,9.2918,9.201,9.2309,9.2603,9.2309,9.211,9.1809,9.1708,9.1708,9.201,9.254,9.2357,9.2519,9.2418,9.1544,9.0793,9.085,9.0428,8.9856,8.9463,8.932,8.9146,8.9129,8.9449,8.9785,9.0605,9.2027,9.3213,9.3918,9.5058,9.5273,9.419,9.3355,9.1879,8.9846,8.8639,8.7779,8.6886,8.5849,8.4514,8.2439,8.0721,7.9903,7.9227,7.8152,7.6491,7.5661,7.4518,7.3303,7.1964,7.0089,6.8023,6.6124,6.4301,6.2515,6.1111,6.0288,5.9455,5.8779,5.8355,5.7759,5.658,5.6435,5.5826,5.509,5.4025,5.2949,5.1907,5.147,5.0387,4.9135,4.8367,4.789,4.7571,4.7272,4.6488,4.5698,4.5209,4.4718,4.437,4.4041,4.3915,4.3604,4.3504,4.2932,4.2819,4.2761,4.2389,4.2188,4.1978,4.1599,4.1302,4.0911,4.1047,4.1717,4.2003,4.2142,4.1778,4.0759,3.9866,3.9005,3.7784,3.6086,3.5454,3.4885,3.4783,9.7752,9.7573,9.7681,9.7248,9.6535,9.6343,9.5337,9.416,9.4195,9.3555,9.2505,9.331,9.318,9.27,9.2797,9.27,9.2309,9.221,9.247,9.2717,9.2424,9.2397,9.2173,9.1301,9.0606,9.041,8.9963,8.9499,8.9356,8.932,8.9023,8.8487,8.8934,8.9343,8.9746,9.0864,9.1935,9.2339,9.3168,9.3105,9.2139,9.1246,9.0044,8.7984,8.7193,8.6371,8.5341,8.3954,8.2399,8.0738,7.8602,7.7448,7.6867,7.6307,7.5494,7.4522,7.3327,7.2176,7.0825,6.8454,6.6723,6.5228,6.3384,6.1816,6.0701,6.0039,5.9202,5.8329,5.7472,5.658,5.5435,5.5115,5.4794,5.3876,5.2646,5.1424,5.0053,4.9135,4.8525,4.7752,4.7132,4.6649,4.6649,4.6649,4.6023,4.5535,4.5046,4.4534,4.4205,4.4041,4.3711,4.3399,4.294,4.2555,4.1989,4.2044,4.1849,4.1896,4.1586,4.1048,4.0684,4.0051,4.0129,4.0851,4.1114,4.1169,4.0611,3.992,3.8909,3.8024,3.6625,3.5454,3.5103,3.4783,3.4753,9.7822,9.7752,9.7752,9.7321,9.6575,9.5874,9.5048,9.4124,9.3924,9.3497,9.3215,9.3591,9.3776,9.331,9.312,9.2928,9.2603,9.2735,9.2681,9.2578,9.2468,9.1976,9.1747,9.0783,9.0284,8.9927,8.9499,8.932,8.932,8.932,8.8934,8.8757,8.8934,8.8844,8.8905,8.9703,9.0326,9.0611,9.114,9.1003,8.9966,8.8936,8.7669,8.6949,8.6062,8.5241,8.4245,8.2366,8.0786,7.9212,7.7061,7.5867,7.5123,7.4656,7.4345,7.375,7.2554,7.1208,6.9704,6.7568,6.5745,6.4053,6.2256,6.1002,6.015,5.9455,5.8612,5.7759,5.7159,5.5972,5.4223,5.3774,5.2845,5.1907,5.0698,4.9607,4.8504,4.7592,4.7132,4.6972,4.6649,4.6509,4.6347,4.6023,4.5719,4.5209,4.4718,4.437,4.4205,4.3856,4.3711,4.3048,4.2735,4.218,4.1579,4.1615,4.15,4.1341,4.1106,4.0589,4.0016,3.9531,3.9544,4.0146,4.0129,4.0156,3.9922,3.9552,3.8197,3.6881,3.596,3.5073,3.4783,3.471,3.4522,9.7892,9.7892,9.7752,9.7321,9.6539,9.5513,9.4669,9.4124,9.3648,9.3404,9.3404,9.3776,9.3995,9.3904,9.3591,9.3085,9.2762,9.3073,9.2765,9.2361,9.2138,9.1568,9.0819,9.0248,8.9927,8.9499,8.9146,8.9233,8.9233,8.911,8.9023,8.8757,8.8452,8.8234,8.839,8.8662,8.8685,8.8836,8.9056,8.8864,8.7854,8.6839,8.609,8.5852,8.5104,8.4279,8.2864,8.1017,7.9332,7.765,7.5977,7.4501,7.3817,7.3135,7.2918,7.3007,7.1722,7.0092,6.837,6.6384,6.4392,6.2859,6.1384,6.0342,5.9595,5.8753,5.7615,5.658,5.5972,5.4942,5.3171,5.2283,5.1339,5.0121,4.8864,4.7752,4.7432,4.6811,4.6649,4.6509,4.6347,4.6306,4.6123,4.5698,4.5372,4.5046,4.4534,4.4205,4.3876,4.3856,4.3546,4.2882,4.2402,4.1733,4.1302,4.117,4.1056,4.0959,4.0503,3.999,3.9559,3.8975,3.9114,3.9453,3.9328,3.9389,3.9221,3.8869,3.7523,3.6417,3.536,3.4926,3.471,3.4695,3.4508,9.7892,9.7892,9.7892,9.7138,9.607,9.5794,9.5085,9.405,9.3868,9.3868,9.3776,9.3995,9.3995,9.3995,9.3868,9.3776,9.3562,9.3135,9.2672,9.2209,9.1408,9.0855,9.0391,8.9713,8.957,8.9233,8.8899,8.8899,8.9023,8.881,8.8452,8.8178,8.7994,8.7714,8.7501,8.7736,8.7666,8.7449,8.7457,8.7165,8.6632,8.6294,8.5479,8.4592,8.3838,8.2903,8.1092,7.9266,7.7783,7.6331,7.489,7.3848,7.3076,7.2104,7.1425,7.0802,6.9704,6.84,6.6677,6.4802,6.3026,6.174,6.0618,5.9873,5.9149,5.794,5.6479,5.5287,5.4324,5.3179,5.1944,5.147,5.0588,4.9562,4.8352,4.7464,4.6867,4.6274,4.6016,4.5896,4.5814,4.5938,4.602,4.5454,4.5046,4.4718,4.437,4.4041,4.3711,4.3546,4.3195,4.255,4.2049,4.1546,4.1229,4.106,4.0892,4.0723,4.0216,3.9519,3.9195,3.8889,3.8735,3.8868,3.8746,3.8481,3.8294,3.7597,3.6792,3.5861,3.5099,3.4724,3.471,3.4508,3.4508,9.7892,9.7892,9.7502,9.6803,9.5911,9.5503,9.49,9.4141,9.3995,9.3995,9.3995,9.3995,9.3995,9.4086,9.3995,9.371,9.3317,9.2889,9.2246,9.164,9.0783,9.0248,8.982,8.9499,8.932,8.9198,8.9023,8.8899,8.881,8.8452,8.8051,8.8143,8.762,8.737,8.6985,8.695,8.6887,8.6726,8.6593,8.6286,8.5677,8.517,8.4455,8.3296,8.2359,8.1101,7.9661,7.7834,7.6571,7.5283,7.412,7.2952,7.2204,7.1329,7.0397,6.8605,6.7552,6.6433,6.5193,6.36,6.2096,6.0864,5.9873,5.9455,5.8841,5.7306,5.5666,5.4647,5.3176,5.1765,5.0254,4.9468,4.8521,4.7766,4.7447,4.6775,4.6003,4.574,4.5478,4.5401,4.5463,4.5406,4.539,4.5068,4.4661,4.4355,4.4047,4.3739,4.3322,4.3048,4.2716,4.2049,4.1714,4.121,4.1229,4.106,4.0873,4.0536,4.0028,3.9519,3.9025,3.8769,3.8735,3.837,3.82,3.7973,3.7408,3.6944,3.6328,3.5428,3.471,3.471,3.471,3.471,3.4118,9.7644,9.7573,9.7138,9.6421,9.5668,9.5242,9.4639,9.405,9.3995,9.3995,9.3995,9.3995,9.405,9.4124,9.407,9.364,9.305,9.2656,9.1833,9.101,9.03,8.9943,8.9672,8.9457,8.932,8.932,8.8846,8.8721,8.8325,8.7866,8.7585,8.8051,8.724,8.6887,8.6755,8.6316,8.5945,8.5634,8.5634,8.5229,8.4586,8.3943,8.3057,8.1855,8.0701,7.9451,7.8415,7.6772,7.5395,7.4816,7.3324,7.2109,7.1298,7.0042,6.8732,6.7041,6.5601,6.432,6.3482,6.2341,6.1246,6.0146,5.8797,5.8104,5.7332,5.6056,5.4683,5.3498,5.1787,5.0261,4.8967,4.81,4.7399,4.6803,4.6004,4.5472,4.4981,4.5043,4.5147,4.5092,4.4954,4.4535,4.4579,4.4402,4.4239,4.3973,4.3706,4.3418,4.2944,4.2652,4.2061,4.147,4.1138,4.0805,4.0824,4.073,4.0487,4.0277,3.9957,3.9331,3.8819,3.8683,3.8443,3.8285,3.7949,3.7322,3.6956,3.6343,3.5896,3.5212,3.471,3.471,3.471,3.4522,3.3163,9.699,9.699,9.6915,9.6186,9.5036,9.5072,9.4551,9.3995,9.3995,9.3995,9.3995,9.405,9.4374,9.4511,9.4143,9.3746,9.353,9.216,9.1547,9.0984,9.0179,8.9856,8.9761,8.9628,8.9233,8.911,8.8632,8.8361,8.8051,8.724,8.6985,8.6985,8.6483,8.6424,8.6118,8.5634,8.4984,8.4639,8.4402,8.3834,8.3227,8.2547,8.1619,8.0019,7.9243,7.854,7.7025,7.5645,7.4904,7.4659,7.2798,7.1329,7.0269,6.869,6.7086,6.5469,6.3891,6.2609,6.1412,6.1029,6.0453,5.9296,5.7833,5.638,5.5932,5.3517,5.2089,5.1919,5.0406,4.9065,4.8379,4.7881,4.6745,4.5911,4.523,4.5096,4.4806,4.4733,4.4815,4.4803,4.4564,4.3908,4.3396,4.336,4.3579,4.3336,4.3214,4.2748,4.2221,4.1732,4.1311,4.0726,4.0398,4.0216,4.0033,3.9997,4.0086,3.9952,3.9538,3.8985,3.8426,3.8306,3.8375,3.7977,3.75,3.7015,3.6458,3.5684,3.5239,3.4966,3.471,3.471,3.432,3.4132,3.1799,9.7321,9.6878,9.6462,9.5749,9.4986,9.4551,9.4231,9.4086,9.3995,9.3995,9.405,9.4374,9.4439,9.4313,9.4405,9.3724,9.2925,9.2344,9.1727,9.1132,9.0412,9.0095,8.9976,8.9677,8.911,8.881,8.8361,8.7901,8.7431,8.6818,8.631,8.6073,8.5703,8.5604,8.5363,8.488,8.4294,8.3891,8.3388,8.2886,8.2004,8.0867,7.9712,7.8146,7.722,7.6668,7.5635,7.4778,7.4388,7.3659,7.1994,7.0622,6.9248,6.716,6.5469,6.3884,6.2335,6.1028,5.9857,5.9475,5.9067,5.7867,5.6468,5.5254,5.4643,5.2595,5.1464,5.0618,4.9135,4.7753,4.7021,4.6247,4.5446,4.4879,4.4635,4.4544,4.4432,4.4339,4.4184,4.4091,4.3616,4.2948,4.2501,4.2092,4.2348,4.2523,4.2383,4.2101,4.1618,4.1228,4.0903,4.0358,4.0032,3.9813,3.9813,3.9778,3.9741,3.9407,3.9086,3.8589,3.8236,3.8289,3.8186,3.7771,3.721,3.6499,3.5895,3.5046,3.4647,3.472,3.4695,3.4508,3.4118,3.3742,3.1421,9.7321,9.6803,9.6149,9.5503,9.4986,9.4321,9.4141,9.4321,9.4321,9.4374,9.4603,9.4819,9.4721,9.4423,9.4051,9.3737,9.2786,9.2274,9.1836,9.1239,9.0704,9.0348,9.0141,8.9641,8.9023,8.8632,8.827,8.7901,8.7178,8.6776,8.6102,8.5358,8.4742,8.4604,8.4673,8.4121,8.3507,8.2874,8.244,8.146,8.0475,7.9248,7.8088,7.6863,7.6098,7.5635,7.5016,7.4388,7.3596,7.2614,7.1127,6.9406,6.7624,6.5779,6.3771,6.2303,6.0944,5.9616,5.8749,5.7874,5.7249,5.6141,5.4567,5.3711,5.3088,5.1512,5.0073,4.9421,4.7829,4.6596,4.5704,4.5062,4.45,4.4148,4.3975,4.4016,4.3995,4.3863,4.3515,4.3341,4.2758,4.2336,4.2067,4.1835,4.168,4.1894,4.1713,4.1631,4.1208,4.0877,4.0796,4.0232,3.9832,3.9758,3.9703,3.9377,3.9214,3.8776,3.8494,3.831,3.8165,3.8236,3.7946,3.7531,3.6813,3.6179,3.5444,3.4743,3.4581,3.4607,3.4666,3.4508,3.393,3.3351,3.2205,9.6953,9.6803,9.6228,9.5586,9.5072,9.4321,9.441,9.4986,9.4986,9.5205,9.5558,9.5138,9.5016,9.496,9.4081,9.3454,9.3086,9.246,9.202,9.1657,9.0902,9.0668,9.0348,8.9809,8.881,8.8452,8.8051,8.7526,8.688,8.6068,8.5427,8.4639,8.3811,8.3362,8.388,8.3293,8.2149,8.091,8.0746,7.9696,7.861,7.7708,7.6751,7.5803,7.522,7.4747,7.4419,7.3627,7.2737,7.1596,6.9542,6.7665,6.5781,6.3461,6.178,6.091,5.9076,5.816,5.7701,5.6167,5.5165,5.4227,5.2699,5.1559,5.0437,4.9292,4.8492,4.81,4.664,4.5704,4.4955,4.4201,4.3898,4.3615,4.3615,4.3615,4.3615,4.3462,4.3157,4.2851,4.2524,4.2236,4.1773,4.1502,4.1366,4.123,4.1148,4.1005,4.0716,4.0696,4.0708,4.0306,3.9868,3.9685,3.9575,3.905,3.8509,3.8075,3.7907,3.7874,3.7854,3.7927,3.7487,3.7019,3.6589,3.5763,3.5147,3.4711,3.4626,3.4505,3.4666,3.4508,3.3742,3.2974,3.2205,9.7573,9.7465,9.6803,9.6462,9.6186,9.5503,9.542,9.5586,9.5586,9.5749,9.5845,9.5464,9.5072,9.4705,9.4216,9.3504,9.3091,9.298,9.2579,9.191,9.1097,9.0668,9.0268,8.9435,8.8506,8.8051,8.7491,8.6699,8.5733,8.522,8.4432,8.3673,8.2783,8.2362,8.2239,8.1805,8.091,8.0342,7.9495,7.8304,7.7401,7.6653,7.5771,7.4627,7.4388,7.4026,7.3568,7.2521,7.138,7.0084,6.7964,6.5463,6.3863,6.1768,6.0148,5.9154,5.7597,5.6528,5.5455,5.4072,5.3583,5.2486,5.1338,5.0294,4.9938,4.8499,4.7648,4.6891,4.6002,4.5256,4.4805,4.405,4.3615,4.3615,4.3615,4.3615,4.3615,4.331,4.3004,4.2544,4.2216,4.1927,4.1483,4.1347,4.1347,4.1172,4.1129,4.1158,4.0906,4.0922,4.0748,4.0435,3.996,3.9703,3.9321,3.8851,3.8276,3.7882,3.7537,3.7292,3.7422,3.7416,3.7166,3.6533,3.6047,3.5539,3.4937,3.4453,3.4323,3.4358,3.4446,3.4204,3.3483,3.2933,3.2597,9.7892,9.7859,9.7726,9.7469,9.7101,9.6306,9.5991,9.6228,9.6462,9.6575,9.6507,9.5958,9.5327,9.473,9.4049,9.3619,9.2988,9.2988,9.2647,9.2018,9.1324,9.0631,8.9857,8.888,8.7987,8.734,8.6786,8.6026,8.4875,8.4501,8.3707,8.2611,8.173,8.1434,8.1268,8.0808,8.0242,7.9461,7.8304,7.7434,7.654,7.5655,7.4747,7.4147,7.3661,7.3231,7.2088,7.085,6.9556,6.7953,6.5775,6.3293,6.1959,6.0325,5.8666,5.7652,5.6609,5.5465,5.4099,5.3042,5.2402,5.1236,5.0482,4.9771,4.9198,4.7918,4.7038,4.6151,4.5256,4.4805,4.4352,4.3767,4.3615,4.3615,4.3615,4.3615,4.331,4.3004,4.2697,4.237,4.2082,4.1618,4.1327,4.1366,4.123,4.1112,4.1168,4.1017,4.1038,4.089,4.0859,4.0455,4.0125,3.9887,3.9467,3.8725,3.8114,3.7419,3.7077,3.6817,3.6878,3.7039,3.6627,3.6067,3.5553,3.5112,3.4651,3.4167,3.4205,3.4124,3.4139,3.3729,3.3168,3.2877,3.2744,9.7892,9.804,9.8746,9.8672,9.783,9.6722,9.6458,9.6916,9.7499,9.7674,9.7562,9.5823,9.5118,9.4926,9.3731,9.3062,9.3025,9.2988,9.251,9.1946,9.1249,9.0393,8.9485,8.865,8.7514,8.6497,8.5837,8.534,8.4018,8.3397,8.2604,8.1765,8.1039,8.0508,8.0208,7.9769,7.915,7.8304,7.7434,7.654,7.5655,7.4715,7.3932,7.3261,7.283,7.1655,7.0512,6.916,6.7352,6.5298,6.3193,6.1565,5.9966,5.8076,5.733,5.6558,5.5788,5.464,5.3427,5.2278,5.1163,5.0175,5.0056,4.891,4.7895,4.7038,4.6299,4.5555,4.4805,4.4201,4.3746,4.3767,4.3615,4.3615,4.3615,4.3462,4.3157,4.2851,4.2544,4.2236,4.1927,4.1463,4.1327,4.1211,4.125,4.1054,4.1071,4.0846,4.0726,4.0507,4.0455,4.0658,4.0308,4.0125,3.9486,3.8744,3.8114,3.7419,3.6742,3.6448,3.6474,3.6498,3.5942,3.5553,3.5045,3.4483,3.3829,3.3735,3.3875,3.3919,3.3861,3.3441,3.2873,3.2939,3.2459,9.8226,9.8746,9.9006,9.9266,9.9456,9.8575,9.7687,9.6829,9.6894,9.6703,9.6034,9.5031,9.466,9.44,9.3471,9.3062,9.2988,9.2818,9.2196,9.1547,9.0752,8.9868,8.888,8.7853,8.6846,8.6107,8.534,8.4558,8.3328,8.25,8.1702,8.0872,8.0408,7.9564,7.8697,7.8164,7.773,7.7148,7.6363,7.5592,7.4771,7.3932,7.2953,7.1873,7.1347,7.0019,6.8333,6.6677,6.4938,6.3322,6.1116,5.9339,5.7917,5.685,5.6239,5.5735,5.5017,5.4376,5.2692,5.2554,5.1607,4.9221,4.8766,4.8453,4.731,4.6299,4.5427,4.4805,4.4374,4.3919,4.3767,4.3615,4.3615,4.3615,4.3615,4.331,4.3004,4.2544,4.2236,4.1927,4.1618,4.1463,4.1172,4.1172,4.123,4.1152,4.0817,4.0553,4.032,4.0247,4.0271,4.0327,4.0272,3.9997,3.9341,3.8617,3.8043,3.749,3.6633,3.6114,3.6251,3.6113,3.5625,3.4973,3.4251,3.3618,3.3176,3.3232,3.3627,3.3597,3.3554,3.3153,3.2775,3.2845,3.1691,9.9326,9.9773,10.0006,10.0158,10.0121,9.9415,9.8003,9.6406,9.6443,9.6146,9.5365,9.4585,9.4214,9.4102,9.3397,9.2818,9.2579,9.2229,9.1693,9.0788,9.0078,8.9192,8.8164,8.7081,8.6072,8.5271,8.4454,8.3535,8.2508,8.1737,8.0936,8.0508,7.9871,7.8485,7.7401,7.6734,7.586,7.5515,7.4934,7.4407,7.3714,7.2829,7.1319,7.0058,6.9376,6.7813,6.5865,6.4121,6.2694,6.1172,5.9008,5.7586,5.6638,5.6054,5.5631,5.5125,5.4537,5.3835,5.2692,5.1558,5.0364,4.8882,4.7671,4.6891,4.6448,4.5427,4.4826,4.4201,4.3919,4.3615,4.3615,4.3615,4.3615,4.3615,4.3462,4.3157,4.2851,4.239,4.2082,4.1618,4.1483,4.1327,4.1172,4.1172,4.1016,4.0743,4.0468,4.0072,3.9842,3.9677,3.9884,3.9997,3.9942,3.9777,3.9122,3.8509,3.8007,3.7329,3.6615,3.6276,3.6148,3.5893,3.5425,3.4375,3.3365,3.2832,3.2573,3.2983,3.3319,3.3232,3.2877,3.2462,3.218,3.2323,3.077,10.0785,10.0867,10.1303,10.1012,10.0344,9.9489,9.778,9.5663,9.622,9.5997,9.5105,9.44,9.4028,9.3768,9.3078,9.251,9.2159,9.1729,9.106,9.0141,8.9328,8.8419,8.7409,8.6437,8.5298,8.4115,8.3362,8.2818,8.1833,8.1068,8.0508,8.0174,7.8378,7.7004,7.6055,7.5284,7.4297,7.3352,7.3208,7.2911,7.221,7.1107,6.9657,6.823,6.7034,6.5621,6.3504,6.194,6.0582,5.887,5.745,5.6343,5.5921,5.5524,5.5232,5.4671,5.4106,5.2966,5.1976,5.0551,4.9746,4.8369,4.6899,4.5769,4.4977,4.4826,4.4222,4.4071,4.3615,4.3615,4.3615,4.3615,4.3615,4.3462,4.3157,4.2851,4.239,4.2082,4.1618,4.1327,4.1327,4.1172,4.1172,4.1172,4.0997,4.0685,4.0216,3.9783,3.9421,3.9363,3.9424,3.9593,3.9483,3.9355,3.9065,3.8347,3.7793,3.7186,3.6615,3.6258,3.6114,3.5825,3.5388,3.4135,3.2844,3.2505,3.2295,3.2661,3.2837,3.269,3.2324,3.1714,3.1678,3.1735,2.9507,10.1425,10.1719,10.1564,10.1384,10.105,9.9712,9.804,9.6294,9.5811,9.4957,9.3731,9.3397,9.3322,9.3219,9.2658,9.2089,9.1838,9.1024,9.0516,8.9702,8.8809,8.772,8.6532,8.5741,8.4592,8.3597,8.2749,8.2046,8.1009,8.0408,7.9428,7.8097,7.6781,7.6023,7.4278,7.3484,7.2782,7.1437,7.122,7.0769,6.9791,6.9181,6.8051,6.6155,6.4549,6.2921,6.1147,5.9902,5.8502,5.7027,5.6501,5.5868,5.5339,5.5232,5.4671,5.3945,5.3538,5.2253,5.0693,4.9271,4.8255,4.6854,4.5492,4.4697,4.4222,4.4071,4.3898,4.3746,4.3615,4.3615,4.3615,4.3615,4.3462,4.331,4.3004,4.2544,4.2062,4.1618,4.1327,4.1327,4.1172,4.1172,4.1172,4.0997,4.0841,4.0529,4.0216,3.9764,3.9291,3.9123,3.8823,3.9043,3.8951,3.8682,3.8504,3.822,3.7668,3.7151,3.6581,3.6258,3.6097,3.5304,3.4343,3.3619,3.2738,3.2148,3.1988,3.2237,3.2324,3.2295,3.2062,3.1772,3.0559,3.007,2.7491,10.2343,10.2183,10.1508,10.0894,10.0307,9.9452,9.7966,9.622,9.5588,9.4511,9.3136,9.2988,9.2855,9.2579,9.2159,9.1547,9.1249,9.032,8.9702,8.8932,8.8078,8.7024,8.6011,8.4972,8.4046,8.3121,8.2017,8.1179,8.0107,7.8979,7.7882,7.6344,7.5684,7.4363,7.2532,7.2106,7.1313,7.0028,6.9597,6.8364,6.7264,6.6476,6.5418,6.3428,6.1813,6.0242,5.9054,5.8024,5.7212,5.6211,5.5895,5.5604,5.5206,5.5099,5.4805,5.3971,5.2966,5.1394,4.9677,4.7995,4.6743,4.5448,4.4546,4.3919,4.3835,4.3663,4.3601,4.3449,4.3594,4.3615,4.3615,4.3615,4.331,4.3157,4.2851,4.237,4.1773,4.1483,4.1327,4.1172,4.1172,4.1172,4.1172,4.0841,4.0666,4.0216,3.9902,3.943,3.9114,3.8956,3.864,3.864,3.864,3.8481,3.8218,3.7916,3.7419,3.6902,3.6563,3.6258,3.5935,3.4604,3.3492,3.3077,3.26,3.1786,3.1768,3.2032,3.2207,3.228,3.2033,3.1743,3.033,2.8751,2.6333,10.3174,10.2295,10.1039,9.9991,9.9118,9.8969,9.7595,9.5663,9.5403,9.4511,9.3099,9.2885,9.251,9.2159,9.1875,9.102,9.0231,8.9449,8.8792,8.7981,8.6934,8.6116,8.5263,8.4385,8.3266,8.209,8.0916,8.004,7.9083,7.7825,7.6372,7.4797,7.3623,7.2407,7.1671,7.088,7.0028,6.8689,6.7512,6.5892,6.4748,6.3807,6.2592,6.1046,5.9301,5.8282,5.718,5.6497,5.6132,5.5736,5.5472,5.5232,5.5099,5.5099,5.4241,5.3538,5.1951,5.0527,4.8817,4.6529,4.5555,4.4718,4.3919,4.3573,4.3491,4.3366,4.3284,4.3325,4.347,4.3553,4.3553,4.3615,4.331,4.2851,4.2544,4.2062,4.1618,4.1172,4.1172,4.1172,4.1172,4.1172,4.0997,4.0841,4.0353,3.9902,3.9588,3.9114,3.8798,3.8798,3.864,3.864,3.864,3.8322,3.8163,3.7685,3.7205,3.6885,3.642,3.6258,3.5757,3.4441,3.3624,3.3164,3.2736,3.1667,3.1651,3.1959,3.212,3.228,3.2237,3.1758,3.0045,2.826,2.5735,10.2818,10.1432,10.0053,9.9262,9.9006,9.8412,9.7074,9.5588,9.5365,9.4474,9.3115,9.2405,9.2089,9.191,9.1473,9.0631,8.9569,8.8721,8.7981,8.724,8.6193,8.5305,8.4385,8.3369,8.2286,8.095,7.9665,7.8485,7.7543,7.6164,7.4747,7.3281,7.2567,7.1422,7.0328,6.9448,6.8356,6.7117,6.5263,6.3502,6.2261,6.1404,6.075,5.94,5.7813,5.7077,5.6394,5.6236,5.5736,5.5339,5.5206,5.5099,5.4939,5.4671,5.381,5.2391,5.0809,4.8891,4.7029,4.5639,4.4654,4.3882,4.3408,4.347,4.3325,4.3097,4.3035,4.3056,4.318,4.3174,4.3235,4.34,4.331,4.2544,4.1927,4.1618,4.1327,4.1172,4.1172,4.1172,4.1172,4.1172,4.1172,4.0841,4.0353,3.9902,3.943,3.9114,3.864,3.864,3.864,3.864,3.864,3.8322,3.8004,3.7685,3.7205,3.6724,3.642,3.6258,3.5595,3.4441,3.3788,3.3312,3.2432,3.1307,3.149,3.1915,3.212,3.2266,3.228,3.1787,3.0059,2.7914,2.5323]},{"header":{"parameterUnit":"m.s-1","parameterCategory":1,"la1":31.0,"la2":29.5877,"lo1":-88.7671,"lo2":-86.6584,"dy":0.0162,"dx":0.0185,"nx":115,"ny":88,"refTime":"2024-02-25T12:00:00:Z","depth":0,"parameterNumber":3,"parameterNumberName":"V-component_of_WINDS"},"data":[0.0,0.0,0.0,0.0,0.0,0.0,0.0,0.0,0.0,0.0,0.0,0.0,0.0,0.0,0.0,0.0,0.0,0.0,0.0,0.0,0.0,0.0,0.0,0.0,0.0,0.0,0.0,0.0,0.0,0.0,0.0,0.0,0.0,0.0,0.0,0.0,0.0,0.0,0.0,0.0,0.0,0.0,0.0,0.0,0.0,0.0,0.0,0.0,0.0,0.0,0.0,0.0,0.0,0.0,0.0,0.0,0.0,0.0,0.0,0.0,0.0,0.0,0.0,0.0,0.0,0.0,0.0,0.0,0.0,0.0,0.0,0.0,0.0,0.0,0.0,0.0,0.0,0.0,0.0,0.0,0.0,0.0,0.0,0.0,0.0,0.0,0.0,0.0,0.0,0.0,0.0,0.0,0.0,0.0,0.0,0.0,0.0,0.0,0.0,0.0,0.0,0.0,0.0,0.0,0.0,0.0,0.0,0.0,0.0,0.0,0.0,0.0,0.0,0.0,0.0,0.0,0.0,0.0,0.0,0.0,0.0,0.0,0.0,0.0,0.0,0.0,0.0,0.0,0.0,0.0,0.0,0.0,0.0,0.0,0.0,0.0,0.0,0.0,0.0,0.0,0.0,0.0,0.0,0.0,0.0,0.0,0.0,0.0,0.0,0.0,0.0,0.0,0.0,0.0,0.0,0.0,0.0,0.0,0.0,0.0,0.0,0.0,0.0,0.0,0.0,0.0,0.0,0.0,0.0,0.0,0.0,0.0,0.0,0.0,0.0,0.0,0.0,0.0,0.0,0.0,0.0,0.0,0.0,0.0,0.0,0.0,0.0,0.0,0.0,0.0,0.0,0.0,0.0,0.0,0.0,0.0,0.0,0.0,0.0,0.0,0.0,0.0,0.0,0.0,0.0,0.0,0.0,0.0,0.0,0.0,0.0,0.0,0.0,0.0,0.0,0.0,0.0,0.0,0.0,0.0,0.0,0.0,0.0,0.0,0.0,0.0,0.0,0.0,0.0,0.0,0.0,0.0,0.0,0.0,0.0,0.0,0.0,0.0,0.0,0.0,0.0,0.0,0.0,0.0,0.0,0.0,0.0,0.0,0.0,0.0,0.0,0.0,0.0,0.0,0.0,0.0,0.0,0.0,0.0,0.0,0.0,0.0,0.0,0.0,0.0,0.0,0.0,0.0,0.0,0.0,0.0,0.0,0.0,0.0,0.0,0.0,0.0,0.0,0.0,0.0,0.0,0.0,0.0,0.0,0.0,0.0,0.0,0.0,0.0,0.0,0.0,0.0,0.0,0.0,0.0,0.0,0.0,0.0,0.0,0.0,0.0,0.0,0.0,0.0,0.0,0.0,0.0,0.0,0.0,0.0,0.0,0.0,0.0,0.0,0.0,0.0,0.0,0.0,0.0,0.0,0.0,0.0,0.0,0.0,0.0,0.0,0.0,0.0,0.0,0.0,0.0,0.0,0.0,0.0,0.0,0.0,0.0,0.0,0.0,0.0,0.0,0.0,0.0,0.0,0.0,0.0,0.0,0.0,0.0,0.0,0.0,0.0,0.0,0.0,0.0,0.0,0.0,0.0,0.0,0.0,0.0,0.0,0.0,0.0,0.0,0.0,0.0,0.0,0.0,0.0,0.0,0.0,0.0,0.0,0.0,0.0,0.0,0.0,0.0,0.0,0.0,0.0,0.0,0.0,0.0,0.0,0.0,0.0,0.0,0.0,0.0,0.0,0.0,0.0,0.0,0.0,0.0,0.0,0.0,0.0,0.0,0.0,0.0,0.0,0.0,0.0,0.0,0.0,0.0,0.0,0.0,0.0,0.0,0.0,0.0,0.0,0.0,0.0,0.0,0.0,0.0,0.0,0.0,0.0,0.0,0.0,0.0,0.0,0.0,0.0,0.0,0.0,0.0,0.0,0.0,0.0,0.0,0.0,0.0,0.0,0.0,0.0,0.0,0.0,0.0,0.0,0.0,0.0,0.0,0.0,0.0,0.0,0.0,0.0,0.0,0.0,0.0,0.0,0.0,0.0,0.0,0.0,0.0,0.0,0.0,0.0,0.0,0.0,0.0,0.0,0.0,0.0,0.0,0.0,0.0,0.0,0.0,0.0,0.0,0.0,0.0,0.0,0.0,0.0,0.0,0.0,0.0,0.0,0.0,0.0,0.0,0.0,0.0,0.0,0.0,0.0,0.0,0.0,0.0,0.0,0.0,0.0,0.0,0.0,0.0,0.0,0.0,0.0,0.0,0.0,0.0,0.0,0.0,0.0,0.0,0.0,0.0,0.0,0.0,0.0,0.0,0.0,0.0,0.0,0.0,0.0,0.0,0.0,0.0,0.0,0.0,0.0,0.0,0.0,0.0,0.0,0.0,0.0,0.0,0.0,0.0,0.0,0.0,0.0,0.0,0.0,0.0,0.0,0.0,0.0,0.0,0.0,0.0,0.0,0.0,0.0,0.0,0.0,0.0,0.0,0.0,0.0,0.0,0.0,0.0,0.0,0.0,0.0,0.0,0.0,0.0,0.0,0.0,0.0,0.0,0.0,0.0,0.0,0.0,0.0,0.0,0.0,0.0,0.0,0.0,0.0,0.0,0.0,0.0,0.0,0.0,0.0,0.0,0.0,0.0,0.0,0.0,0.0,0.0,0.0,0.0,0.0,0.0,0.0,0.0,0.0,0.0,0.0,0.0,0.0,0.0,0.0,0.0,0.0,0.0,0.0,0.0,0.0,0.0,0.0,0.0,0.0,0.0,0.0,0.0,0.0,0.0,0.0,0.0,0.0,0.0,0.0,0.0,0.0,0.0,0.0,0.0,0.0,0.0,0.0,0.0,0.0,0.0,0.0,0.0,0.0,0.0,0.0,0.0,0.0,0.0,0.0,0.0,0.0,0.0,0.0,0.0,0.0,0.0,0.0,0.0,0.0,0.0,0.0,0.0,0.0,0.0,0.0,0.0,0.0,0.0,0.0,0.0,0.0,0.0,0.0,0.0,0.0,0.0,0.0,0.0,0.0,0.0,0.0,0.0,0.0,0.0,0.0,0.0,0.0,0.0,0.0,0.0,0.0,0.0,0.0,0.0,0.0,0.0,0.0,0.0,0.0,0.0,0.0,0.0,0.0,0.0,0.0,0.0,0.0,0.0,0.0,0.0,0.0,0.0,0.0,0.0,0.0,0.0,0.0,0.0,0.0,0.0,0.0,0.0,0.0,0.0,0.0,0.0,0.0,0.0,0.0,0.0,0.0,0.0,0.0,0.0,0.0,0.0,0.0,0.0,0.0,0.0,0.0,0.0,0.0,0.0,0.0,0.0,0.0,0.0,0.0,0.0,0.0,0.0,0.0,0.0,0.0,0.0,0.0,0.0,0.0,0.0,0.0,0.0,0.0,0.0,0.0,0.0,0.0,0.0,0.0,0.0,0.0,0.0,0.0,0.0,0.0,0.0,0.0,0.0,0.0,0.0,0.0,0.0,0.0,0.0,0.0,0.0,0.0,0.0,0.0,0.0,0.0,0.0,0.0,0.0,0.0,0.0,0.0,0.0,0.0,0.0,0.0,0.0,0.0,0.0,0.0,0.0,0.0,0.0,0.0,0.0,0.0,0.0,0.0,0.0,0.0,0.0,0.0,0.0,0.0,0.0,0.0,0.0,0.0,0.0,0.0,0.0,0.0,0.0,0.0,0.0,0.0,0.0,0.0,0.0,0.0,0.0,0.0,0.0,0.0,0.0,0.0,0.0,0.0,0.0,0.0,0.0,0.0,0.0,0.0,0.0,0.0,0.0,0.0,0.0,0.0,0.0,0.0,0.0,0.0,0.0,0.0,0.0,0.0,0.0,0.0,0.0,0.0,0.0,0.0,0.0,0.0,0.0,0.0,0.0,0.0,0.0,0.0,0.0,0.0,0.0,0.0,0.0,0.0,0.0,0.0,0.0,0.0,0.0,0.0,0.0,0.0,0.0,0.0,0.0,0.0,0.0,0.0,0.0,0.0,0.0,0.0,0.0,0.0,0.0,0.0,0.0,0.0,0.0,0.0,0.0,0.0,0.0,0.0,0.0,0.0,0.0,0.0,0.0,0.0,0.0,0.0,0.0,0.0,0.0,0.0,0.0,0.0,0.0,0.0,0.0,0.0,0.0,0.0,0.0,0.0,0.0,0.0,0.0,0.0,0.0,0.0,0.0,0.0,0.0,0.0,0.0,0.0,0.0,0.0,0.0,0.0,0.0,0.0,0.0,0.0,0.0,0.0,0.0,0.0,0.0,0.0,0.0,0.0,-2.7098,0.0,0.0,0.0,0.0,0.0,0.0,0.0,0.0,0.0,0.0,0.0,0.0,0.0,0.0,0.0,0.0,0.0,0.0,0.0,0.0,0.0,0.0,0.0,0.0,0.0,0.0,0.0,0.0,0.0,0.0,0.0,0.0,0.0,0.0,0.0,0.0,0.0,0.0,0.0,0.0,0.0,0.0,0.0,0.0,0.0,0.0,0.0,0.0,0.0,0.0,0.0,0.0,0.0,0.0,0.0,0.0,0.0,0.0,0.0,0.0,0.0,0.0,0.0,0.0,0.0,0.0,0.0,0.0,0.0,0.0,0.0,0.0,0.0,0.0,0.0,0.0,0.0,0.0,0.0,0.0,0.0,0.0,0.0,0.0,0.0,0.0,0.0,0.0,0.0,0.0,0.0,0.0,0.0,0.0,0.0,0.0,0.0,0.0,0.0,0.0,0.0,0.0,0.0,0.0,0.0,0.0,0.0,0.0,0.0,0.0,-2.7306,-2.6921,-2.7013,-2.7012,-2.6809,0.0,0.0,0.0,0.0,0.0,0.0,0.0,0.0,0.0,0.0,0.0,0.0,0.0,0.0,0.0,0.0,0.0,0.0,0.0,0.0,0.0,0.0,0.0,0.0,0.0,0.0,0.0,0.0,0.0,0.0,0.0,0.0,0.0,0.0,0.0,0.0,0.0,0.0,0.0,0.0,0.0,0.0,0.0,0.0,0.0,0.0,0.0,0.0,0.0,0.0,0.0,0.0,0.0,0.0,0.0,0.0,0.0,0.0,0.0,0.0,0.0,0.0,0.0,0.0,0.0,0.0,0.0,0.0,0.0,0.0,0.0,0.0,0.0,0.0,0.0,0.0,0.0,0.0,0.0,0.0,0.0,0.0,0.0,0.0,0.0,0.0,0.0,0.0,0.0,0.0,0.0,0.0,0.0,0.0,0.0,0.0,0.0,0.0,0.0,0.0,0.0,0.0,0.0,0.0,0.0,0.0,0.0,0.0,0.0,0.0,0.0,0.0,-2.7233,-2.6995,-2.6719,0.0,0.0,0.0,0.0,0.0,0.0,0.0,0.0,0.0,0.0,0.0,0.0,0.0,0.0,0.0,0.0,0.0,0.0,0.0,0.0,0.0,0.0,0.0,0.0,0.0,0.0,0.0,0.0,0.0,0.0,0.0,0.0,0.0,0.0,0.0,0.0,0.0,0.0,0.0,0.0,0.0,0.0,0.0,0.0,0.0,0.0,0.0,0.0,0.0,0.0,0.0,0.0,0.0,0.0,0.0,0.0,0.0,0.0,0.0,0.0,0.0,0.0,0.0,0.0,0.0,0.0,0.0,0.0,0.0,0.0,0.0,0.0,0.0,0.0,0.0,0.0,0.0,0.0,0.0,0.0,0.0,0.0,0.0,0.0,0.0,0.0,0.0,0.0,0.0,0.0,0.0,0.0,0.0,0.0,0.0,0.0,0.0,0.0,0.0,0.0,0.0,0.0,0.0,0.0,0.0,0.0,0.0,0.0,0.0,0.0,-2.8132,-2.7728,-2.7361,0.0,-2.6737,0.0,0.0,0.0,0.0,0.0,0.0,0.0,0.0,0.0,0.0,0.0,0.0,0.0,0.0,0.0,0.0,0.0,0.0,0.0,0.0,0.0,0.0,0.0,0.0,0.0,0.0,0.0,0.0,0.0,0.0,0.0,0.0,0.0,0.0,0.0,0.0,0.0,0.0,0.0,0.0,0.0,0.0,0.0,0.0,0.0,0.0,0.0,0.0,0.0,0.0,0.0,0.0,0.0,0.0,0.0,0.0,0.0,0.0,0.0,0.0,0.0,0.0,0.0,0.0,0.0,0.0,0.0,0.0,0.0,0.0,0.0,0.0,0.0,0.0,0.0,0.0,0.0,0.0,0.0,0.0,0.0,0.0,0.0,0.0,0.0,0.0,0.0,0.0,0.0,0.0,0.0,0.0,0.0,0.0,0.0,0.0,0.0,0.0,0.0,0.0,0.0,0.0,0.0,0.0,0.0,0.0,0.0,0.0,0.0,0.0,-2.8425,-2.7783,-2.716,-2.6866,0.0,0.0,0.0,0.0,0.0,0.0,0.0,0.0,0.0,0.0,0.0,0.0,0.0,0.0,0.0,0.0,0.0,0.0,0.0,0.0,0.0,0.0,0.0,0.0,0.0,0.0,0.0,0.0,0.0,0.0,0.0,0.0,0.0,0.0,0.0,0.0,0.0,0.0,0.0,0.0,0.0,0.0,0.0,0.0,0.0,0.0,0.0,0.0,0.0,0.0,0.0,0.0,0.0,0.0,0.0,0.0,0.0,0.0,0.0,0.0,0.0,0.0,0.0,0.0,0.0,0.0,0.0,0.0,0.0,0.0,0.0,0.0,0.0,0.0,0.0,0.0,0.0,0.0,0.0,0.0,0.0,0.0,0.0,0.0,0.0,0.0,0.0,0.0,0.0,0.0,0.0,0.0,0.0,0.0,0.0,0.0,0.0,0.0,0.0,0.0,0.0,0.0,0.0,0.0,0.0,0.0,0.0,0.0,0.0,0.0,-2.8975,-2.8645,-2.7967,-2.727,-2.6995,-2.716,0.0,0.0,0.0,0.0,0.0,0.0,0.0,0.0,0.0,0.0,0.0,0.0,0.0,0.0,0.0,0.0,0.0,0.0,0.0,0.0,0.0,0.0,0.0,0.0,0.0,0.0,0.0,0.0,0.0,0.0,0.0,0.0,0.0,0.0,0.0,0.0,0.0,0.0,0.0,0.0,0.0,0.0,0.0,0.0,0.0,0.0,0.0,0.0,0.0,0.0,0.0,0.0,0.0,0.0,0.0,0.0,0.0,0.0,0.0,0.0,0.0,0.0,0.0,0.0,0.0,0.0,0.0,0.0,0.0,0.0,0.0,0.0,0.0,0.0,0.0,0.0,0.0,0.0,0.0,0.0,0.0,0.0,0.0,0.0,0.0,0.0,0.0,0.0,0.0,0.0,0.0,0.0,0.0,0.0,0.0,0.0,0.0,0.0,0.0,0.0,0.0,0.0,0.0,0.0,0.0,0.0,0.0,0.0,-2.8975,-2.8975,-2.8792,-2.837,-2.7948,-2.7545,0.0,0.0,0.0,0.0,0.0,0.0,0.0,0.0,0.0,0.0,0.0,0.0,0.0,0.0,0.0,0.0,0.0,0.0,0.0,0.0,0.0,0.0,0.0,0.0,0.0,0.0,0.0,0.0,0.0,0.0,0.0,0.0,0.0,0.0,0.0,0.0,0.0,0.0,0.0,0.0,0.0,0.0,0.0,0.0,0.0,0.0,0.0,0.0,0.0,0.0,0.0,0.0,0.0,0.0,0.0,0.0,0.0,0.0,0.0,0.0,0.0,0.0,0.0,0.0,0.0,0.0,0.0,0.0,0.0,0.0,0.0,0.0,0.0,0.0,0.0,0.0,0.0,0.0,0.0,0.0,0.0,0.0,0.0,0.0,0.0,0.0,0.0,0.0,0.0,0.0,0.0,0.0,0.0,0.0,0.0,0.0,0.0,0.0,0.0,0.0,0.0,0.0,0.0,0.0,0.0,0.0,0.0,0.0,0.0,-2.8975,-2.8737,-2.8535,-2.8388,-2.7985,-2.7581,0.0,0.0,0.0,0.0,0.0,0.0,0.0,0.0,0.0,0.0,0.0,0.0,0.0,0.0,0.0,0.0,0.0,0.0,0.0,0.0,0.0,0.0,0.0,0.0,0.0,0.0,0.0,0.0,0.0,0.0,0.0,0.0,0.0,0.0,0.0,0.0,0.0,0.0,0.0,0.0,0.0,0.0,0.0,0.0,0.0,0.0,0.0,0.0,0.0,0.0,0.0,0.0,0.0,0.0,0.0,0.0,0.0,0.0,0.0,0.0,0.0,0.0,0.0,0.0,0.0,0.0,0.0,0.0,0.0,0.0,0.0,0.0,0.0,0.0,0.0,0.0,0.0,0.0,0.0,0.0,0.0,0.0,0.0,0.0,0.0,0.0,0.0,0.0,0.0,0.0,0.0,0.0,0.0,0.0,0.0,0.0,0.0,0.0,0.0,0.0,0.0,0.0,0.0,0.0,0.0,0.0,0.0,0.0,0.0,-2.9213,0.0,-2.8806,-2.8806,-2.8284,-2.7879,0.0,0.0,0.0,0.0,0.0,0.0,0.0,0.0,0.0,0.0,0.0,0.0,0.0,0.0,0.0,0.0,0.0,0.0,0.0,0.0,0.0,0.0,0.0,0.0,0.0,0.0,0.0,0.0,0.0,0.0,0.0,0.0,0.0,0.0,0.0,0.0,0.0,0.0,0.0,0.0,0.0,0.0,0.0,0.0,0.0,0.0,0.0,0.0,0.0,0.0,0.0,0.0,0.0,0.0,0.0,0.0,0.0,0.0,0.0,0.0,0.0,0.0,0.0,0.0,0.0,0.0,0.0,0.0,0.0,0.0,0.0,0.0,0.0,0.0,0.0,0.0,0.0,0.0,0.0,0.0,0.0,0.0,0.0,0.0,0.0,0.0,0.0,0.0,0.0,0.0,0.0,0.0,0.0,0.0,0.0,0.0,0.0,0.0,0.0,0.0,0.0,0.0,0.0,0.0,0.0,0.0,0.0,0.0,-2.9213,-2.945,-2.9686,-2.9648,-2.9549,-2.9021,-2.8514,0.0,0.0,0.0,0.0,0.0,0.0,0.0,0.0,0.0,0.0,0.0,0.0,0.0,0.0,0.0,0.0,0.0,0.0,0.0,0.0,0.0,0.0,0.0,0.0,0.0,0.0,0.0,0.0,0.0,0.0,0.0,0.0,0.0,0.0,0.0,0.0,0.0,0.0,0.0,0.0,0.0,0.0,0.0,0.0,0.0,0.0,0.0,0.0,0.0,0.0,0.0,0.0,0.0,0.0,0.0,0.0,0.0,0.0,0.0,0.0,0.0,0.0,0.0,0.0,0.0,0.0,0.0,0.0,0.0,0.0,0.0,0.0,0.0,0.0,0.0,0.0,0.0,0.0,0.0,0.0,0.0,0.0,0.0,0.0,0.0,0.0,0.0,0.0,0.0,0.0,0.0,0.0,0.0,0.0,0.0,0.0,0.0,0.0,0.0,0.0,0.0,0.0,0.0,0.0,0.0,0.0,0.0,0.0,0.0,-2.9213,-2.945,-2.9418,-2.904,-2.8935,-2.8566,0.0,0.0,0.0,0.0,0.0,0.0,0.0,0.0,0.0,0.0,0.0,0.0,0.0,0.0,0.0,0.0,0.0,0.0,0.0,0.0,0.0,0.0,0.0,0.0,0.0,0.0,0.0,0.0,0.0,0.0,0.0,0.0,0.0,0.0,0.0,0.0,0.0,0.0,0.0,0.0,0.0,0.0,0.0,0.0,0.0,0.0,0.0,0.0,0.0,0.0,0.0,0.0,0.0,0.0,0.0,0.0,0.0,0.0,0.0,0.0,0.0,0.0,0.0,0.0,0.0,0.0,0.0,0.0,0.0,0.0,0.0,0.0,0.0,0.0,0.0,0.0,0.0,0.0,0.0,0.0,0.0,0.0,0.0,0.0,0.0,0.0,0.0,0.0,0.0,0.0,0.0,0.0,0.0,0.0,0.0,0.0,0.0,0.0,0.0,0.0,0.0,0.0,0.0,0.0,0.0,0.0,0.0,0.0,0.0,-3.0934,-3.1427,-3.1661,-3.1392,-3.1294,-3.0313,-2.8145,0.0,0.0,0.0,0.0,0.0,0.0,0.0,0.0,0.0,0.0,0.0,0.0,0.0,0.0,0.0,0.0,0.0,0.0,0.0,0.0,0.0,0.0,0.0,0.0,0.0,0.0,0.0,0.0,0.0,0.0,0.0,0.0,0.0,0.0,0.0,0.0,0.0,0.0,0.0,0.0,0.0,0.0,0.0,0.0,0.0,0.0,0.0,0.0,0.0,0.0,0.0,0.0,0.0,0.0,0.0,0.0,0.0,0.0,0.0,0.0,0.0,0.0,0.0,0.0,0.0,0.0,0.0,0.0,0.0,0.0,0.0,0.0,0.0,0.0,0.0,0.0,0.0,0.0,0.0,0.0,0.0,0.0,0.0,0.0,0.0,0.0,0.0,0.0,0.0,0.0,0.0,0.0,0.0,0.0,0.0,0.0,0.0,0.0,0.0,0.0,0.0,0.0,0.0,0.0,0.0,0.0,0.0,0.0,-3.4373,-3.5567,-3.6093,-3.5801,-3.5381,-3.3214,0.0,0.0,0.0,0.0,0.0,0.0,0.0,0.0,0.0,0.0,0.0,0.0,0.0,0.0,0.0,0.0,0.0,0.0,0.0,0.0,0.0,0.0,0.0,0.0,0.0,0.0,0.0,0.0,0.0,0.0,0.0,0.0,0.0,0.0,0.0,0.0,0.0,0.0,0.0,0.0,0.0,0.0,0.0,0.0,0.0,0.0,0.0,0.0,0.0,0.0,0.0,0.0,0.0,0.0,0.0,0.0,0.0,0.0,0.0,0.0,0.0,0.0,0.0,0.0,0.0,0.0,0.0,0.0,0.0,0.0,0.0,0.0,0.0,0.0,0.0,0.0,0.0,0.0,0.0,0.0,0.0,0.0,0.0,0.0,0.0,0.0,0.0,0.0,0.0,0.0,0.0,0.0,0.0,0.0,0.0,0.0,0.0,0.0,0.0,0.0,0.0,0.0,0.0,0.0,0.0,0.0,0.0,0.0,0.0,-3.8608,-4.1439,-4.1521,-3.8989,-3.6356,-3.4309,0.0,0.0,0.0,0.0,0.0,0.0,0.0,0.0,0.0,0.0,0.0,0.0,0.0,0.0,0.0,0.0,0.0,0.0,0.0,0.0,0.0,0.0,0.0,0.0,0.0,0.0,0.0,0.0,0.0,0.0,0.0,0.0,0.0,0.0,0.0,0.0,0.0,0.0,0.0,0.0,0.0,0.0,0.0,0.0,0.0,0.0,0.0,0.0,0.0,0.0,0.0,0.0,0.0,0.0,0.0,0.0,0.0,0.0,0.0,0.0,0.0,0.0,0.0,0.0,0.0,0.0,0.0,0.0,0.0,0.0,0.0,0.0,0.0,0.0,0.0,0.0,0.0,0.0,0.0,0.0,0.0,0.0,0.0,0.0,0.0,0.0,0.0,0.0,0.0,0.0,0.0,0.0,0.0,0.0,0.0,0.0,0.0,0.0,0.0,0.0,0.0,0.0,0.0,0.0,0.0,0.0,0.0,0.0,-3.7134,-3.9838,-4.4619,-4.6363,-4.4473,-3.98,-3.6489,0.0,0.0,0.0,0.0,0.0,0.0,0.0,0.0,0.0,0.0,0.0,0.0,0.0,0.0,0.0,0.0,0.0,0.0,0.0,0.0,0.0,0.0,0.0,0.0,0.0,0.0,0.0,0.0,0.0,0.0,0.0,0.0,0.0,0.0,0.0,0.0,0.0,0.0,0.0,0.0,0.0,0.0,0.0,0.0,0.0,0.0,0.0,0.0,0.0,0.0,0.0,0.0,0.0,0.0,0.0,0.0,0.0,0.0,0.0,0.0,0.0,0.0,0.0,0.0,0.0,0.0,0.0,0.0,0.0,0.0,0.0,0.0,0.0,0.0,0.0,0.0,0.0,0.0,0.0,0.0,0.0,0.0,0.0,0.0,0.0,0.0,0.0,0.0,0.0,0.0,0.0,0.0,0.0,0.0,0.0,0.0,0.0,0.0,0.0,0.0,0.0,0.0,0.0,0.0,0.0,0.0,0.0,0.0,-3.8714,-3.9719,-4.6274,-4.9975,-5.0209,-4.4196,-3.9306,0.0,0.0,0.0,0.0,0.0,0.0,0.0,0.0,0.0,0.0,0.0,0.0,0.0,0.0,0.0,0.0,0.0,0.0,0.0,0.0,0.0,0.0,0.0,0.0,0.0,0.0,0.0,0.0,0.0,0.0,0.0,0.0,0.0,0.0,0.0,0.0,0.0,0.0,0.0,0.0,0.0,0.0,0.0,0.0,0.0,0.0,0.0,0.0,0.0,0.0,0.0,0.0,0.0,0.0,0.0,0.0,0.0,0.0,0.0,0.0,0.0,0.0,0.0,0.0,0.0,0.0,0.0,0.0,0.0,0.0,0.0,0.0,0.0,0.0,0.0,0.0,0.0,0.0,0.0,0.0,0.0,0.0,0.0,0.0,0.0,0.0,0.0,0.0,0.0,0.0,0.0,0.0,0.0,0.0,0.0,0.0,0.0,0.0,0.0,0.0,0.0,0.0,0.0,0.0,0.0,0.0,0.0,0.0,-4.0344,-4.3453,-4.7895,-5.0484,-5.0886,-4.45,-4.0451,0.0,0.0,0.0,0.0,0.0,0.0,0.0,0.0,0.0,0.0,0.0,0.0,0.0,0.0,0.0,0.0,0.0,0.0,0.0,0.0,0.0,0.0,0.0,0.0,0.0,0.0,0.0,0.0,0.0,0.0,0.0,0.0,0.0,0.0,0.0,0.0,0.0,0.0,0.0,0.0,0.0,0.0,0.0,0.0,0.0,0.0,0.0,0.0,-4.7537,0.0,0.0,0.0,0.0,0.0,0.0,0.0,0.0,0.0,0.0,0.0,0.0,0.0,0.0,0.0,0.0,0.0,0.0,0.0,0.0,0.0,0.0,0.0,0.0,0.0,0.0,0.0,0.0,0.0,0.0,0.0,0.0,0.0,0.0,0.0,0.0,0.0,0.0,0.0,0.0,0.0,0.0,0.0,0.0,0.0,0.0,0.0,0.0,0.0,0.0,0.0,0.0,0.0,0.0,0.0,0.0,0.0,0.0,0.0,-4.0853,-4.4605,-4.8294,-5.0231,-5.0589,-4.5919,-4.2627,0.0,0.0,0.0,0.0,0.0,0.0,0.0,0.0,0.0,0.0,0.0,0.0,0.0,0.0,0.0,0.0,0.0,0.0,0.0,0.0,0.0,0.0,0.0,0.0,0.0,0.0,0.0,0.0,0.0,0.0,0.0,0.0,0.0,0.0,0.0,0.0,0.0,0.0,0.0,0.0,0.0,0.0,0.0,0.0,0.0,0.0,0.0,0.0,0.0,0.0,0.0,0.0,0.0,0.0,0.0,0.0,0.0,0.0,0.0,0.0,0.0,0.0,0.0,0.0,0.0,0.0,0.0,0.0,0.0,0.0,0.0,0.0,0.0,0.0,0.0,0.0,0.0,0.0,0.0,0.0,0.0,0.0,0.0,0.0,0.0,0.0,0.0,0.0,0.0,0.0,0.0,0.0,0.0,0.0,0.0,0.0,0.0,0.0,0.0,0.0,0.0,0.0,0.0,0.0,0.0,0.0,0.0,-3.7724,-4.1053,-4.5339,-4.8358,-5.0082,-5.0527,-4.7698,-4.489,-4.2082,0.0,0.0,0.0,0.0,0.0,0.0,0.0,0.0,0.0,0.0,0.0,0.0,0.0,0.0,0.0,0.0,0.0,0.0,0.0,0.0,0.0,0.0,0.0,0.0,0.0,0.0,0.0,0.0,0.0,0.0,0.0,0.0,0.0,0.0,0.0,0.0,0.0,0.0,-4.2171,-4.2363,0.0,0.0,0.0,0.0,0.0,0.0,0.0,0.0,-4.698,0.0,0.0,0.0,0.0,0.0,0.0,0.0,0.0,0.0,0.0,0.0,0.0,0.0,0.0,0.0,0.0,0.0,0.0,0.0,0.0,0.0,0.0,0.0,0.0,0.0,0.0,0.0,0.0,0.0,0.0,0.0,0.0,0.0,0.0,0.0,0.0,0.0,0.0,0.0,0.0,0.0,0.0,0.0,0.0,0.0,0.0,0.0,0.0,0.0,0.0,0.0,0.0,0.0,0.0,0.0,0.0,-3.8117,-3.8774,-4.2221,-4.8735,-4.9829,-5.0569,-5.0843,-4.8497,-4.5834,-4.2948,0.0,0.0,0.0,0.0,0.0,0.0,0.0,0.0,0.0,0.0,0.0,0.0,0.0,0.0,0.0,0.0,0.0,0.0,0.0,0.0,0.0,0.0,0.0,0.0,0.0,0.0,0.0,0.0,0.0,0.0,0.0,0.0,0.0,0.0,0.0,0.0,0.0,0.0,0.0,-4.3286,-4.3214,0.0,0.0,0.0,0.0,0.0,0.0,0.0,0.0,-4.89,0.0,0.0,0.0,0.0,0.0,0.0,0.0,0.0,0.0,0.0,0.0,0.0,0.0,0.0,0.0,0.0,0.0,0.0,0.0,0.0,0.0,0.0,0.0,0.0,0.0,0.0,0.0,0.0,0.0,0.0,0.0,0.0,0.0,0.0,0.0,0.0,0.0,0.0,0.0,0.0,0.0,0.0,0.0,0.0,0.0,0.0,0.0,0.0,0.0,0.0,0.0,0.0,0.0,0.0,0.0,-3.9122,-4.1062,-4.4625,-4.9892,-5.0061,-5.0422,-5.1032,-4.8497,-4.5813,0.0,0.0,0.0,0.0,0.0,0.0,0.0,0.0,0.0,0.0,0.0,0.0,0.0,0.0,0.0,0.0,0.0,0.0,0.0,0.0,0.0,0.0,0.0,0.0,0.0,0.0,0.0,0.0,0.0,0.0,0.0,0.0,0.0,0.0,0.0,0.0,0.0,0.0,0.0,0.0,-4.5015,-4.5641,-4.8353,0.0,0.0,0.0,0.0,0.0,0.0,-4.9337,-4.9116,0.0,0.0,0.0,0.0,0.0,0.0,0.0,0.0,0.0,0.0,0.0,0.0,0.0,0.0,0.0,0.0,0.0,0.0,0.0,0.0,0.0,0.0,0.0,0.0,0.0,0.0,0.0,0.0,0.0,0.0,0.0,0.0,0.0,0.0,0.0,0.0,0.0,0.0,0.0,0.0,0.0,0.0,0.0,0.0,0.0,0.0,0.0,0.0,0.0,0.0,0.0,0.0,0.0,0.0,0.0,-3.955,-4.3096,-4.6587,-5.0251,-5.0061,-5.0422,-5.1201,-4.7934,-4.5227,0.0,0.0,0.0,0.0,0.0,0.0,0.0,0.0,0.0,0.0,0.0,0.0,0.0,0.0,0.0,0.0,0.0,0.0,0.0,0.0,0.0,0.0,0.0,0.0,0.0,0.0,0.0,0.0,0.0,0.0,0.0,0.0,0.0,0.0,0.0,0.0,0.0,0.0,0.0,0.0,0.0,-4.7916,-5.0299,-4.9149,0.0,0.0,0.0,0.0,-4.9141,-5.001,0.0,0.0,0.0,0.0,0.0,0.0,0.0,0.0,0.0,0.0,0.0,0.0,0.0,0.0,0.0,0.0,0.0,0.0,0.0,0.0,0.0,0.0,0.0,0.0,0.0,0.0,0.0,0.0,0.0,0.0,0.0,0.0,0.0,0.0,0.0,0.0,0.0,0.0,0.0,0.0,0.0,0.0,0.0,0.0,0.0,0.0,0.0,0.0,0.0,0.0,0.0,0.0,0.0,0.0,0.0,0.0,-3.9116,-4.3228,-4.6909,-5.023,-5.076,-5.1119,-5.1558,-4.6526,-4.3512,0.0,0.0,0.0,0.0,0.0,0.0,0.0,0.0,0.0,0.0,0.0,0.0,0.0,0.0,0.0,0.0,0.0,0.0,0.0,0.0,0.0,0.0,0.0,0.0,0.0,0.0,0.0,0.0,0.0,0.0,0.0,0.0,0.0,0.0,0.0,0.0,0.0,0.0,0.0,0.0,0.0,-4.7619,-4.9764,-4.8809,-4.7715,0.0,0.0,-5.2788,-5.2788,-5.553,0.0,0.0,0.0,0.0,0.0,0.0,0.0,0.0,0.0,0.0,0.0,0.0,0.0,0.0,0.0,0.0,0.0,0.0,0.0,0.0,0.0,0.0,0.0,0.0,0.0,0.0,0.0,0.0,0.0,0.0,0.0,0.0,0.0,0.0,0.0,0.0,0.0,0.0,0.0,0.0,0.0,0.0,0.0,0.0,0.0,0.0,0.0,0.0,0.0,0.0,0.0,0.0,0.0,0.0,0.0,-3.8267,-3.9215,-4.5378,-4.9294,-5.0741,-5.1337,-5.1806,-5.2577,-4.7025,-4.3837,0.0,0.0,0.0,0.0,0.0,0.0,0.0,0.0,0.0,0.0,0.0,0.0,0.0,0.0,0.0,0.0,0.0,0.0,0.0,0.0,0.0,0.0,0.0,0.0,0.0,0.0,0.0,0.0,0.0,0.0,0.0,0.0,0.0,0.0,0.0,0.0,0.0,0.0,0.0,0.0,0.0,0.0,-5.0147,-5.0184,0.0,0.0,0.0,-5.261,-5.1131,0.0,0.0,0.0,0.0,0.0,0.0,0.0,0.0,0.0,0.0,0.0,0.0,0.0,0.0,0.0,0.0,0.0,0.0,0.0,0.0,0.0,0.0,0.0,0.0,0.0,0.0,0.0,0.0,0.0,0.0,0.0,0.0,0.0,0.0,0.0,0.0,0.0,0.0,0.0,0.0,0.0,0.0,0.0,0.0,0.0,0.0,0.0,0.0,0.0,0.0,0.0,0.0,0.0,0.0,0.0,0.0,0.0,-3.9394,-4.7343,-5.1466,-5.1251,-5.1831,-5.2519,-5.3101,-4.8388,0.0,0.0,0.0,0.0,0.0,0.0,0.0,0.0,0.0,0.0,0.0,0.0,0.0,0.0,0.0,0.0,0.0,0.0,0.0,0.0,0.0,0.0,0.0,0.0,0.0,0.0,0.0,-3.6574,0.0,0.0,0.0,0.0,0.0,0.0,0.0,0.0,0.0,0.0,0.0,0.0,0.0,0.0,-5.1101,-5.0455,-5.1254,-5.2107,0.0,0.0,-5.2917,-5.195,-5.6968,-5.8668,0.0,0.0,0.0,0.0,0.0,0.0,0.0,0.0,0.0,0.0,0.0,0.0,0.0,0.0,0.0,0.0,0.0,0.0,0.0,0.0,0.0,0.0,0.0,0.0,0.0,0.0,0.0,0.0,0.0,0.0,0.0,0.0,0.0,0.0,0.0,0.0,0.0,0.0,0.0,0.0,0.0,0.0,0.0,0.0,0.0,0.0,0.0,0.0,0.0,0.0,0.0,0.0,0.0,0.0,0.0,-3.9929,-4.8143,-5.2261,-5.1762,-5.265,-5.3189,-5.3167,-5.0196,-4.7355,0.0,0.0,0.0,0.0,0.0,0.0,0.0,0.0,0.0,0.0,0.0,0.0,0.0,0.0,0.0,0.0,0.0,0.0,0.0,0.0,0.0,0.0,0.0,0.0,0.0,0.0,0.0,0.0,0.0,0.0,0.0,0.0,0.0,0.0,0.0,0.0,0.0,0.0,0.0,0.0,0.0,-5.0948,-5.0382,-5.1355,-5.3099,0.0,0.0,-5.542,-5.8912,-6.2498,-6.2763,-5.5969,0.0,0.0,0.0,0.0,0.0,0.0,0.0,0.0,0.0,0.0,0.0,0.0,0.0,0.0,0.0,0.0,0.0,0.0,0.0,0.0,0.0,0.0,0.0,0.0,0.0,0.0,0.0,0.0,0.0,0.0,0.0,0.0,0.0,0.0,0.0,0.0,0.0,0.0,0.0,0.0,0.0,0.0,0.0,0.0,0.0,0.0,0.0,0.0,0.0,0.0,0.0,0.0,0.0,-4.0817,-4.0605,-4.8392,-5.2497,-5.223,-5.3147,-5.38,-5.4106,-5.1334,-4.8366,0.0,0.0,0.0,0.0,0.0,0.0,0.0,0.0,0.0,0.0,0.0,0.0,0.0,0.0,0.0,0.0,0.0,0.0,0.0,0.0,0.0,0.0,0.0,0.0,0.0,0.0,0.0,0.0,-3.9994,-4.0049,-3.9258,0.0,0.0,0.0,0.0,0.0,0.0,0.0,0.0,0.0,0.0,-5.1707,-5.3015,-5.403,0.0,0.0,-5.6669,-5.6646,-5.6716,-5.9795,-5.9891,-5.2913,-5.1933,0.0,0.0,0.0,0.0,0.0,0.0,0.0,0.0,0.0,0.0,0.0,0.0,0.0,0.0,0.0,0.0,0.0,0.0,0.0,0.0,0.0,0.0,0.0,0.0,0.0,0.0,0.0,0.0,0.0,0.0,0.0,0.0,0.0,0.0,0.0,0.0,0.0,0.0,0.0,0.0,0.0,0.0,0.0,0.0,0.0,0.0,0.0,0.0,0.0,0.0,0.0,0.0,-4.1436,-4.1501,-4.9043,-5.2725,-5.2187,-5.3073,-5.3598,-5.4034,-5.2167,-4.9839,0.0,0.0,0.0,0.0,0.0,0.0,0.0,0.0,0.0,0.0,0.0,0.0,0.0,0.0,0.0,0.0,0.0,0.0,0.0,0.0,0.0,0.0,0.0,0.0,0.0,0.0,0.0,0.0,-3.979,-3.9685,-3.8412,0.0,0.0,0.0,0.0,0.0,0.0,0.0,0.0,0.0,0.0,-5.259,-5.395,-5.4488,-5.4911,-5.5525,-5.5407,-5.5119,-5.4667,-5.6854,-5.7119,-5.2486,0.0,0.0,0.0,0.0,0.0,0.0,0.0,0.0,0.0,0.0,0.0,0.0,0.0,0.0,0.0,0.0,0.0,0.0,0.0,0.0,0.0,0.0,0.0,0.0,0.0,0.0,0.0,0.0,0.0,0.0,-3.0736,0.0,0.0,0.0,0.0,0.0,0.0,0.0,0.0,0.0,0.0,0.0,0.0,0.0,0.0,0.0,0.0,0.0,0.0,0.0,0.0,0.0,0.0,-4.3236,-4.2606,-4.9934,-5.3092,-5.1729,-5.2291,-5.2492,-5.2513,-5.2408,-5.1895,-5.0317,0.0,0.0,0.0,0.0,0.0,0.0,0.0,0.0,0.0,0.0,0.0,0.0,0.0,0.0,0.0,0.0,0.0,0.0,0.0,0.0,0.0,0.0,0.0,0.0,0.0,0.0,-3.6106,-3.7338,-3.8409,0.0,0.0,0.0,0.0,0.0,0.0,0.0,0.0,0.0,0.0,-5.0178,-5.3475,-5.2005,-5.18,-5.2306,-5.3264,-5.0887,-5.0164,-5.4173,-5.4946,-5.5347,0.0,0.0,0.0,0.0,0.0,0.0,0.0,0.0,0.0,0.0,0.0,0.0,0.0,0.0,0.0,0.0,0.0,0.0,0.0,0.0,0.0,0.0,0.0,0.0,0.0,0.0,0.0,-3.3651,-3.3395,0.0,0.0,0.0,0.0,0.0,0.0,0.0,0.0,0.0,0.0,0.0,-3.8082,-3.9183,0.0,0.0,0.0,0.0,0.0,0.0,0.0,0.0,0.0,0.0,0.0,0.0,-4.1745,-4.3615,-4.7905,-5.086,-5.2023,-5.1657,-5.1597,-5.1882,-5.2844,-5.2768,-5.1471,0.0,0.0,0.0,0.0,0.0,0.0,0.0,0.0,0.0,0.0,0.0,0.0,0.0,0.0,0.0,0.0,0.0,0.0,0.0,0.0,0.0,0.0,0.0,0.0,0.0,-3.8044,0.0,0.0,0.0,0.0,0.0,0.0,0.0,0.0,0.0,0.0,0.0,-4.3368,-4.6578,-4.78,-4.9235,-5.142,-5.1725,-5.2909,0.0,0.0,0.0,0.0,0.0,0.0,0.0,0.0,0.0,0.0,0.0,0.0,0.0,0.0,-5.6593,-5.2648,-5.5314,-5.8421,-5.8899,0.0,0.0,0.0,0.0,0.0,0.0,0.0,0.0,0.0,0.0,0.0,0.0,0.0,0.0,-3.565,0.0,-3.5504,0.0,0.0,0.0,0.0,0.0,0.0,0.0,0.0,-3.8437,-4.0226,-4.068,-4.1887,-4.2637,0.0,-4.183,-3.8888,0.0,0.0,0.0,0.0,0.0,0.0,0.0,0.0,-4.1343,-4.3192,-4.74,-4.9993,-5.0623,-5.0437,-5.0555,-5.0833,-5.2745,-5.3411,-5.2497,-5.0905,-4.9315,0.0,0.0,0.0,0.0,0.0,0.0,0.0,0.0,0.0,0.0,0.0,0.0,0.0,0.0,0.0,0.0,0.0,0.0,0.0,0.0,0.0,0.0,0.0,-3.8818,0.0,0.0,0.0,0.0,0.0,0.0,0.0,0.0,0.0,-4.0649,-4.2305,-4.463,-4.7757,-4.8331,-4.8665,-4.9633,0.0,0.0,0.0,0.0,0.0,0.0,0.0,-4.9608,-4.9516,-5.0785,-5.3377,-5.7942,-6.093,-6.2736,-6.2847,0.0,0.0,-5.9074,-6.1293,-6.4252,-6.4566,-6.5554,-6.6438,-6.6899,-6.8049,-6.9003,0.0,0.0,0.0,0.0,0.0,0.0,0.0,0.0,-3.875,-3.762,0.0,-3.7877,0.0,0.0,0.0,0.0,0.0,-3.799,0.0,0.0,-4.5033,-4.6571,-4.334,-4.4722,-4.5332,-4.4823,-4.3096,-4.1433,-4.0039,-4.0229,0.0,0.0,0.0,0.0,0.0,0.0,-4.2454,-4.1895,-4.782,-5.0126,-4.8001,-4.8786,-4.9206,-4.9435,-5.2247,-5.3713,-5.3772,-5.3373,-5.2969,-5.24,-4.8816,0.0,0.0,0.0,0.0,0.0,0.0,0.0,0.0,0.0,0.0,0.0,0.0,0.0,0.0,0.0,0.0,0.0,0.0,0.0,0.0,-3.9543,0.0,0.0,0.0,0.0,0.0,0.0,0.0,0.0,0.0,0.0,-4.1549,-4.365,-4.5969,-4.8053,0.0,0.0,0.0,0.0,-4.9307,-4.4552,-4.3296,-4.362,-4.4669,-4.8199,-5.278,-5.8226,0.0,0.0,-6.8241,-6.5688,-6.3689,-6.3407,-6.8569,-7.0967,-6.6104,-6.5794,-6.6173,-6.6368,-6.7429,-6.7622,-6.8128,-7.0239,-7.0729,-3.2161,0.0,0.0,0.0,0.0,-3.4424,-3.6662,-3.9813,-4.0887,-4.0694,-3.9995,-4.051,0.0,0.0,0.0,0.0,0.0,0.0,-3.928,-4.0639,-4.2782,-4.4434,-4.6169,-4.6347,-4.703,-4.8063,-4.6556,-4.5744,-4.5705,-4.497,-4.1876,-3.6495,0.0,0.0,0.0,0.0,-4.2051,-4.4885,-4.6819,-4.8174,-4.9204,-4.8469,-4.8813,-5.0262,-5.1035,-5.255,-5.4633,-5.4315,-5.3866,-5.3492,-5.1685,0.0,0.0,0.0,0.0,0.0,0.0,0.0,0.0,0.0,0.0,0.0,0.0,0.0,0.0,0.0,0.0,0.0,0.0,0.0,-3.9367,-4.0508,-4.0227,0.0,0.0,0.0,0.0,0.0,0.0,0.0,0.0,0.0,-4.4138,-4.3021,-4.2536,0.0,0.0,-4.2651,-4.2271,-4.607,-4.9579,-5.1215,-5.1971,0.0,-5.6097,-5.572,-5.5621,-5.7432,-6.3581,-6.8634,-7.0016,-7.2969,-7.5383,-7.5559,-7.7212,-7.8074,-7.7263,-7.6886,-7.7143,-7.8024,-7.8977,-8.0007,-8.0868,-8.2314,-8.3376,-3.7595,-3.6098,-3.4945,-3.5213,-3.6661,-3.7514,-3.9682,-4.2387,-4.3324,-4.3217,-4.2168,-4.2931,-4.1505,-3.8062,-3.8062,0.0,0.0,0.0,-4.112,-4.3334,-4.3273,-4.451,-4.6498,-4.646,-4.7011,-4.7819,-4.7075,-4.7007,-4.7403,-4.6126,-4.3311,-3.9148,0.0,0.0,-3.9353,-4.0936,-4.2835,-4.5028,-4.644,-4.7507,-4.8666,-4.8116,-4.8423,-4.9648,-5.0236,-5.1387,-5.3296,-5.4381,-5.4528,-5.4104,-5.3296,-5.1106,0.0,0.0,0.0,0.0,0.0,0.0,0.0,0.0,0.0,0.0,0.0,-4.1105,-3.9742,0.0,0.0,0.0,-4.1089,-4.1009,-4.0335,-4.1027,0.0,0.0,0.0,0.0,0.0,0.0,0.0,-3.9685,-4.3016,-4.5547,-4.5673,-4.4198,-4.3883,-4.6055,-4.5594,-4.5146,-4.5217,0.0,-5.2664,-5.451,-5.5228,-5.6537,-5.9138,-5.9605,-6.0517,-6.3621,-6.8602,-7.2711,-7.4131,-7.7612,-8.0208,-8.0709,-8.0906,-8.1102,-8.162,-8.1715,-8.2118,-8.3086,-8.3921,-8.4737,-8.5771,-8.7247,-8.8307,-4.1799,-4.0492,-3.674,-3.7251,-4.0508,-4.0543,-4.2512,-4.5847,-4.5883,-4.4819,-4.3291,-4.5077,-4.3586,-3.9746,-3.9708,0.0,-4.2564,-4.2913,-4.4096,-4.5883,-4.5883,-4.57,-4.537,-4.5718,-4.57,-4.5352,-4.5755,-4.6122,-4.6513,-4.4958,-4.4032,-4.3861,-4.4261,-4.3452,-4.1699,-4.3529,-4.421,-4.3408,-4.6532,-4.7598,-4.6858,-4.7871,-4.8286,-4.8286,-4.9648,-5.0432,-5.0627,-5.3296,-5.4822,-5.4443,-5.3836,-5.2808,-5.1422,0.0,0.0,0.0,0.0,0.0,0.0,0.0,0.0,0.0,0.0,0.0,0.0,0.0,0.0,0.0,-4.4267,0.0,-4.2855,-4.1547,0.0,0.0,0.0,-4.175,-4.4446,-4.5036,-4.5313,-4.5464,0.0,0.0,-4.6652,-4.6874,-4.8708,-5.3391,-5.4367,-5.4024,-5.2236,-5.5131,-5.7236,-5.5571,-5.559,-5.6243,-5.8577,-6.1807,-6.6453,-7.2378,-7.6217,-7.7618,-7.8779,-7.96,-8.0276,-8.061,-8.0808,-8.1102,-8.1393,-8.1585,-8.2083,-8.3155,-8.3601,-8.4159,-8.5438,-8.6574,-8.7403,-3.7915,-3.784,-3.9911,-4.2232,-4.4448,-4.4448,-4.4961,-4.5883,-4.5883,-4.5553,-4.5261,-4.5627,-4.5242,-4.4359,-4.4359,-4.4672,-4.5021,-4.5206,-4.5333,-4.5883,-4.5883,-4.5847,-4.5755,-4.5847,-4.5847,-4.5773,-4.6158,-4.6379,-4.647,-4.6703,-4.6126,-4.4876,-4.5164,-4.4051,-4.1815,-4.2504,-4.3594,-4.5121,-4.5942,-4.6878,-4.778,-4.8088,-4.7889,-4.7075,-4.7473,-4.8249,-4.9395,-5.1134,-5.2862,-5.4341,-5.5332,-5.4639,-5.156,-4.9572,0.0,0.0,0.0,0.0,0.0,0.0,0.0,0.0,0.0,-4.2127,-3.9733,0.0,-4.0671,0.0,-4.4556,-4.6323,-4.6358,-4.5622,0.0,0.0,-4.3992,-4.4041,-4.4774,-4.7209,-4.788,-4.5288,-4.7757,-4.9727,-4.9875,-5.1021,-5.3784,-5.8889,-5.4313,-5.0551,-5.1598,-5.5715,-5.8833,-5.9535,-6.2232,-6.4897,-6.558,-6.7986,-7.0802,-7.386,-7.6103,-7.7948,-7.9179,-7.9801,-8.0276,-8.0808,-8.0906,-8.12,-8.1585,-8.1776,-8.2265,-8.333,-8.4163,-8.5182,-8.7033,-8.807,-8.8641,-3.6553,-3.6948,-4.1029,-4.3556,-4.4525,-4.5506,-4.5883,-4.5883,-4.5883,-4.5883,-4.5883,-4.5883,-4.5883,-4.5883,-4.5883,-4.5883,-4.5883,-4.5883,-4.5883,-4.5883,-4.5883,-4.5883,-4.5902,-4.6067,-4.6048,-4.5902,-4.6287,-4.6489,-4.6507,-4.6929,-4.6703,-4.6026,-4.6385,-4.5488,-4.3277,-4.2853,-4.3548,-4.5106,-4.5865,-4.6925,-4.8139,-4.7871,-4.7357,-4.6821,-4.637,-4.6555,-4.7519,-4.9024,-5.0315,-5.1477,-5.2823,-5.2558,-5.0149,-4.8554,-4.6734,0.0,0.0,0.0,0.0,0.0,0.0,0.0,0.0,0.0,0.0,0.0,-4.2093,-4.248,-4.6008,-4.7797,-4.6287,-4.656,-4.6756,-4.686,-4.681,-4.7333,-4.8632,-5.0563,-5.1059,-4.9362,-5.1394,-5.3277,-5.4484,-5.5703,-5.8027,-6.2485,-5.8939,-5.6405,-5.8007,-6.0706,-6.2727,-6.388,-6.6146,-6.7953,-6.8799,-7.0569,-7.2394,-7.4168,-7.6442,-7.8442,-7.9824,-8.0376,-8.0885,-8.1384,-8.121,-8.12,-8.1715,-8.2086,-8.2823,-8.4396,-8.5398,-8.6169,-8.6851,-8.7312,-8.7739,-3.6288,-3.6472,-4.0384,-4.2302,-4.2652,-4.4596,-4.5732,-4.5883,-4.5883,-4.5883,-4.5883,-4.5883,-4.5883,-4.5883,-4.5883,-4.5883,-4.5883,-4.5883,-4.5883,-4.5883,-4.5883,-4.592,-4.5975,-4.6269,-4.625,-4.5993,-4.6305,-4.6507,-4.6562,-4.6599,-4.6827,-4.6845,-4.735,-4.6614,-4.4849,-4.3755,-4.358,-4.4442,-4.6105,-4.7359,-4.8118,-4.7204,-4.6466,-4.6556,-4.5635,-4.5166,-4.5466,-4.6805,-4.7698,-4.7774,-4.8897,-4.9307,-4.8796,-4.6891,-4.5526,0.0,-4.4608,0.0,0.0,0.0,0.0,0.0,0.0,0.0,0.0,-4.4981,-4.4499,-4.4547,-4.7877,-4.886,-4.5764,-4.6753,-4.8204,-4.9657,-4.9916,-5.0962,-5.3365,-5.3822,-5.3991,-5.4599,-5.5259,-5.6486,-5.8679,-5.9919,-6.1607,-6.4102,-6.4599,-6.4693,-6.6286,-6.6313,-6.648,-6.7541,-6.7816,-6.8363,-6.9337,-7.1018,-7.2922,-7.4596,-7.7122,-7.9353,-8.0699,-8.1221,-8.1597,-8.1964,-8.1688,-8.1508,-8.1888,-8.263,-8.3843,-8.557,-8.6665,-8.7,-8.6574,-8.6481,-8.6361,-3.4748,-3.4939,-3.7329,-3.9166,-4.0674,-4.2833,-4.4619,-4.5883,-4.5883,-4.5883,-4.5883,-4.5883,-4.5883,-4.5883,-4.5883,-4.5883,-4.5883,-4.5883,-4.5883,-4.5883,-4.5883,-4.6067,-4.6342,-4.6103,-4.6122,-4.636,-4.6452,-4.6654,-4.7002,-4.7314,-4.6874,-4.5923,-4.614,-4.5312,-4.3589,0.0,0.0,0.0,-4.6105,-4.7046,-4.7072,-4.6352,-4.5409,-4.4656,-4.4307,0.0,-4.4358,-4.5838,-4.6893,-4.7316,-4.8942,0.0,0.0,0.0,0.0,0.0,0.0,0.0,0.0,0.0,0.0,0.0,-4.76,-4.6708,-4.4829,-4.531,-4.6414,-4.8001,-4.8677,-4.9958,-5.197,-5.1745,-5.1921,-5.2815,-5.2887,-5.3201,-5.3774,-5.3822,-5.4146,-5.5263,-5.6302,-5.7516,-5.916,-6.1422,-6.3558,-6.4719,-6.6173,-6.7374,-6.8256,-6.7403,-6.7014,-6.7541,-6.8363,-6.9068,-6.9203,-7.2347,-7.462,-7.5592,-7.8502,-8.0975,-8.147,-8.1892,-8.214,-8.2203,-8.2474,-8.2741,-8.2749,-8.4042,-8.5252,-8.5948,-8.6888,-8.7805,-8.847,-8.8552,-8.8541,-3.4322,0.0,-3.6347,-3.7784,0.0,-4.1763,-4.3539,-4.4525,-4.5506,-4.5883,-4.5883,-4.5883,-4.5883,-4.5883,-4.5883,-4.5883,-4.5883,-4.5883,-4.5883,-4.5883,-4.5883,-4.6103,-4.6489,-4.6489,-4.6489,-4.6489,-4.6892,-4.6984,-4.6837,-4.7406,-4.7332,-4.6652,-4.6821,-4.6599,-4.5822,-4.5784,-4.5425,-4.4987,-4.6176,-4.7052,-4.7596,-4.6698,-4.6046,-4.5678,-4.5028,0.0,0.0,0.0,0.0,0.0,0.0,0.0,0.0,-4.9068,0.0,-4.9742,-4.9571,-4.976,-5.0193,-5.0865,-5.1179,-5.1066,-5.0993,-4.9986,-4.7442,-4.927,-5.0791,-5.1064,-5.1675,-5.2632,-5.3905,-5.3743,-5.3656,-5.372,-5.3822,-5.3822,-5.3822,-5.3822,-5.4397,-5.5851,-5.6839,-5.8311,-6.0876,-6.2641,-6.4333,-6.5652,-6.6642,-6.7584,-6.8171,-6.7947,-6.7982,-6.8499,-6.9516,-7.0397,-7.1248,-7.385,-7.6442,-7.735,-7.9931,-8.1926,-8.2528,-8.2844,-8.3125,-8.3159,-8.3326,-8.3354,-8.3507,-8.4655,-8.5988,-8.6919,-8.7716,-8.8728,-9.0009,-8.9535,-8.8655,-3.4482,-3.4649,-3.5998,-3.6867,-3.7383,-4.0658,-4.221,-4.307,0.0,0.0,0.0,-4.5883,-4.5883,-4.5883,-4.5883,-4.5883,-4.5883,-4.5883,-4.5883,-4.5883,-4.5957,-4.6213,-4.6599,-4.6947,-4.6965,-4.6727,-4.7295,-4.7277,-4.6727,-4.7369,-4.7736,-4.7827,-4.8121,-4.8286,-4.8286,-4.8286,-4.7524,-4.6331,-4.6562,-4.7301,-4.8144,-4.7084,-4.6928,-4.7491,-4.6174,-4.5676,-4.616,-4.5959,-4.5696,-4.5609,-4.6883,-4.731,-4.6836,-4.8349,-4.9487,-4.9881,-5.0785,-5.1934,-5.325,-5.4022,-5.4499,-5.4349,-5.4211,-5.3249,-5.115,-5.3395,-5.4664,-5.3618,-5.4812,-5.5151,-5.4391,-5.4467,-5.4399,-5.387,-5.3822,-5.3822,-5.3822,-5.3972,-5.467,-5.6529,-5.7584,-5.9278,-6.2696,-6.3931,-6.4894,-6.6314,-6.6751,-6.7057,-6.7667,-6.8363,-6.8876,-6.9369,-7.052,-7.1759,-7.2979,-7.5352,-7.7589,-7.8584,-8.0785,-8.261,-8.3279,-8.3734,-8.4011,-8.4114,-8.4077,-8.4136,-8.4294,-8.5298,-8.6534,-8.8206,-8.8791,-8.9425,-9.0627,-8.9873,-8.8729,-3.507,-3.507,-3.5436,-3.6287,-3.7856,-3.8423,-4.0275,-4.3238,-4.5065,-4.5883,-4.5883,-4.5883,-4.5883,-4.5883,-4.5883,-4.5883,-4.5883,-4.5883,-4.5883,-4.5902,-4.6232,-4.6617,-4.7002,-4.7075,-4.7259,-4.7497,-4.7295,-4.7314,-4.7516,-4.7644,-4.7864,-4.8157,-4.8249,-4.8286,-4.8286,-4.8286,-4.8244,-4.7924,-4.7237,-4.7165,-4.7662,-4.6701,-4.6457,-4.6862,-4.6748,-4.6502,-4.6245,-4.6223,-4.5897,-4.5609,-4.5755,-4.6921,-4.9267,-4.9674,-5.1154,-5.4038,-5.4499,-5.4898,-5.5532,-5.5719,-5.6069,-5.6632,-5.5928,-5.5018,-5.3934,-5.428,-5.4788,-5.5183,-5.5155,-5.5115,-5.5147,-5.4751,-5.4399,-5.3894,-5.3822,-5.3972,-5.4397,-5.4397,-5.5532,-5.8366,-5.9236,-6.0701,-6.3291,-6.4855,-6.552,-6.5998,-6.6476,-6.6912,-6.7276,-6.8311,-6.9384,-7.0072,-7.1304,-7.2243,-7.3499,-7.5645,-7.7771,-7.8209,-8.0366,-8.2174,-8.3038,-8.3663,-8.4079,-8.4216,-8.4864,-8.5305,-8.519,-8.6662,-8.772,-8.8472,-8.9135,-8.9906,-8.9888,-8.9862,-9.0015,-3.5672,-3.5631,-3.5324,-3.5632,-3.6355,-3.8037,-4.0506,-4.3306,-4.5083,-4.5883,-4.5883,-4.5883,-4.5883,-4.5883,-4.5883,-4.5883,-4.5883,-4.5883,-4.5993,-4.6213,-4.6397,-4.6819,-4.7387,-4.7424,-4.7516,-4.7681,-4.7736,-4.7736,-4.7717,-4.7901,-4.8102,-4.8267,-4.8286,-4.8286,-4.8286,-4.8286,-4.8088,-4.7455,-4.7734,-4.7705,-4.7496,-4.7106,-4.7296,-4.7722,-4.7509,-4.7495,-4.8037,-4.782,-4.7484,-4.703,-4.7854,-4.8739,-4.9521,-5.0652,-5.2454,-5.5045,-5.5481,-5.6427,-5.8113,-5.7998,-5.7881,-5.7927,-5.7214,-5.6624,-5.63,-5.6041,-5.5715,-5.5691,-5.5564,-5.5516,-5.5458,-5.4928,-5.4551,-5.4171,-5.4098,-5.467,-5.5654,-5.5947,-5.72,-6.0154,-6.0975,-6.2053,-6.4167,-6.4971,-6.5402,-6.546,-6.5954,-6.636,-6.665,-6.823,-6.9782,-7.0572,-7.1783,-7.3495,-7.5263,-7.743,-7.9089,-7.9925,-8.1309,-8.2388,-8.2908,-8.3632,-8.4489,-8.4489,-8.5274,-8.5921,-8.5811,-8.6769,-8.7702,-8.84,-8.8615,-8.91,-8.9654,-8.9857,-8.973,-3.6072,-3.6019,-3.5578,-3.5231,-3.5301,-3.8134,-4.0639,-4.2748,-4.4569,-4.5707,-4.6012,-4.5938,-4.5883,-4.5883,-4.5883,-4.5883,-4.5883,-4.5883,-4.6103,-4.647,-4.658,-4.7002,-4.7662,-4.7772,-4.7827,-4.7846,-4.8066,-4.7992,-4.7772,-4.8011,-4.8194,-4.8267,-4.8286,-4.8286,-4.8286,-4.8286,-4.769,-4.6911,-4.796,-4.8231,-4.7421,-4.7775,-4.8148,-4.8935,-4.8649,-4.8844,-4.9496,-4.9203,-4.8818,-4.8322,-4.9452,-4.9855,-4.9435,-5.0684,-5.2661,-5.463,-5.54,-5.7182,-5.9787,-5.969,-5.9209,-5.88,-5.8175,-5.7814,-5.7766,-5.7333,-5.6702,-5.6126,-5.6041,-5.6011,-5.5458,-5.5058,-5.4703,-5.4494,-5.4819,-5.5679,-5.7082,-5.7629,-5.9017,-6.1785,-6.2347,-6.3037,-6.4425,-6.4996,-6.4996,-6.524,-6.556,-6.595,-6.6393,-6.8196,-6.9914,-7.1199,-7.2595,-7.4594,-7.7268,-7.8705,-7.9935,-8.1029,-8.1677,-8.2027,-8.234,-8.3704,-8.4797,-8.4557,-8.5476,-8.609,-8.6294,-8.6789,-8.7335,-8.7923,-8.8051,-8.8596,-9.0095,-8.9253,-8.8943,-3.6086,-3.6072,-3.6006,-3.5819,-3.5697,-3.7789,-3.9714,-4.1457,-4.3135,-4.4975,-4.6206,-4.6048,-4.5902,-4.5883,-4.5883,-4.5883,-4.5883,-4.5883,-4.6103,-4.6507,-4.6874,-4.7277,-4.7717,-4.8047,-4.8231,-4.8157,-4.7919,-4.7754,-4.7662,-4.7736,-4.7937,-4.8249,-4.8286,-4.8286,-4.8286,-4.8286,-4.769,-4.6694,-4.7421,-4.7793,-4.7828,-4.8183,-4.8989,-5.0425,-5.0407,-5.0042,-4.9533,-4.9478,-4.9093,-4.8377,-4.8484,-4.8685,-4.9301,-4.9567,-5.081,-5.3701,-5.4851,-5.6791,-5.9787,-5.969,-5.9378,-5.9257,-5.8392,-5.7838,-5.779,-5.7333,-5.7021,-5.6765,-5.6382,-5.6011,-5.5433,-5.521,-5.4981,-5.4619,-5.5801,-5.7226,-5.7798,-5.8903,-6.0538,-6.248,-6.2906,-6.3328,-6.4711,-6.4996,-6.5124,-6.5348,-6.5689,-6.5933,-6.6243,-6.8364,-7.0302,-7.1956,-7.3912,-7.5806,-7.7635,-7.8425,-7.9346,-7.9931,-8.0138,-8.0714,-8.1597,-8.2649,-8.3567,-8.4318,-8.5476,-8.626,-8.6429,-8.6726,-8.7082,-8.7431,-8.7808,-8.8506,-8.9906,-8.8895,-8.8208,-3.658,-3.6553,-3.6219,-3.5805,-3.5563,-3.7301,-3.8516,-3.9388,-4.2674,-4.4402,-4.5046,-4.6078,-4.6342,-4.5902,-4.5883,-4.5883,-4.5883,-4.5883,-4.625,-4.6819,-4.702,-4.7442,-4.8011,-4.8194,-4.8176,-4.7937,-4.7772,-4.7571,-4.7424,-4.7571,-4.7772,-4.7956,-4.8157,-4.8286,-4.8286,-4.769,-4.7,-4.6021,-4.6541,-4.6717,-4.6334,-4.6482,-4.7387,-4.8544,-4.8368,-4.8846,-4.9348,-4.9276,-4.8873,-4.8341,-4.8286,-4.8116,-4.8095,-4.823,-4.9707,-5.2492,-5.5575,-5.8236,-6.0003,-5.9979,-5.9714,-5.9402,-5.8704,-5.8151,-5.7814,-5.7333,-5.7021,-5.6949,-5.654,-5.5987,-5.5433,-5.521,-5.5131,-5.5115,-5.641,-5.8082,-5.9349,-6.0702,-6.2347,-6.3879,-6.4167,-6.4296,-6.4839,-6.5222,-6.5504,-6.5853,-6.6322,-6.6663,-6.6629,-6.9202,-7.1603,-7.2756,-7.4956,-7.7091,-7.8264,-7.8808,-7.9355,-7.9766,-8.0275,-8.0851,-8.0986,-8.2649,-8.401,-8.3974,-8.5236,-8.6225,-8.6494,-8.6789,-8.7082,-8.7309,-8.7655,-8.8416,-9.0123,-8.8562,-8.8082,-3.6941,-3.6847,-3.6313,-3.5832,-3.5616,-3.6663,-3.7515,-3.8516,-4.1867,-4.3687,-4.4239,-4.6143,-4.6782,-4.6269,-4.6103,-4.6012,-4.5902,-4.5883,-4.6324,-4.7039,-4.7112,-4.7534,-4.8231,-4.8286,-4.8139,-4.7864,-4.7626,-4.7314,-4.702,-4.6943,-4.7198,-4.7736,-4.7887,-4.7889,-4.7889,-4.7093,-4.6215,-4.5498,-4.5943,-4.5714,-4.5179,-4.5398,-4.6269,-4.7507,-4.7477,-4.7946,-4.9311,-4.9221,-4.8818,-4.8322,-4.8286,-4.7937,-4.7167,-4.748,-4.8954,-5.1972,-5.5575,-5.8577,-6.0003,-6.0171,-5.9883,-5.9233,-5.868,-5.8079,-5.7454,-5.6876,-5.6588,-5.6516,-5.6083,-5.5602,-5.5588,-5.5242,-5.5285,-5.5779,-5.7421,-5.9236,-6.1029,-6.2508,-6.3749,-6.4839,-6.4839,-6.4996,-6.4996,-6.5222,-6.563,-6.6007,-6.7031,-6.7939,-6.8062,-7.0798,-7.3449,-7.3675,-7.6191,-7.8198,-7.8941,-7.9251,-7.9596,-7.9869,-8.0513,-8.0784,-8.0814,-8.2648,-8.4078,-8.3903,-8.5302,-8.6256,-8.6558,-8.6887,-8.7275,-8.7501,-8.7878,-8.8361,-8.9832,-8.8469,-8.8281,-3.6941,-3.6847,-3.6313,-3.6032,-3.5965,-3.5616,-3.6607,-3.8397,-4.0576,-4.2438,-4.4402,-4.6304,-4.7094,-4.7002,-4.6654,-4.6269,-4.5957,-4.5938,-4.636,-4.7094,-4.7112,-4.7516,-4.8249,-4.8286,-4.8267,-4.8102,-4.7479,-4.6947,-4.6353,-4.5963,-4.634,-4.7485,-4.7077,-4.6676,-4.6676,-4.6676,-4.6093,-4.5275,-4.5652,-4.5613,-4.4705,-4.5316,-4.6694,-4.8579,-4.8754,-4.8989,-4.9403,-4.9478,-4.9093,-4.8322,-4.8286,-4.7919,-4.7204,-4.7094,-4.8877,-5.245,-5.4477,-5.6964,-5.9642,-6.0147,-5.9714,-5.8776,-5.8175,-5.7405,-5.6444,-5.5914,-5.565,-5.5506,-5.5275,-5.5235,-5.5807,-5.5554,-5.5976,-5.7446,-5.9349,-6.1002,-6.2375,-6.3749,-6.4711,-6.4996,-6.4996,-6.5124,-6.4967,-6.5222,-6.5727,-6.6352,-6.7366,-6.8627,-6.9834,-7.2457,-7.4425,-7.5547,-7.7139,-7.8974,-7.9284,-7.9492,-7.9801,-8.0141,-8.031,-8.0479,-8.1154,-8.1864,-8.2847,-8.3968,-8.5302,-8.6256,-8.6657,-8.6985,-8.737,-8.769,-8.7784,-8.8506,-8.9654,-8.9266,-8.8988,-3.6714,-3.6366,-3.6166,-3.5859,-3.5511,-3.5471,-3.5788,-3.6635,-4.0218,-4.2163,-4.3203,-4.6286,-4.7717,-4.7479,-4.7332,-4.7039,-4.6654,-4.6397,-4.6709,-4.7387,-4.7222,-4.7534,-4.8212,-4.8286,-4.8139,-4.7846,-4.7369,-4.6379,-4.509,-4.4622,-4.4794,-4.5217,-4.5561,-4.5674,-4.5473,-4.507,-4.4684,-4.4762,-4.5064,-4.4771,-4.4353,-4.571,-4.7101,-4.7912,-4.7478,-4.7941,-4.9514,-4.9001,-4.8579,-4.8286,-4.8286,-4.7919,-4.7361,-4.7723,-4.9677,-5.2745,-5.4675,-5.6987,-5.9618,-5.9859,-5.9212,-5.8187,-5.7629,-5.678,-5.595,-5.5433,-5.5385,-5.5419,-5.6049,-5.6477,-5.6477,-5.6423,-5.6963,-5.8533,-6.0593,-6.1975,-6.2375,-6.3749,-6.4996,-6.4996,-6.4996,-6.5124,-6.5504,-6.5756,-6.6352,-6.7608,-6.8883,-7.0005,-7.132,-7.3702,-7.5784,-7.6148,-7.7734,-7.9251,-7.9596,-7.9699,-7.9904,-8.0107,-8.0343,-8.095,-8.1524,-8.2505,-8.3423,-8.4239,-8.5604,-8.639,-8.6789,-8.7275,-8.7596,-8.7784,-8.7878,-8.8452,-8.935,-8.9055,-8.8743,-3.6567,-3.6219,-3.6006,-3.5712,-3.5364,-3.5444,-3.5378,-3.5836,-3.994,-4.1976,-4.2603,-4.6441,-4.8139,-4.7919,-4.7882,-4.7754,-4.7442,-4.6947,-4.7057,-4.7626,-4.7424,-4.7571,-4.8011,-4.8084,-4.7882,-4.7497,-4.6707,-4.5586,-4.4548,-4.3775,-4.3529,-4.3991,-4.431,-4.4683,-4.4481,-4.3973,-4.3913,-4.4342,-4.4606,-4.4564,-4.4563,-4.6202,-4.7296,-4.721,-4.6923,-4.7559,-4.9496,-4.8854,-4.8414,-4.8304,-4.8286,-4.7919,-4.7517,-4.7818,-4.9708,-5.2881,-5.4499,-5.6814,-5.9547,-5.9522,-5.8756,-5.7877,-5.7029,-5.6011,-5.5226,-5.4928,-5.5033,-5.5521,-5.6178,-5.694,-5.7883,-5.8291,-5.8903,-5.9904,-6.1409,-6.2641,-6.2802,-6.4167,-6.4868,-6.4996,-6.5124,-6.5348,-6.5756,-6.6007,-6.6939,-6.8444,-6.9808,-7.0947,-7.262,-7.4734,-7.6689,-7.7091,-7.8464,-7.9425,-7.9801,-7.9904,-8.0107,-8.0309,-8.051,-8.1049,-8.1859,-8.2908,-8.3861,-8.4712,-8.5565,-8.635,-8.702,-8.7596,-8.7784,-8.7878,-8.8121,-8.8506,-8.8841,-8.896,-8.8698,-3.65,-3.6366,-3.5872,-3.5618,-3.5525,-3.5324,-3.5204,-3.5823,-3.9935,-4.1786,-4.2367,-4.6441,-4.8267,-4.8249,-4.8212,-4.8231,-4.8066,-4.7461,-4.7369,-4.7717,-4.7681,-4.7681,-4.7809,-4.7827,-4.7589,-4.6955,-4.5748,-4.4761,-4.406,-4.2944,-4.2707,-4.3467,-4.3457,-4.3417,-4.3467,-4.3576,-4.3789,-4.4019,-4.4512,-4.4874,-4.5134,-4.6508,-4.7296,-4.7473,-4.7966,-4.8649,-4.9514,-4.9093,-4.8671,-4.8322,-4.8249,-4.8097,-4.7654,-4.7441,-4.8973,-5.2902,-5.3991,-5.6098,-5.9354,-5.9185,-5.8367,-5.7646,-5.6323,-5.5217,-5.4664,-5.4207,-5.4417,-5.5312,-5.5976,-5.6895,-5.9429,-6.0483,-6.1138,-6.1571,-6.1975,-6.2934,-6.4167,-6.4839,-6.4996,-6.4996,-6.5222,-6.5475,-6.5601,-6.6228,-6.7275,-6.8531,-6.9922,-7.1743,-7.3921,-7.5806,-7.7267,-7.8403,-7.9184,-7.9699,-7.9904,-8.0006,-8.0309,-8.051,-8.061,-8.1012,-8.1919,-8.2801,-8.3856,-8.4742,-8.5837,-8.6622,-8.7082,-8.7596,-8.7843,-8.8029,-8.827,-8.8596,-8.8963,-8.9163,-8.8779,-3.6273,-3.5899,-3.5712,-3.5511,-3.5338,-3.5231,-3.5204,-3.5612,-3.9905,-4.1754,-4.2571,-4.6441,-4.8286,-4.8286,-4.8286,-4.8286,-4.8267,-4.8011,-4.7992,-4.8029,-4.7827,-4.7846,-4.8047,-4.8084,-4.7362,-4.5948,-4.4535,-4.3379,-4.2403,-4.1392,-4.1142,-4.1631,-4.2052,-4.2206,-4.248,-4.2596,-4.2885,-4.3174,-4.3802,-4.3944,-4.4382,-4.6185,-4.7296,-4.7473,-4.8644,-4.9508,-4.9514,-4.9129,-4.8708,-4.8304,-4.8029,-4.771,-4.7683,-4.8563,-5.0601,-5.3437,-5.54,-5.7355,-5.9475,-5.8848,-5.7855,-5.7121,-5.5757,-5.4688,-5.4159,-5.3918,-5.4397,-5.5582,-5.67,-5.8366,-5.9931,-6.1464,-6.2298,-6.2564,-6.3357,-6.3908,-6.4325,-6.4711,-6.4996,-6.4996,-6.5348,-6.5601,-6.5978,-6.6816,-6.8176,-6.9662,-7.0933,-7.2714,-7.5095,-7.6291,-7.744,-7.895,-7.9428,-7.9904,-8.0006,-8.0209,-8.041,-8.061,-8.0808,-8.1073,-8.188,-8.2864,-8.3886,-8.4944,-8.6039,-8.6783,-8.724,-8.7561,-8.7843,-8.8213,-8.8452,-8.8916,-8.9485,-8.9292,-8.8794,-3.6072,-3.5631,-3.5511,-3.5364,-3.5204,-3.5204,-3.5204,-3.5809,-3.9905,-4.1754,-4.2571,-4.6441,-4.8286,-4.8286,-4.8286,-4.8286,-4.8286,-4.8286,-4.8286,-4.8249,-4.8047,-4.7992,-4.8011,-4.7325,-4.6608,-4.5134,-4.3534,-4.2277,-4.1304,-4.069,-4.0467,-4.0801,-4.1134,-4.1579,-4.2024,-4.2405,-4.2739,-4.3073,-4.3422,-4.3708,-4.4313,-4.6039,-4.7296,-4.7473,-4.906,-4.9713,-4.9514,-4.9129,-4.8708,-4.8267,-4.7791,-4.771,-4.8554,-4.9743,-5.1646,-5.4675,-5.6445,-5.8166,-5.9428,-5.8608,-5.7517,-5.6661,-5.5395,-5.4399,-5.3966,-5.4122,-5.4992,-5.6289,-5.7966,-5.9488,-6.0784,-6.2298,-6.315,-6.3282,-6.3908,-6.4454,-6.4325,-6.4711,-6.5124,-6.5251,-6.5504,-6.5978,-6.6909,-6.7728,-6.9317,-7.0933,-7.195,-7.316,-7.5252,-7.6468,-7.7677,-7.8822,-7.9566,-7.9905,-8.0175,-8.0309,-8.041,-8.0709,-8.1005,-8.1303,-8.1902,-8.3065,-8.419,-8.5422,-8.6651,-8.6915,-8.7405,-8.769,-8.7971,-8.827,-8.8686,-8.9091,-8.9462,-8.8942,-8.8468,-3.5872,-3.5578,-3.5311,-3.5217,-3.5204,-3.5204,-3.5204,-3.5809,-3.992,-4.1754,-4.2571,-4.6441,-4.8286,-4.8286,-4.8286,-4.8286,-4.8286,-4.8286,-4.8286,-4.8286,-4.8212,-4.8121,-4.7416,-4.6251,-4.531,-4.4465,-4.2538,-4.1337,-4.1111,-4.043,-4.0435,-4.0721,-4.1071,-4.1595,-4.2135,-4.2644,-4.2993,-4.3279,-4.3692,-4.3915,-4.3931,-4.6039,-4.7296,-4.7296,-4.906,-4.9936,-4.9514,-4.9056,-4.8616,-4.8176,-4.7674,-4.8424,-5.0139,-5.0437,-5.2902,-5.6814,-5.7355,-5.8319,-5.8998,-5.844,-5.7357,-5.6323,-5.5395,-5.4527,-5.4219,-5.514,-5.6289,-5.7421,-5.8956,-6.051,-6.1761,-6.299,-6.3777,-6.3908,-6.4167,-6.4454,-6.4868,-6.4996,-6.5251,-6.5475,-6.5853,-6.66,-6.7968,-6.8531,-7.0004,-7.1593,-7.2517,-7.3678,-7.4959,-7.6304,-7.7413,-7.832,-7.9365,-7.977,-8.0073,-8.041,-8.051,-8.0808,-8.1102,-8.1496,-8.1998,-8.3225,-8.4696,-8.5929,-8.6783,-8.7178,-8.7501,-8.7784,-8.8121,-8.8596,-8.8951,-8.9386,-8.9271,-8.8779,-8.8179,-3.5578,-3.5311,-3.5217,-3.5204,-3.5204,-3.5204,-3.5204,-3.5809,-3.9905,-4.1754,-4.2774,-4.6441,-4.8286,-4.8286,-4.8286,-4.8286,-4.8286,-4.8286,-4.8286,-4.8286,-4.8286,-4.7835,-4.7059,-4.6234,-4.4846,-4.3197,-4.2224,-4.1163,-4.0173,-4.0074,-4.0102,-4.0419,-4.0785,-4.1166,-4.1627,-4.2469,-4.2882,-4.3089,-4.3645,-4.3931,-4.4146,-4.6039,-4.7313,-4.749,-4.906,-4.99,-4.9478,-4.8818,-4.8102,-4.7461,-4.8381,-4.9181,-5.0498,-5.2429,-5.4829,-5.716,-5.8724,-5.9403,-5.914,-5.8367,-5.7333,-5.6299,-5.596,-5.5731,-5.5189,-5.6143,-5.7564,-5.8982,-5.9958,-6.1057,-6.283,-6.3647,-6.4167,-6.4583,-6.4583,-6.4711,-6.5094,-6.5251,-6.5475,-6.5601,-6.6103,-6.7061,-6.8176,-6.9432,-7.0711,-7.2165,-7.3214,-7.4031,-7.5203,-7.604,-7.6944,-7.8085,-7.9128,-7.9601,-7.9972,-8.0342,-8.061,-8.0906,-8.12,-8.1524,-8.2232,-8.3217,-8.4924,-8.6568,-8.7039,-8.737,-8.7596,-8.7878,-8.8361,-8.8775,-8.8897,-8.9135,-8.9158,-8.8764,-8.7968,-3.5245,-3.5204,-3.5204,-3.5204,-3.5204,-3.5204,-3.5823,-3.704,-4.0111,-4.2367,-4.379,-4.6658,-4.8286,-4.8286,-4.8286,-4.8286,-4.8286,-4.8286,-4.8286,-4.8286,-4.8286,-4.7871,-4.7167,-4.5871,-4.4118,-4.3169,-4.1817,-4.069,-4.0011,-3.9768,-3.9959,-4.0506,-4.1024,-4.1441,-4.1611,-4.2805,-4.3382,-4.3168,-4.3661,-4.3931,-4.4146,-4.6039,-4.6982,-4.7477,-4.881,-4.9569,-4.8799,-4.8267,-4.7736,-4.7628,-4.8576,-4.9875,-5.1388,-5.3771,-5.6249,-5.8383,-5.9451,-5.9594,-5.8993,-5.8079,-5.7339,-5.6765,-5.6548,-5.6623,-5.6827,-5.785,-5.9262,-6.0181,-6.1165,-6.2403,-6.3488,-6.4167,-6.4583,-6.4839,-6.4996,-6.5192,-6.5794,-6.5919,-6.6168,-6.6663,-6.7245,-6.8087,-6.9085,-7.0456,-7.1701,-7.294,-7.3833,-7.4471,-7.5139,-7.5773,-7.6507,-7.7546,-7.8688,-7.9228,-7.9833,-8.0137,-8.074,-8.1068,-8.1393,-8.162,-8.2362,-8.3374,-8.4812,-8.6281,-8.6961,-8.7596,-8.7784,-8.8029,-8.8361,-8.8615,-8.879,-8.8876,-8.8843,-8.8444,-8.7684,-3.4793,-3.5204,-3.498,-3.4993,-3.5191,-3.5191,-3.6216,-3.847,-4.0523,-4.2774,-4.4817,-4.7057,-4.7889,-4.8267,-4.8088,-4.8088,-4.8286,-4.8286,-4.8088,-4.8088,-4.7889,-4.7473,-4.7238,-4.4876,-4.3522,-4.2954,-4.1242,-4.0298,-3.9847,-3.9768,-4.0122,-4.059,-4.1521,-4.2058,-4.2002,-4.3426,-4.3818,-4.3507,-4.3692,-4.413,-4.4543,-4.6168,-4.7022,-4.7288,-4.8184,-4.8726,-4.8011,-4.7821,-4.7813,-4.7232,-4.8729,-5.065,-5.2987,-5.4654,-5.6723,-5.9114,-5.9475,-5.9185,-5.8512,-5.7759,-5.7193,-5.7116,-5.6875,-5.7283,-5.8381,-5.9515,-6.062,-6.1544,-6.2934,-6.3619,-6.4037,-6.4583,-6.4868,-6.4996,-6.5124,-6.5919,-6.6971,-6.6971,-6.6971,-6.8176,-6.8852,-6.9776,-7.0711,-7.1733,-7.2835,-7.3492,-7.4272,-7.4572,-7.5072,-7.5569,-7.6136,-7.6837,-7.7844,-7.8853,-7.9457,-8.0028,-8.0697,-8.1325,-8.1585,-8.1974,-8.2423,-8.3374,-8.47,-8.5794,-8.6871,-8.748,-8.7878,-8.8121,-8.8416,-8.8455,-8.8535,-8.8732,-8.8714,-8.7932,-8.7141,-3.3974,-3.4346,-3.4134,-3.4346,-3.498,-3.4768,-3.5992,-3.8678,-3.992,-4.2383,-4.4615,-4.5656,-4.6676,-4.8088,-4.7491,-4.7473,-4.8088,-4.8088,-4.7889,-4.6876,-4.6075,-4.5875,-4.5587,-4.4459,-4.3306,-4.1964,-4.0847,-4.0102,-3.9847,-3.9768,-4.0173,-4.087,-4.1064,-4.1206,-4.2091,-4.2625,-4.2869,-4.3041,-4.3581,-4.4281,-4.5055,-4.6112,-4.7062,-4.7454,-4.7834,-4.7864,-4.7581,-4.8362,-4.8729,-4.8784,-4.9905,-5.182,-5.4255,-5.6075,-5.7685,-5.895,-5.9426,-5.8945,-5.8241,-5.8082,-5.8056,-5.7624,-5.8404,-5.9331,-5.9734,-6.0784,-6.203,-6.2962,-6.3749,-6.4167,-6.4711,-6.4839,-6.5094,-6.5348,-6.5823,-6.6971,-6.8439,-6.8115,-6.8145,-6.8969,-6.989,-7.0711,-7.181,-7.2165,-7.3044,-7.3935,-7.4473,-7.4672,-7.5069,-7.5366,-7.583,-7.6395,-7.7261,-7.8235,-7.8837,-7.9473,-8.0371,-8.0837,-8.1259,-8.1816,-8.2395,-8.2939,-8.3984,-8.5415,-8.6791,-8.7328,-8.7738,-8.8037,-8.8294,-8.8398,-8.8326,-8.8131,-8.7884,-8.7245,-8.6815,-3.3498,-3.3922,-3.3922,-3.4134,-3.4557,-3.5795,-3.7638,-3.9698,-4.1155,-4.3198,-4.5237,-4.5271,-4.5875,-4.6876,-4.6676,-4.7075,-4.7473,-4.7491,-4.6876,-4.6075,-4.5271,-4.4363,-4.354,-4.3457,-4.2741,-4.1534,-4.0649,-4.0117,-3.9847,-3.9768,-3.9963,-4.0546,-4.0886,-4.1145,-4.1668,-4.2393,-4.277,-4.2469,-4.3073,-4.3799,-4.4854,-4.5731,-4.6746,-4.7451,-4.7453,-4.7222,-4.7047,-4.831,-4.9363,-5.0126,-5.1309,-5.2808,-5.5005,-5.6782,-5.8108,-5.9093,-5.8824,-5.8814,-5.8705,-5.8221,-5.8251,-5.8723,-5.9672,-6.0387,-6.1275,-6.2298,-6.3254,-6.4037,-6.4425,-6.4682,-6.5572,-6.5698,-6.5823,-6.6417,-6.7001,-6.8145,-6.9286,-6.9317,-6.9432,-7.0456,-7.1484,-7.181,-7.2379,-7.2835,-7.3389,-7.4372,-7.4672,-7.487,-7.5131,-7.5426,-7.5687,-7.6217,-7.6815,-7.7482,-7.8177,-7.8939,-7.9806,-8.02,-8.042,-8.1078,-8.1713,-8.2313,-8.2984,-8.4656,-8.6254,-8.7188,-8.7655,-8.7917,-8.8083,-8.8006,-8.7909,-8.7493,-8.7089,-8.6738,-8.6416,-3.286,-3.3286,-3.371,-3.3922,-3.4332,-3.6817,-3.8871,-4.1139,-4.2383,-4.3823,-4.5875,-4.5271,-4.4666,-4.5271,-4.5674,-4.6276,-4.6476,-4.6476,-4.5875,-4.4885,-4.4548,-4.3388,-4.2117,-4.1961,-4.2097,-4.1882,-4.0735,-4.0006,-3.9832,-3.9768,-4.0157,-4.0384,-4.1,-4.1392,-4.1291,-4.1939,-4.2726,-4.2307,-4.2821,-4.367,-4.4423,-4.5532,-4.6311,-4.702,-4.713,-4.6919,-4.7175,-4.8324,-4.9782,-5.1764,-5.2923,-5.415,-5.5475,-5.6781,-5.8165,-5.9113,-5.8482,-5.8569,-5.8797,-5.8552,-5.8871,-6.0592,-6.0489,-6.1166,-6.2459,-6.3254,-6.4037,-6.4711,-6.5094,-6.5572,-6.654,-6.6663,-6.7123,-6.7728,-6.8531,-6.9317,-7.0149,-7.0519,-7.1296,-7.2165,-7.2729,-7.3044,-7.3252,-7.3492,-7.4037,-7.4573,-7.487,-7.5164,-7.5325,-7.5518,-7.5681,-7.5906,-7.6503,-7.7451,-7.8049,-7.8348,-7.9304,-7.9764,-7.9787,-8.0338,-8.1061,-8.1608,-8.2327,-8.4131,-8.5645,-8.6403,-8.71,-8.7409,-8.7477,-8.7607,-8.7418,-8.7119,-8.6661,-8.6344,-8.609,-3.2234,-3.2648,-3.2447,-3.3485,-3.5375,-3.5782,-3.8277,-4.1186,-4.1202,-4.2636,-4.4868,-4.3263,-4.345,-4.4464,-4.4262,-4.4464,-4.5271,-4.5473,-4.4851,-4.3976,-4.359,-4.2351,-4.1521,-4.0889,-4.0815,-4.049,-4.0054,-3.9847,-3.9784,-3.9768,-4.0336,-4.1497,-4.0999,-4.0951,-4.1849,-4.213,-4.214,-4.2569,-4.3198,-4.416,-4.5438,-4.5743,-4.6128,-4.6782,-4.6606,-4.6896,-4.7793,-4.896,-5.0494,-5.2683,-5.4528,-5.5755,-5.6619,-5.7241,-5.7668,-5.8223,-5.8851,-5.897,-5.8644,-5.9506,-5.9815,-6.0296,-6.0943,-6.1816,-6.2858,-6.3545,-6.4325,-6.5065,-6.5823,-6.654,-6.7548,-6.7759,-6.7968,-6.8649,-6.9547,-7.0456,-7.1484,-7.2165,-7.2624,-7.3181,-7.3628,-7.3935,-7.3935,-7.3935,-7.4372,-7.4672,-7.4968,-7.5228,-7.5422,-7.5518,-7.5709,-7.5933,-7.6284,-7.7169,-7.8144,-7.8248,-7.8706,-7.9212,-7.9463,-7.9699,-8.0279,-8.0771,-8.1822,-8.3295,-8.4297,-8.4878,-8.5623,-8.6593,-8.688,-8.693,-8.6809,-8.6661,-8.634,-8.609,-8.6018,-3.202,-3.2234,-3.2234,-3.3273,-3.5151,-3.6803,-3.8885,-4.1171,-4.1818,-4.2856,-4.3467,-4.2652,-4.2243,-4.3263,-4.367,-4.4076,-4.4666,-4.4481,-4.3959,-4.317,-4.2384,-4.1674,-4.0848,-4.0419,-4.0197,-4.0038,-3.9847,-3.9768,-3.9768,-3.9768,-4.053,-4.0917,-4.053,-4.1193,-4.2168,-4.2307,-4.236,-4.3219,-4.3471,-4.4385,-4.5593,-4.5805,-4.6125,-4.6232,-4.6728,-4.725,-4.7907,-5.0474,-5.1963,-5.3429,-5.5221,-5.6395,-5.7124,-5.7285,-5.7305,-5.7879,-5.8753,-5.9223,-5.9009,-6.0042,-6.0774,-6.1318,-6.1985,-6.262,-6.3385,-6.4037,-6.481,-6.5572,-6.6044,-6.7001,-6.8474,-6.8828,-6.9495,-7.0149,-7.1076,-7.1842,-7.2591,-7.3285,-7.3628,-7.3731,-7.3935,-7.407,-7.4171,-7.4372,-7.4606,-7.487,-7.5164,-7.5325,-7.5422,-7.558,-7.5709,-7.6088,-7.6309,-7.6885,-7.7788,-7.7857,-7.8051,-7.8577,-7.8965,-7.9232,-7.9391,-7.9721,-8.063,-8.1857,-8.2734,-8.3719,-8.5127,-8.6289,-8.6299,-8.6361,-8.6283,-8.6267,-8.609,-8.5909,-8.5985,-3.1807,-3.1807,-3.2234,-3.3273,-3.5137,-3.7624,-3.9698,-4.1171,-4.2431,-4.306,-4.306,-4.2243,-4.1849,-4.2054,-4.2652,-4.3654,-4.4245,-4.3401,-4.2765,-4.2335,-4.1505,-4.0769,-4.0435,-4.0181,-4.0038,-3.9847,-4.0157,-3.9963,-3.9963,-4.0141,-4.0336,-4.0917,-4.1481,-4.185,-4.216,-4.2766,-4.3255,-4.3569,-4.3918,-4.4306,-4.5005,-4.5688,-4.6016,-4.613,-4.7417,-4.7926,-4.8811,-5.0871,-5.2758,-5.4119,-5.5454,-5.6652,-5.7413,-5.7397,-5.7484,-5.7812,-5.8599,-5.9337,-5.9959,-6.0829,-6.1642,-6.2042,-6.2738,-6.331,-6.3908,-6.4682,-6.5698,-6.654,-6.7001,-6.7848,-6.9294,-7.0016,-7.0662,-7.158,-7.2443,-7.3181,-7.3389,-7.3833,-7.3935,-7.407,-7.4171,-7.4105,-7.4172,-7.4573,-7.4771,-7.4968,-7.5228,-7.5422,-7.5614,-7.558,-7.5805,-7.6182,-7.6495,-7.6862,-7.7271,-7.743,-7.7623,-7.7851,-7.8222,-7.8485,-7.8484,-7.8602,-7.9753,-8.0891,-8.1993,-8.3046,-8.4592,-8.5785,-8.5785,-8.5794,-8.5897,-8.5906,-8.5909,-8.5873,-8.5948,-3.1807,-3.1807,-3.1807,-3.3684,-3.6398,-3.7012,-3.89,-4.1628,-4.2038,-4.2038,-4.2243,-4.1849,-4.1849,-4.1849,-4.2038,-4.2243,-4.2147,-4.1954,-4.1746,-4.1537,-4.0937,-4.0451,-4.0245,-3.9943,-3.9879,-3.9963,-4.0513,-4.0513,-4.0336,-4.0707,-4.1481,-4.2059,-4.2443,-4.3018,-4.3626,-4.3505,-4.347,-4.4078,-4.4322,-4.4893,-4.5579,-4.5883,-4.6411,-4.689,-4.7675,-4.859,-4.9937,-5.1722,-5.2961,-5.4698,-5.5416,-5.6155,-5.7093,-5.8129,-5.8098,-5.8365,-5.9009,-5.9985,-6.0565,-6.1495,-6.2206,-6.2553,-6.3046,-6.3647,-6.4268,-6.5202,-6.6421,-6.7668,-6.8295,-6.8992,-6.9879,-7.0519,-7.125,-7.1778,-7.2364,-7.3089,-7.3566,-7.334,-7.3641,-7.3807,-7.3675,-7.3874,-7.4006,-7.4539,-7.4968,-7.5164,-7.5325,-7.5518,-7.5709,-7.5805,-7.596,-7.6368,-7.6645,-7.6918,-7.7133,-7.7223,-7.7313,-7.7402,-7.7667,-7.798,-7.8186,-7.8427,-7.8981,-8.0134,-8.1232,-8.2523,-8.4029,-8.4942,-8.5123,-8.552,-8.5793,-8.5945,-8.5909,-8.5948,-8.5948,-3.1807,-3.1807,-3.286,-3.4518,-3.6817,-3.7861,-3.9552,-4.1423,-4.1849,-4.1849,-4.1849,-4.1849,-4.1849,-4.1644,-4.1849,-4.1722,-4.1547,-4.1357,-4.1071,-4.0801,-4.0419,-4.0181,-3.999,-3.9847,-3.9768,-3.9947,-4.0336,-4.0513,-4.0707,-4.1481,-4.2234,-4.2042,-4.3209,-4.3799,-4.456,-4.4542,-4.475,-4.5147,-4.5318,-4.5397,-4.5795,-4.6243,-4.6814,-4.7126,-4.8513,-4.9698,-5.075,-5.2747,-5.3616,-5.4948,-5.56,-5.6997,-5.7692,-5.8278,-5.8548,-6.0165,-5.9765,-6.0079,-6.0794,-6.1956,-6.264,-6.3026,-6.3647,-6.4037,-6.4496,-6.5345,-6.634,-6.7183,-6.7758,-6.8695,-6.9808,-7.032,-7.0929,-7.1487,-7.2026,-7.2372,-7.2911,-7.2846,-7.278,-7.3011,-7.3111,-7.3376,-7.3708,-7.427,-7.4698,-7.4926,-7.5152,-7.5377,-7.5798,-7.6088,-7.6275,-7.6645,-7.6828,-7.7099,-7.7133,-7.7223,-7.7278,-7.7456,-7.7719,-7.798,-7.8272,-7.8616,-7.8981,-7.955,-8.054,-8.1898,-8.3529,-8.4461,-8.5067,-8.5531,-8.5909,-8.5909,-8.5909,-8.5909,-8.6062,-3.2435,-3.2648,-3.3684,-3.5572,-3.7444,-3.8722,-4.0172,-4.1628,-4.1849,-4.1849,-4.1849,-4.1849,-4.1628,-4.1171,-4.0903,-4.0716,-4.0701,-4.0529,-4.0169,-3.9809,-3.9968,-3.981,-3.9456,-3.9362,-3.9768,-3.9768,-4.0724,-4.0901,-4.1657,-4.2618,-4.3192,-4.2234,-4.3972,-4.475,-4.4921,-4.5173,-4.5458,-4.5293,-4.5293,-4.5556,-4.5926,-4.677,-4.7231,-4.8216,-4.9454,-5.086,-5.1167,-5.3259,-5.4527,-5.4858,-5.6518,-5.7873,-5.8253,-5.9033,-5.9485,-6.0629,-6.0641,-6.1038,-6.1572,-6.2341,-6.3146,-6.3658,-6.4166,-6.4532,-6.4802,-6.5344,-6.6041,-6.6955,-6.7796,-6.8548,-6.9287,-6.9986,-7.0604,-7.1048,-7.1521,-7.1722,-7.1985,-7.2084,-7.225,-7.2514,-7.2645,-7.2674,-7.3105,-7.3897,-7.4359,-7.4652,-7.4944,-7.5202,-7.5518,-7.5773,-7.588,-7.5982,-7.6162,-7.6341,-7.6376,-7.6602,-7.6952,-7.7371,-7.758,-7.8031,-7.8287,-7.8441,-7.882,-7.9374,-8.0011,-8.1424,-8.3004,-8.4083,-8.5081,-8.5536,-8.5909,-8.5909,-8.5909,-8.5985,-8.6392,-3.4108,-3.4108,-3.4319,-3.6202,-3.9122,-3.9137,-4.0378,-4.1849,-4.1849,-4.1849,-4.1849,-4.1628,-4.0791,-3.9874,-3.9236,-3.9071,-3.8981,-3.841,-3.8154,-3.8386,-3.8977,-3.8838,-3.8565,-3.8971,-3.9963,-4.0141,-4.1094,-4.1674,-4.2234,-4.3972,-4.456,-4.456,-4.502,-4.547,-4.5549,-4.5293,-4.5187,-4.5003,-4.5114,-4.5755,-4.6371,-4.7179,-4.8077,-4.9517,-5.0241,-5.0761,-5.171,-5.3709,-5.4671,-5.4742,-5.6876,-5.8278,-5.8702,-5.9711,-6.0405,-6.0784,-6.143,-6.1795,-6.2493,-6.2648,-6.315,-6.3866,-6.4513,-6.4858,-6.4626,-6.6088,-6.6971,-6.7054,-6.781,-6.8786,-6.9413,-6.9994,-7.029,-7.0697,-7.0996,-7.1128,-7.1357,-7.1587,-7.172,-7.2049,-7.2014,-7.2004,-7.2223,-7.2882,-7.3615,-7.3939,-7.4101,-7.4416,-7.4626,-7.4901,-7.4911,-7.5008,-7.5185,-7.5239,-7.5292,-7.5621,-7.6192,-7.6747,-7.7181,-7.7767,-7.835,-7.8539,-7.8679,-7.9175,-7.9964,-8.1221,-8.237,-8.3559,-8.4552,-8.5468,-8.5909,-8.5909,-8.6024,-8.6098,-8.6779,-3.3273,-3.4306,-3.5348,-3.7235,-3.9345,-4.0378,-4.1218,-4.1644,-4.1849,-4.1849,-4.1628,-4.0791,-3.9844,-3.8825,-3.7664,-3.7155,-3.6839,-3.6608,-3.6363,-3.6589,-3.7219,-3.778,-3.7961,-3.876,-4.0141,-4.0707,-4.1674,-4.2635,-4.3591,-4.4714,-4.493,-4.5046,-4.533,-4.5517,-4.5388,-4.5132,-4.482,-4.5076,-4.5512,-4.6181,-4.6632,-4.835,-4.9568,-5.0506,-5.1841,-5.2447,-5.3453,-5.4579,-5.5044,-5.5758,-5.7266,-5.8216,-5.8883,-6.0206,-6.0784,-6.1156,-6.1794,-6.2103,-6.2801,-6.2948,-6.3065,-6.3428,-6.4106,-6.4694,-6.4547,-6.5826,-6.6467,-6.6869,-6.7629,-6.8516,-6.8737,-6.9213,-6.9648,-7.0108,-7.0402,-7.0598,-7.0761,-7.0958,-7.1054,-7.125,-7.1175,-7.1125,-7.1438,-7.1816,-7.2616,-7.3283,-7.3409,-7.3661,-7.3935,-7.4377,-7.4556,-7.4719,-7.4894,-7.4878,-7.4878,-7.5206,-7.5535,-7.6106,-7.671,-7.7398,-7.7964,-7.8504,-7.8728,-7.9188,-7.9797,-8.1026,-8.2063,-8.3066,-8.4163,-8.5399,-8.5873,-8.5948,-8.6062,-8.621,-8.6917,-3.3273,-3.4518,-3.6188,-3.7861,-3.9345,-4.1012,-4.1423,-4.1012,-4.1012,-4.0791,-4.0157,-3.9033,-3.803,-3.7194,-3.6103,-3.528,-3.4922,-3.473,-3.4564,-3.5252,-3.6187,-3.6963,-3.7568,-3.8745,-4.0336,-4.1094,-4.1866,-4.2635,-4.418,-4.4453,-4.4822,-4.5147,-4.5058,-4.4985,-4.5021,-4.4728,-4.4635,-4.5231,-4.5697,-4.7031,-4.7403,-4.9279,-5.0954,-5.1601,-5.2791,-5.3453,-5.4252,-5.5044,-5.5711,-5.6478,-5.7597,-5.8757,-5.9566,-6.0275,-6.1048,-6.1493,-6.1747,-6.1734,-6.2452,-6.3158,-6.3304,-6.3456,-6.4457,-6.4868,-6.4976,-6.5637,-6.6449,-6.6789,-6.7364,-6.7797,-6.8401,-6.9059,-6.9516,-6.9971,-7.0034,-7.01,-7.0067,-7.0196,-7.032,-7.0381,-7.0463,-7.0809,-7.106,-7.1378,-7.183,-7.2563,-7.2983,-7.3209,-7.3583,-7.4124,-7.4748,-7.4876,-7.4912,-7.4774,-7.4671,-7.4844,-7.4929,-7.5288,-7.5959,-7.6838,-7.739,-7.7964,-7.867,-7.9129,-7.9853,-8.0784,-8.2004,-8.3362,-8.4528,-8.5656,-8.5801,-8.5948,-8.6136,-8.632,-8.6712,-3.4095,-3.4518,-3.5978,-3.7652,-3.9137,-4.1012,-4.0806,-3.9345,-3.9345,-3.8707,-3.7401,-3.6758,-3.5762,-3.4563,-3.3778,-3.3094,-3.2963,-3.2742,-3.2812,-3.3587,-3.5579,-3.6173,-3.6963,-3.8353,-4.0707,-4.1481,-4.2234,-4.34,-4.4507,-4.4804,-4.5184,-4.5003,-4.4563,-4.4325,-4.46,-4.4288,-4.4603,-4.5312,-4.5684,-4.7414,-4.9121,-5.0464,-5.1769,-5.3078,-5.3902,-5.4556,-5.5067,-5.5734,-5.6319,-5.695,-5.8353,-5.9341,-5.9751,-6.075,-6.1244,-6.1176,-6.1711,-6.1826,-6.2148,-6.3486,-6.374,-6.3773,-6.4789,-6.5402,-6.5435,-6.6009,-6.6744,-6.7123,-6.7861,-6.8401,-6.8896,-6.9382,-6.9574,-6.9798,-6.9798,-6.9798,-6.9798,-6.9893,-7.0082,-7.027,-7.0423,-7.0641,-7.0916,-7.1165,-7.1289,-7.1774,-7.2361,-7.2846,-7.3454,-7.4179,-7.4974,-7.5013,-7.4981,-7.4636,-7.443,-7.4221,-7.4371,-7.4726,-7.5205,-7.5964,-7.676,-7.7333,-7.8154,-7.8938,-7.9826,-8.0798,-8.2301,-8.3799,-8.4636,-8.5402,-8.5801,-8.5948,-8.621,-8.6465,-8.6712,-3.2648,-3.2848,-3.4518,-3.5348,-3.6202,-3.7861,-3.8069,-3.7652,-3.7652,-3.7235,-3.6552,-3.5455,-3.4369,-3.3304,-3.2211,-3.1513,-3.1148,-3.1111,-3.1201,-3.2773,-3.4969,-3.6173,-3.716,-3.912,-4.1271,-4.2234,-4.3383,-4.4175,-4.5106,-4.5074,-4.4893,-4.449,-4.4249,-4.3793,-4.4189,-4.4417,-4.5312,-4.5919,-4.7295,-4.9168,-5.0505,-5.1703,-5.3056,-5.4719,-5.5044,-5.553,-5.5942,-5.666,-5.7033,-5.7517,-5.882,-5.9462,-5.9814,-6.07,-6.0941,-6.1256,-6.1765,-6.1689,-6.2132,-6.3031,-6.3294,-6.3954,-6.483,-6.5544,-6.5375,-6.6448,-6.7109,-6.7593,-6.8201,-6.8699,-6.8994,-6.9478,-6.9798,-6.9798,-6.9798,-6.9798,-6.9798,-6.9988,-7.0176,-7.0456,-7.0608,-7.0825,-7.1131,-7.1255,-7.1255,-7.1672,-7.2327,-7.3118,-7.3796,-7.459,-7.5441,-7.5254,-7.5154,-7.4671,-7.4343,-7.4237,-7.392,-7.3947,-7.4473,-7.5207,-7.5884,-7.6713,-7.7485,-7.8346,-7.9558,-8.0769,-8.2306,-8.3693,-8.4422,-8.504,-8.5257,-8.5733,-8.6101,-8.6355,-8.6608,-3.1807,-3.2033,-3.3173,-3.3561,-3.3909,-3.5768,-3.6607,-3.5978,-3.5348,-3.5151,-3.465,-3.351,-3.2824,-3.2156,-3.124,-3.0419,-3.0214,-3.0214,-3.0999,-3.2585,-3.4372,-3.6158,-3.8142,-4.0271,-4.1732,-4.3071,-4.3744,-4.4544,-4.4891,-4.493,-4.4508,-4.4157,-4.4145,-4.4445,-4.4585,-4.5255,-4.6094,-4.7275,-4.9168,-5.0527,-5.187,-5.3221,-5.4556,-5.5368,-5.6013,-5.6446,-5.7085,-5.7629,-5.7849,-5.8294,-5.8707,-5.928,-5.9833,-6.0325,-6.075,-6.1285,-6.1508,-6.16,-6.2234,-6.2933,-6.3568,-6.4412,-6.4906,-6.5452,-6.5884,-6.6869,-6.7491,-6.8101,-6.8699,-6.8994,-6.9285,-6.9703,-6.9798,-6.9798,-6.9798,-6.9798,-6.9988,-7.0176,-7.0363,-7.0515,-7.0733,-7.1007,-7.1222,-7.1289,-7.1413,-7.1931,-7.2395,-7.3242,-7.4035,-7.4919,-7.5647,-7.5687,-7.5464,-7.5016,-7.4619,-7.4391,-7.4004,-7.3438,-7.3961,-7.4657,-7.5194,-7.5941,-7.679,-7.7788,-7.8924,-8.0274,-8.213,-8.3515,-8.4133,-8.446,-8.4497,-8.5081,-8.5846,-8.6209,-8.6427,-3.1807,-3.1855,-3.2085,-3.206,-3.2496,-3.5204,-3.5585,-3.4082,-3.2623,-3.1972,-3.1935,-3.1598,-3.1365,-3.1073,-3.0455,-3.0238,-3.0226,-3.0214,-3.1403,-3.2786,-3.4571,-3.6751,-3.8909,-4.0868,-4.2448,-4.3362,-4.3973,-4.4425,-4.4673,-4.4343,-4.3921,-4.4164,-4.4921,-4.5549,-4.6075,-4.6753,-4.7794,-4.9168,-5.0527,-5.187,-5.3221,-5.4533,-5.546,-5.6215,-5.6646,-5.7253,-5.7611,-5.7775,-5.8034,-5.8537,-5.8929,-5.9453,-5.9966,-6.0667,-6.0944,-6.1184,-6.1149,-6.1759,-6.2555,-6.3418,-6.432,-6.5094,-6.5235,-6.6098,-6.6837,-6.7491,-6.8,-6.8501,-6.8994,-6.9382,-6.967,-6.9703,-6.9798,-6.9798,-6.9798,-6.9893,-7.0082,-7.027,-7.0456,-7.0641,-7.0825,-7.1098,-7.1222,-7.1379,-7.1447,-7.183,-7.2225,-7.2935,-7.3851,-7.4994,-7.5687,-7.6066,-7.5809,-7.5464,-7.5051,-7.4426,-7.4004,-7.3438,-7.3692,-7.4317,-7.4782,-7.5248,-7.6207,-7.7121,-7.8253,-7.9781,-8.1669,-8.2975,-8.3845,-8.3953,-8.3809,-8.4355,-8.5081,-8.5809,-8.6242,-3.1916,-3.2085,-3.2169,-3.2254,-3.2555,-3.3222,-3.2923,-3.2164,-3.1717,-3.1421,-3.1203,-3.0877,-3.0757,-3.0672,-3.0371,-3.0238,-3.0214,-3.0607,-3.2196,-3.3773,-3.5748,-3.7915,-4.0271,-4.2375,-4.3537,-4.3874,-4.4425,-4.4488,-4.4306,-4.3866,-4.4361,-4.5059,-4.5725,-4.7101,-4.8462,-4.9318,-4.9998,-5.0821,-5.1993,-5.3176,-5.4324,-5.546,-5.6232,-5.6915,-5.7262,-5.7719,-5.7848,-5.8217,-5.847,-5.8791,-5.9019,-5.9598,-6.0765,-6.0698,-6.0574,-6.1091,-6.1371,-6.1732,-6.3074,-6.3189,-6.4015,-6.5915,-6.6205,-6.6385,-6.7253,-6.8,-6.8633,-6.8994,-6.9318,-6.9607,-6.9703,-6.9798,-6.9798,-6.9798,-6.9798,-6.9988,-7.0176,-7.0456,-7.0641,-7.0825,-7.1007,-7.1098,-7.1312,-7.1312,-7.1413,-7.1638,-7.2144,-7.2785,-7.3494,-7.4513,-7.5342,-7.5844,-7.574,-7.5223,-7.4774,-7.4183,-7.3865,-7.3577,-7.3877,-7.4045,-7.4326,-7.487,-7.5536,-7.6742,-7.8305,-7.9683,-8.1093,-8.2251,-8.3229,-8.3157,-8.3048,-8.3629,-8.4281,-8.5008,-8.5903,-3.1556,-3.1698,-3.2253,-3.2543,-3.2531,-3.2302,-3.1843,-3.1324,-3.1336,-3.124,-3.0986,-3.0733,-3.0612,-3.0576,-3.0346,-3.0607,-3.1201,-3.1982,-3.3374,-3.5762,-3.7312,-3.9478,-4.1816,-4.3417,-4.3856,-4.4389,-4.4433,-4.4416,-4.4101,-4.4379,-4.4864,-4.5549,-4.6579,-4.8805,-5.0505,-5.1514,-5.2381,-5.2876,-5.3697,-5.4557,-5.5296,-5.6136,-5.6984,-5.724,-5.7699,-5.7917,-5.8017,-5.8499,-5.8719,-5.9073,-5.9266,-5.9893,-6.0737,-6.0639,-6.071,-6.1222,-6.1642,-6.2204,-6.3074,-6.3954,-6.5046,-6.6362,-6.7141,-6.7593,-6.7899,-6.8633,-6.9026,-6.9382,-6.9607,-6.9798,-6.9798,-6.9798,-6.9798,-6.9798,-6.9893,-7.0082,-7.027,-7.0549,-7.0733,-7.1007,-7.1131,-7.1222,-7.1312,-7.1312,-7.1401,-7.1647,-7.1893,-7.2293,-7.2999,-7.3843,-7.4619,-7.5223,-7.5119,-7.4809,-7.436,-7.3975,-7.3795,-7.3659,-7.3842,-7.3966,-7.4115,-7.4413,-7.5112,-7.6756,-7.8602,-7.9756,-8.0621,-8.1635,-8.2468,-8.2251,-8.1888,-8.1886,-8.2752,-8.4204,-8.5117,-3.0813,-3.1079,-3.2427,-3.2821,-3.2604,-3.2326,-3.1771,-3.1083,-3.1264,-3.1191,-3.0902,-3.0672,-3.0552,-3.0467,-3.0692,-3.1403,-3.2183,-3.316,-3.4955,-3.7568,-3.9073,-4.0996,-4.2396,-4.3568,-4.4167,-4.449,-4.4325,-4.4267,-4.4201,-4.4706,-4.5549,-4.6056,-4.8976,-5.0968,-5.2028,-5.3205,-5.398,-5.4277,-5.4667,-5.5192,-5.5659,-5.6561,-5.7421,-5.6999,-5.7506,-5.8057,-5.819,-5.8267,-5.8503,-5.9128,-5.9752,-6.0157,-6.0495,-6.086,-6.1073,-6.1523,-6.1969,-6.2844,-6.3615,-6.4703,-6.5717,-6.6881,-6.792,-6.8499,-6.8928,-6.9026,-6.9415,-6.9511,-6.9798,-6.9798,-6.9798,-6.9798,-6.9798,-6.9893,-7.0082,-7.027,-7.0549,-7.0733,-7.1007,-7.1222,-7.1222,-7.1312,-7.1312,-7.1312,-7.1367,-7.1546,-7.181,-7.214,-7.2605,-7.3258,-7.3757,-7.4464,-7.4257,-7.4016,-7.386,-7.3663,-7.3774,-7.3775,-7.3842,-7.3931,-7.4045,-7.4272,-7.4611,-7.6221,-7.7847,-7.8962,-7.9933,-8.0839,-8.1273,-8.0911,-8.0511,-7.9998,-8.0935,-8.2673,-8.3908,-3.0043,-3.1099,-3.2511,-3.2942,-3.2833,-3.2398,-3.1855,-3.1288,-3.1131,-3.0853,-3.0455,-3.0346,-3.0322,-3.0514,-3.1453,-3.2384,-3.2973,-3.4941,-3.6341,-3.8307,-4.0239,-4.184,-4.3379,-4.416,-4.4506,-4.4216,-4.423,-4.4547,-4.5135,-4.5725,-4.7255,-4.9276,-5.1303,-5.2005,-5.3472,-5.4624,-5.4845,-5.5063,-5.4896,-5.554,-5.6516,-5.6523,-5.6849,-5.7508,-5.8376,-5.8419,-5.8535,-5.8865,-5.9273,-5.9832,-6.0062,-6.0438,-6.0923,-6.1073,-6.1523,-6.2057,-6.2409,-6.3388,-6.4592,-6.5683,-6.6723,-6.7856,-6.873,-6.9157,-6.9415,-6.9511,-6.9574,-6.967,-6.9798,-6.9798,-6.9798,-6.9798,-6.9893,-6.9988,-7.0176,-7.0456,-7.0699,-7.1007,-7.1222,-7.1222,-7.1312,-7.1312,-7.1312,-7.1367,-7.1457,-7.1634,-7.181,-7.2106,-7.2365,-7.2811,-7.3015,-7.3429,-7.3257,-7.3135,-7.3184,-7.3421,-7.353,-7.3705,-7.3772,-7.3931,-7.401,-7.4435,-7.4926,-7.551,-7.6661,-7.8095,-7.9173,-7.9788,-8.0006,-7.9933,-7.9858,-7.9638,-7.9609,-8.0963,-8.2163,-2.983,-3.0511,-3.1519,-3.2296,-3.2592,-3.2314,-3.1831,-3.1264,-3.1059,-3.0708,-3.0262,-3.0214,-3.0619,-3.1201,-3.2183,-3.3773,-3.4571,-3.6721,-3.8307,-4.0061,-4.154,-4.2916,-4.4062,-4.4706,-4.4453,-4.4196,-4.4763,-4.523,-4.625,-4.7926,-4.9616,-5.1253,-5.2016,-5.3287,-5.4657,-5.4831,-5.4968,-5.4712,-5.4375,-5.536,-5.6692,-5.6776,-5.6867,-5.7867,-5.8402,-5.8685,-5.9054,-5.9304,-5.9764,-6.0279,-6.0467,-6.0681,-6.1044,-6.1193,-6.1404,-6.2087,-6.2844,-6.4036,-6.5328,-6.6669,-6.7695,-6.8665,-6.9254,-6.9607,-6.9475,-6.9537,-6.9438,-6.9533,-6.9765,-6.9798,-6.9798,-6.9798,-6.9988,-7.0082,-7.027,-7.0515,-7.0916,-7.1131,-7.1222,-7.1312,-7.1312,-7.1312,-7.1312,-7.1457,-7.1512,-7.181,-7.1985,-7.2245,-7.2416,-7.2501,-7.2671,-7.2671,-7.2671,-7.2755,-7.3026,-7.3226,-7.3438,-7.3612,-7.3737,-7.3931,-7.4088,-7.4633,-7.5225,-7.5621,-7.6338,-7.7695,-7.8629,-7.9281,-7.9716,-7.9897,-7.9786,-7.9565,-7.953,-7.9533,-8.0448,-2.9341,-2.9574,-3.065,-3.1527,-3.2205,-3.2157,-3.171,-3.1083,-3.0998,-3.0708,-3.025,-3.0404,-3.1403,-3.2183,-3.2986,-3.5167,-3.7145,-3.8894,-4.0465,-4.22,-4.4057,-4.4115,-4.4149,-4.4397,-4.4506,-4.5036,-4.578,-4.6678,-4.7753,-4.9342,-5.079,-5.2131,-5.3245,-5.4563,-5.45,-5.4634,-5.4712,-5.4393,-5.4427,-5.5046,-5.579,-5.6452,-5.7104,-5.7678,-5.8529,-5.905,-5.947,-5.9797,-6.0194,-6.056,-6.0802,-6.1073,-6.1193,-6.1193,-6.185,-6.2409,-6.3585,-6.4672,-6.5973,-6.7701,-6.8501,-6.919,-6.9607,-6.9732,-6.9599,-6.9401,-6.9268,-6.9334,-6.9566,-6.9699,-6.9699,-6.9798,-6.9988,-7.027,-7.0456,-7.0699,-7.1007,-7.1312,-7.1312,-7.1312,-7.1312,-7.1312,-7.1367,-7.1457,-7.1688,-7.1985,-7.2159,-7.2416,-7.2586,-7.2586,-7.2671,-7.2671,-7.2671,-7.2838,-7.2922,-7.317,-7.3415,-7.3577,-7.3852,-7.3931,-7.4132,-7.4709,-7.508,-7.537,-7.6195,-7.7405,-7.834,-7.91,-7.9499,-7.9897,-7.9788,-7.9602,-7.9304,-7.9253,-7.9205,-2.755,-2.9325,-3.1067,-3.2013,-3.2169,-3.1976,-3.1541,-3.1059,-3.0986,-3.0696,-3.0705,-3.1592,-3.2384,-3.2773,-3.3973,-3.6158,-3.8714,-4.0432,-4.22,-4.3972,-4.4392,-4.4407,-4.4397,-4.4562,-4.4678,-4.5799,-4.7161,-4.8805,-4.9639,-5.0891,-5.2339,-5.3978,-5.3697,-5.4311,-5.4454,-5.4503,-5.4373,-5.4108,-5.452,-5.5201,-5.6306,-5.701,-5.765,-5.8372,-5.9347,-5.9623,-5.9948,-6.0043,-6.056,-6.0923,-6.1044,-6.1193,-6.1284,-6.1523,-6.2175,-6.3273,-6.4451,-6.5772,-6.7164,-6.8304,-6.9091,-6.9214,-6.9467,-6.9566,-6.9334,-6.897,-6.8871,-6.8904,-6.9103,-6.9429,-6.9528,-6.9794,-6.9988,-7.0456,-7.0825,-7.1007,-7.1222,-7.1312,-7.1312,-7.1312,-7.1312,-7.1312,-7.1312,-7.1457,-7.1688,-7.1985,-7.2245,-7.2416,-7.2671,-7.2671,-7.2671,-7.2671,-7.2671,-7.2838,-7.3005,-7.317,-7.3415,-7.3657,-7.3852,-7.3931,-7.4209,-7.4709,-7.5006,-7.5262,-7.5943,-7.7004,-7.7941,-7.8992,-7.9499,-7.9861,-7.9897,-7.9674,-7.934,-7.9375,-7.9707]}]]